<?xml version="1.0" encoding="UTF-8" standalone="no" ?>
<gpx xmlns="http://www.topografix.com/GPX/1/1" xmlns:xsi="http://www.w3.org/2001/XMLSchema-instance" xsi:schemaLocation="http://www.topografix.com/GPX/1/1 http://www.topografix.com/GPX/1/1/gpx.xsd" version="1.1" creator="VisuGPX - https://www.visugpx.com">
  <metadata>
    <name>quistinic - sebrevet 37 km</name>
  </metadata>
  <trk>
    <name><![CDATA[quistinic - sebrevet 33 km]]></name>
    <trkseg>
      <trkpt lat="47.90533" lon="-3.14001">
        <ele>139.15</ele>
        <time>2020-08-06T06:56:55Z</time>
      </trkpt>
      <trkpt lat="47.90532" lon="-3.14006">
        <ele>136.34</ele>
        <time>2020-08-06T06:56:57Z</time>
      </trkpt>
      <trkpt lat="47.90529" lon="-3.14007">
        <ele>136.92</ele>
        <time>2020-08-06T06:57:07Z</time>
      </trkpt>
      <trkpt lat="47.9053" lon="-3.14006">
        <ele>136.89</ele>
        <time>2020-08-06T06:57:23Z</time>
      </trkpt>
      <trkpt lat="47.9053" lon="-3.13999">
        <ele>137.21</ele>
        <time>2020-08-06T06:57:32Z</time>
      </trkpt>
      <trkpt lat="47.90561" lon="-3.13998">
        <ele>137.35</ele>
        <time>2020-08-06T07:01:07Z</time>
      </trkpt>
      <trkpt lat="47.90566" lon="-3.13997">
        <ele>137.39</ele>
        <time>2020-08-06T07:01:11Z</time>
      </trkpt>
      <trkpt lat="47.90583" lon="-3.13991">
        <ele>137.38</ele>
        <time>2020-08-06T07:01:27Z</time>
      </trkpt>
      <trkpt lat="47.90591" lon="-3.13986">
        <ele>137.36</ele>
        <time>2020-08-06T07:01:41Z</time>
      </trkpt>
      <trkpt lat="47.90591" lon="-3.13984">
        <ele>137.53</ele>
        <time>2020-08-06T07:01:49Z</time>
      </trkpt>
      <trkpt lat="47.90596" lon="-3.13976">
        <ele>137.75</ele>
        <time>2020-08-06T07:01:56Z</time>
      </trkpt>
      <trkpt lat="47.90601" lon="-3.13972">
        <ele>137.8</ele>
        <time>2020-08-06T07:02:02Z</time>
      </trkpt>
      <trkpt lat="47.90608" lon="-3.13963">
        <ele>137.95</ele>
        <time>2020-08-06T07:02:14Z</time>
      </trkpt>
      <trkpt lat="47.90612" lon="-3.13955">
        <ele>137.98</ele>
        <time>2020-08-06T07:02:20Z</time>
      </trkpt>
      <trkpt lat="47.90617" lon="-3.13948">
        <ele>137.95</ele>
        <time>2020-08-06T07:02:24Z</time>
      </trkpt>
      <trkpt lat="47.90636" lon="-3.13928">
        <ele>138.05</ele>
        <time>2020-08-06T07:02:38Z</time>
      </trkpt>
      <trkpt lat="47.9065" lon="-3.13911">
        <ele>138.03</ele>
        <time>2020-08-06T07:02:51Z</time>
      </trkpt>
      <trkpt lat="47.90662" lon="-3.13889">
        <ele>138.07</ele>
        <time>2020-08-06T07:03:02Z</time>
      </trkpt>
      <trkpt lat="47.90666" lon="-3.1388">
        <ele>137.93</ele>
        <time>2020-08-06T07:03:07Z</time>
      </trkpt>
      <trkpt lat="47.90671" lon="-3.13873">
        <ele>137.84</ele>
        <time>2020-08-06T07:03:12Z</time>
      </trkpt>
      <trkpt lat="47.90673" lon="-3.1387">
        <ele>137.82</ele>
        <time>2020-08-06T07:03:14Z</time>
      </trkpt>
      <trkpt lat="47.90677" lon="-3.13862">
        <ele>137.77</ele>
        <time>2020-08-06T07:03:19Z</time>
      </trkpt>
      <trkpt lat="47.90687" lon="-3.13856">
        <ele>137.02</ele>
        <time>2020-08-06T07:03:34Z</time>
      </trkpt>
      <trkpt lat="47.9073" lon="-3.13908">
        <ele>128.97</ele>
        <time>2020-08-06T07:05:05Z</time>
      </trkpt>
      <trkpt lat="47.90734" lon="-3.1392">
        <ele>128</ele>
        <time>2020-08-06T07:05:13Z</time>
      </trkpt>
      <trkpt lat="47.90739" lon="-3.1393">
        <ele>127.67</ele>
        <time>2020-08-06T07:05:20Z</time>
      </trkpt>
      <trkpt lat="47.90749" lon="-3.13958">
        <ele>125.99</ele>
        <time>2020-08-06T07:05:34Z</time>
      </trkpt>
      <trkpt lat="47.90757" lon="-3.13973">
        <ele>124.28</ele>
        <time>2020-08-06T07:05:45Z</time>
      </trkpt>
      <trkpt lat="47.90759" lon="-3.13976">
        <ele>123.97</ele>
        <time>2020-08-06T07:05:47Z</time>
      </trkpt>
      <trkpt lat="47.90774" lon="-3.13991">
        <ele>122.58</ele>
        <time>2020-08-06T07:05:59Z</time>
      </trkpt>
      <trkpt lat="47.90779" lon="-3.14026">
        <ele>121.84</ele>
        <time>2020-08-06T07:06:11Z</time>
      </trkpt>
      <trkpt lat="47.90785" lon="-3.14062">
        <ele>121.89</ele>
        <time>2020-08-06T07:06:33Z</time>
      </trkpt>
      <trkpt lat="47.90778" lon="-3.14085">
        <ele>122.84</ele>
        <time>2020-08-06T07:06:46Z</time>
      </trkpt>
      <trkpt lat="47.90776" lon="-3.1409">
        <ele>123.08</ele>
        <time>2020-08-06T07:06:52Z</time>
      </trkpt>
      <trkpt lat="47.90823" lon="-3.14136">
        <ele>136.31</ele>
        <time>2020-08-06T07:07:58Z</time>
      </trkpt>
      <trkpt lat="47.90841" lon="-3.14147">
        <ele>138.38</ele>
        <time>2020-08-06T07:08:09Z</time>
      </trkpt>
      <trkpt lat="47.9086" lon="-3.14149">
        <ele>140.61</ele>
        <time>2020-08-06T07:08:21Z</time>
      </trkpt>
      <trkpt lat="47.90878" lon="-3.14153">
        <ele>142.36</ele>
        <time>2020-08-06T07:08:35Z</time>
      </trkpt>
      <trkpt lat="47.9089" lon="-3.14154">
        <ele>143.69</ele>
        <time>2020-08-06T07:08:45Z</time>
      </trkpt>
      <trkpt lat="47.90893" lon="-3.14156">
        <ele>143.89</ele>
        <time>2020-08-06T07:08:47Z</time>
      </trkpt>
      <trkpt lat="47.90894" lon="-3.14157">
        <ele>144.04</ele>
        <time>2020-08-06T07:08:48Z</time>
      </trkpt>
      <trkpt lat="47.90895" lon="-3.14157">
        <ele>144.18</ele>
        <time>2020-08-06T07:08:49Z</time>
      </trkpt>
      <trkpt lat="47.90897" lon="-3.14158">
        <ele>144.43</ele>
        <time>2020-08-06T07:08:51Z</time>
      </trkpt>
      <trkpt lat="47.90898" lon="-3.14158">
        <ele>144.56</ele>
        <time>2020-08-06T07:08:52Z</time>
      </trkpt>
      <trkpt lat="47.90899" lon="-3.14158">
        <ele>144.67</ele>
        <time>2020-08-06T07:08:53Z</time>
      </trkpt>
      <trkpt lat="47.90901" lon="-3.14158">
        <ele>144.95</ele>
        <time>2020-08-06T07:08:54Z</time>
      </trkpt>
      <trkpt lat="47.90903" lon="-3.14158">
        <ele>145.12</ele>
        <time>2020-08-06T07:08:55Z</time>
      </trkpt>
      <trkpt lat="47.90906" lon="-3.14158">
        <ele>145.41</ele>
        <time>2020-08-06T07:08:57Z</time>
      </trkpt>
      <trkpt lat="47.90907" lon="-3.14159">
        <ele>145.54</ele>
        <time>2020-08-06T07:08:58Z</time>
      </trkpt>
      <trkpt lat="47.90911" lon="-3.14158">
        <ele>145.82</ele>
        <time>2020-08-06T07:09:01Z</time>
      </trkpt>
      <trkpt lat="47.90921" lon="-3.14157">
        <ele>146.67</ele>
        <time>2020-08-06T07:09:08Z</time>
      </trkpt>
      <trkpt lat="47.9094" lon="-3.14158">
        <ele>147.94</ele>
        <time>2020-08-06T07:09:23Z</time>
      </trkpt>
      <trkpt lat="47.90963" lon="-3.14163">
        <ele>149.09</ele>
        <time>2020-08-06T07:09:37Z</time>
      </trkpt>
      <trkpt lat="47.9098" lon="-3.14165">
        <ele>149.8</ele>
        <time>2020-08-06T07:09:49Z</time>
      </trkpt>
      <trkpt lat="47.91012" lon="-3.14161">
        <ele>150.41</ele>
        <time>2020-08-06T07:10:06Z</time>
      </trkpt>
      <trkpt lat="47.9104" lon="-3.14152">
        <ele>150.76</ele>
        <time>2020-08-06T07:10:25Z</time>
      </trkpt>
      <trkpt lat="47.91063" lon="-3.14145">
        <ele>151.04</ele>
        <time>2020-08-06T07:10:37Z</time>
      </trkpt>
      <trkpt lat="47.91091" lon="-3.14135">
        <ele>151.44</ele>
        <time>2020-08-06T07:10:49Z</time>
      </trkpt>
      <trkpt lat="47.91108" lon="-3.14128">
        <ele>152.15</ele>
        <time>2020-08-06T07:11:01Z</time>
      </trkpt>
      <trkpt lat="47.91128" lon="-3.14121">
        <ele>152.86</ele>
        <time>2020-08-06T07:11:14Z</time>
      </trkpt>
      <trkpt lat="47.91149" lon="-3.14116">
        <ele>152.86</ele>
        <time>2020-08-06T07:11:27Z</time>
      </trkpt>
      <trkpt lat="47.91167" lon="-3.14111">
        <ele>152.71</ele>
        <time>2020-08-06T07:11:39Z</time>
      </trkpt>
      <trkpt lat="47.91186" lon="-3.14103">
        <ele>152.52</ele>
        <time>2020-08-06T07:11:52Z</time>
      </trkpt>
      <trkpt lat="47.91208" lon="-3.14098">
        <ele>152.51</ele>
        <time>2020-08-06T07:12:08Z</time>
      </trkpt>
      <trkpt lat="47.91219" lon="-3.14102">
        <ele>152.51</ele>
        <time>2020-08-06T07:12:16Z</time>
      </trkpt>
      <trkpt lat="47.9122" lon="-3.14103">
        <ele>152.53</ele>
        <time>2020-08-06T07:12:17Z</time>
      </trkpt>
      <trkpt lat="47.91222" lon="-3.14108">
        <ele>152.66</ele>
        <time>2020-08-06T07:12:23Z</time>
      </trkpt>
      <trkpt lat="47.91223" lon="-3.14143">
        <ele>157.34</ele>
        <time>2020-08-06T07:12:49Z</time>
      </trkpt>
      <trkpt lat="47.91221" lon="-3.14147">
        <ele>153.02</ele>
        <time>2020-08-06T07:12:50Z</time>
      </trkpt>
      <trkpt lat="47.9122" lon="-3.1418">
        <ele>152.32</ele>
        <time>2020-08-06T07:13:03Z</time>
      </trkpt>
      <trkpt lat="47.91224" lon="-3.14191">
        <ele>152.36</ele>
        <time>2020-08-06T07:13:08Z</time>
      </trkpt>
      <trkpt lat="47.91224" lon="-3.14197">
        <ele>152.39</ele>
        <time>2020-08-06T07:13:11Z</time>
      </trkpt>
      <trkpt lat="47.9123" lon="-3.14222">
        <ele>152.64</ele>
        <time>2020-08-06T07:13:26Z</time>
      </trkpt>
      <trkpt lat="47.9123" lon="-3.14325">
        <ele>153.33</ele>
        <time>2020-08-06T07:14:00Z</time>
      </trkpt>
      <trkpt lat="47.91231" lon="-3.14318">
        <ele>152.84</ele>
        <time>2020-08-06T07:14:01Z</time>
      </trkpt>
      <trkpt lat="47.91232" lon="-3.14336">
        <ele>153.1</ele>
        <time>2020-08-06T07:14:19Z</time>
      </trkpt>
      <trkpt lat="47.91245" lon="-3.1438">
        <ele>153.5</ele>
        <time>2020-08-06T07:14:41Z</time>
      </trkpt>
      <trkpt lat="47.9125" lon="-3.14382">
        <ele>153.92</ele>
        <time>2020-08-06T07:14:45Z</time>
      </trkpt>
      <trkpt lat="47.91271" lon="-3.14386">
        <ele>155.3</ele>
        <time>2020-08-06T07:15:02Z</time>
      </trkpt>
      <trkpt lat="47.91297" lon="-3.14404">
        <ele>156.1</ele>
        <time>2020-08-06T07:15:18Z</time>
      </trkpt>
      <trkpt lat="47.91313" lon="-3.14423">
        <ele>156.48</ele>
        <time>2020-08-06T07:15:33Z</time>
      </trkpt>
      <trkpt lat="47.91332" lon="-3.14439">
        <ele>156.57</ele>
        <time>2020-08-06T07:15:47Z</time>
      </trkpt>
      <trkpt lat="47.91345" lon="-3.14449">
        <ele>156.07</ele>
        <time>2020-08-06T07:15:58Z</time>
      </trkpt>
      <trkpt lat="47.91362" lon="-3.14467">
        <ele>155.1</ele>
        <time>2020-08-06T07:16:13Z</time>
      </trkpt>
      <trkpt lat="47.91381" lon="-3.14488">
        <ele>154.31</ele>
        <time>2020-08-06T07:16:28Z</time>
      </trkpt>
      <trkpt lat="47.914" lon="-3.14507">
        <ele>153.62</ele>
        <time>2020-08-06T07:16:43Z</time>
      </trkpt>
      <trkpt lat="47.91418" lon="-3.14523">
        <ele>153.04</ele>
        <time>2020-08-06T07:17:00Z</time>
      </trkpt>
      <trkpt lat="47.91428" lon="-3.14538">
        <ele>152.6</ele>
        <time>2020-08-06T07:17:25Z</time>
      </trkpt>
      <trkpt lat="47.91425" lon="-3.1454">
        <ele>152.07</ele>
        <time>2020-08-06T07:17:43Z</time>
      </trkpt>
      <trkpt lat="47.91422" lon="-3.14544">
        <ele>151.79</ele>
        <time>2020-08-06T07:17:57Z</time>
      </trkpt>
      <trkpt lat="47.91425" lon="-3.1457">
        <ele>150.68</ele>
        <time>2020-08-06T07:18:16Z</time>
      </trkpt>
      <trkpt lat="47.91426" lon="-3.14583">
        <ele>150.08</ele>
        <time>2020-08-06T07:18:23Z</time>
      </trkpt>
      <trkpt lat="47.91427" lon="-3.14588">
        <ele>149.94</ele>
        <time>2020-08-06T07:18:25Z</time>
      </trkpt>
      <trkpt lat="47.91428" lon="-3.14597">
        <ele>149.64</ele>
        <time>2020-08-06T07:18:29Z</time>
      </trkpt>
      <trkpt lat="47.91427" lon="-3.14609">
        <ele>149.48</ele>
        <time>2020-08-06T07:18:33Z</time>
      </trkpt>
      <trkpt lat="47.91425" lon="-3.14622">
        <ele>148.99</ele>
        <time>2020-08-06T07:18:40Z</time>
      </trkpt>
      <trkpt lat="47.91424" lon="-3.1465">
        <ele>148.05</ele>
        <time>2020-08-06T07:18:52Z</time>
      </trkpt>
      <trkpt lat="47.91425" lon="-3.14655">
        <ele>147.97</ele>
        <time>2020-08-06T07:18:54Z</time>
      </trkpt>
      <trkpt lat="47.91421" lon="-3.1468">
        <ele>146.84</ele>
        <time>2020-08-06T07:19:08Z</time>
      </trkpt>
      <trkpt lat="47.91422" lon="-3.14708">
        <ele>145.21</ele>
        <time>2020-08-06T07:19:26Z</time>
      </trkpt>
      <trkpt lat="47.91418" lon="-3.14742">
        <ele>143.24</ele>
        <time>2020-08-06T07:19:45Z</time>
      </trkpt>
      <trkpt lat="47.91414" lon="-3.14786">
        <ele>140.53</ele>
        <time>2020-08-06T07:20:05Z</time>
      </trkpt>
      <trkpt lat="47.91409" lon="-3.14814">
        <ele>139</ele>
        <time>2020-08-06T07:20:20Z</time>
      </trkpt>
      <trkpt lat="47.91408" lon="-3.14818">
        <ele>138.95</ele>
        <time>2020-08-06T07:20:21Z</time>
      </trkpt>
      <trkpt lat="47.91411" lon="-3.14831">
        <ele>138.59</ele>
        <time>2020-08-06T07:20:26Z</time>
      </trkpt>
      <trkpt lat="47.91427" lon="-3.14833">
        <ele>138.81</ele>
        <time>2020-08-06T07:20:41Z</time>
      </trkpt>
      <trkpt lat="47.91445" lon="-3.14836">
        <ele>139.43</ele>
        <time>2020-08-06T07:20:57Z</time>
      </trkpt>
      <trkpt lat="47.91462" lon="-3.14841">
        <ele>139.07</ele>
        <time>2020-08-06T07:21:09Z</time>
      </trkpt>
      <trkpt lat="47.91463" lon="-3.14841">
        <ele>139.05</ele>
        <time>2020-08-06T07:21:10Z</time>
      </trkpt>
      <trkpt lat="47.91486" lon="-3.14836">
        <ele>139.04</ele>
        <time>2020-08-06T07:21:27Z</time>
      </trkpt>
      <trkpt lat="47.9149" lon="-3.14837">
        <ele>139.05</ele>
        <time>2020-08-06T07:21:29Z</time>
      </trkpt>
      <trkpt lat="47.91511" lon="-3.14831">
        <ele>138.99</ele>
        <time>2020-08-06T07:21:43Z</time>
      </trkpt>
      <trkpt lat="47.91532" lon="-3.14827">
        <ele>139.26</ele>
        <time>2020-08-06T07:21:57Z</time>
      </trkpt>
      <trkpt lat="47.91568" lon="-3.14822">
        <ele>139.4</ele>
        <time>2020-08-06T07:22:22Z</time>
      </trkpt>
      <trkpt lat="47.91586" lon="-3.14822">
        <ele>139.93</ele>
        <time>2020-08-06T07:22:34Z</time>
      </trkpt>
      <trkpt lat="47.91608" lon="-3.14822">
        <ele>140.6</ele>
        <time>2020-08-06T07:22:46Z</time>
      </trkpt>
      <trkpt lat="47.91628" lon="-3.14822">
        <ele>141.34</ele>
        <time>2020-08-06T07:23:01Z</time>
      </trkpt>
      <trkpt lat="47.91644" lon="-3.14818">
        <ele>142.3</ele>
        <time>2020-08-06T07:23:13Z</time>
      </trkpt>
      <trkpt lat="47.91667" lon="-3.14828">
        <ele>143.69</ele>
        <time>2020-08-06T07:23:28Z</time>
      </trkpt>
      <trkpt lat="47.91688" lon="-3.14835">
        <ele>143.83</ele>
        <time>2020-08-06T07:23:42Z</time>
      </trkpt>
      <trkpt lat="47.91708" lon="-3.14841">
        <ele>143.15</ele>
        <time>2020-08-06T07:23:55Z</time>
      </trkpt>
      <trkpt lat="47.91733" lon="-3.14848">
        <ele>142.97</ele>
        <time>2020-08-06T07:24:11Z</time>
      </trkpt>
      <trkpt lat="47.91746" lon="-3.1485">
        <ele>142.57</ele>
        <time>2020-08-06T07:24:21Z</time>
      </trkpt>
      <trkpt lat="47.91762" lon="-3.14856">
        <ele>142.48</ele>
        <time>2020-08-06T07:24:33Z</time>
      </trkpt>
      <trkpt lat="47.91782" lon="-3.14861">
        <ele>142.48</ele>
        <time>2020-08-06T07:24:49Z</time>
      </trkpt>
      <trkpt lat="47.91789" lon="-3.14863">
        <ele>142.48</ele>
        <time>2020-08-06T07:24:56Z</time>
      </trkpt>
      <trkpt lat="47.91791" lon="-3.14864">
        <ele>142.48</ele>
        <time>2020-08-06T07:24:58Z</time>
      </trkpt>
      <trkpt lat="47.91794" lon="-3.14865">
        <ele>142.39</ele>
        <time>2020-08-06T07:25:00Z</time>
      </trkpt>
      <trkpt lat="47.91802" lon="-3.14872">
        <ele>141.88</ele>
        <time>2020-08-06T07:25:08Z</time>
      </trkpt>
      <trkpt lat="47.9182" lon="-3.14879">
        <ele>141.42</ele>
        <time>2020-08-06T07:25:21Z</time>
      </trkpt>
      <trkpt lat="47.91849" lon="-3.14888">
        <ele>140.54</ele>
        <time>2020-08-06T07:25:40Z</time>
      </trkpt>
      <trkpt lat="47.91878" lon="-3.14885">
        <ele>140.15</ele>
        <time>2020-08-06T07:25:54Z</time>
      </trkpt>
      <trkpt lat="47.91891" lon="-3.14887">
        <ele>139.48</ele>
        <time>2020-08-06T07:26:02Z</time>
      </trkpt>
      <trkpt lat="47.91906" lon="-3.14894">
        <ele>138.61</ele>
        <time>2020-08-06T07:26:13Z</time>
      </trkpt>
      <trkpt lat="47.91913" lon="-3.14897">
        <ele>138.38</ele>
        <time>2020-08-06T07:26:20Z</time>
      </trkpt>
      <trkpt lat="47.91918" lon="-3.14903">
        <ele>138.29</ele>
        <time>2020-08-06T07:26:26Z</time>
      </trkpt>
      <trkpt lat="47.91922" lon="-3.14904">
        <ele>138.22</ele>
        <time>2020-08-06T07:26:29Z</time>
      </trkpt>
      <trkpt lat="47.91942" lon="-3.14911">
        <ele>137.32</ele>
        <time>2020-08-06T07:26:46Z</time>
      </trkpt>
      <trkpt lat="47.91964" lon="-3.14922">
        <ele>136.35</ele>
        <time>2020-08-06T07:27:02Z</time>
      </trkpt>
      <trkpt lat="47.91985" lon="-3.14929">
        <ele>135.23</ele>
        <time>2020-08-06T07:27:16Z</time>
      </trkpt>
      <trkpt lat="47.91993" lon="-3.14932">
        <ele>134.84</ele>
        <time>2020-08-06T07:27:20Z</time>
      </trkpt>
      <trkpt lat="47.91996" lon="-3.14933">
        <ele>134.6</ele>
        <time>2020-08-06T07:27:22Z</time>
      </trkpt>
      <trkpt lat="47.92013" lon="-3.14947">
        <ele>132.01</ele>
        <time>2020-08-06T07:27:35Z</time>
      </trkpt>
      <trkpt lat="47.92041" lon="-3.14963">
        <ele>129.9</ele>
        <time>2020-08-06T07:27:53Z</time>
      </trkpt>
      <trkpt lat="47.92059" lon="-3.14972">
        <ele>129.31</ele>
        <time>2020-08-06T07:28:05Z</time>
      </trkpt>
      <trkpt lat="47.92063" lon="-3.14974">
        <ele>129.23</ele>
        <time>2020-08-06T07:28:08Z</time>
      </trkpt>
      <trkpt lat="47.92067" lon="-3.14976">
        <ele>129.18</ele>
        <time>2020-08-06T07:28:11Z</time>
      </trkpt>
      <trkpt lat="47.92081" lon="-3.14984">
        <ele>128.83</ele>
        <time>2020-08-06T07:28:21Z</time>
      </trkpt>
      <trkpt lat="47.92107" lon="-3.14999">
        <ele>129.25</ele>
        <time>2020-08-06T07:28:35Z</time>
      </trkpt>
      <trkpt lat="47.92114" lon="-3.14999">
        <ele>129.37</ele>
        <time>2020-08-06T07:28:39Z</time>
      </trkpt>
      <trkpt lat="47.92136" lon="-3.14998">
        <ele>129.93</ele>
        <time>2020-08-06T07:28:52Z</time>
      </trkpt>
      <trkpt lat="47.92138" lon="-3.14998">
        <ele>130.05</ele>
        <time>2020-08-06T07:28:53Z</time>
      </trkpt>
      <trkpt lat="47.92146" lon="-3.15">
        <ele>130.42</ele>
        <time>2020-08-06T07:28:58Z</time>
      </trkpt>
      <trkpt lat="47.92171" lon="-3.1501">
        <ele>131.04</ele>
        <time>2020-08-06T07:29:14Z</time>
      </trkpt>
      <trkpt lat="47.92188" lon="-3.15018">
        <ele>131.47</ele>
        <time>2020-08-06T07:29:26Z</time>
      </trkpt>
      <trkpt lat="47.92205" lon="-3.15024">
        <ele>132.61</ele>
        <time>2020-08-06T07:29:38Z</time>
      </trkpt>
      <trkpt lat="47.92228" lon="-3.1503">
        <ele>132.67</ele>
        <time>2020-08-06T07:29:52Z</time>
      </trkpt>
      <trkpt lat="47.9225" lon="-3.15033">
        <ele>133.24</ele>
        <time>2020-08-06T07:30:05Z</time>
      </trkpt>
      <trkpt lat="47.92269" lon="-3.15032">
        <ele>133.53</ele>
        <time>2020-08-06T07:30:19Z</time>
      </trkpt>
      <trkpt lat="47.92295" lon="-3.15031">
        <ele>133.37</ele>
        <time>2020-08-06T07:30:33Z</time>
      </trkpt>
      <trkpt lat="47.9233" lon="-3.15033">
        <ele>132.94</ele>
        <time>2020-08-06T07:30:53Z</time>
      </trkpt>
      <trkpt lat="47.92358" lon="-3.15036">
        <ele>132.42</ele>
        <time>2020-08-06T07:31:11Z</time>
      </trkpt>
      <trkpt lat="47.92386" lon="-3.1503">
        <ele>132.06</ele>
        <time>2020-08-06T07:31:29Z</time>
      </trkpt>
      <trkpt lat="47.92411" lon="-3.15011">
        <ele>130.95</ele>
        <time>2020-08-06T07:31:48Z</time>
      </trkpt>
      <trkpt lat="47.92429" lon="-3.14994">
        <ele>130.12</ele>
        <time>2020-08-06T07:32:05Z</time>
      </trkpt>
      <trkpt lat="47.92431" lon="-3.14994">
        <ele>130.08</ele>
        <time>2020-08-06T07:32:07Z</time>
      </trkpt>
      <trkpt lat="47.92446" lon="-3.14987">
        <ele>129.78</ele>
        <time>2020-08-06T07:32:21Z</time>
      </trkpt>
      <trkpt lat="47.92446" lon="-3.14986">
        <ele>129.71</ele>
        <time>2020-08-06T07:32:22Z</time>
      </trkpt>
      <trkpt lat="47.9245" lon="-3.14981">
        <ele>127.94</ele>
        <time>2020-08-06T07:32:27Z</time>
      </trkpt>
      <trkpt lat="47.92458" lon="-3.14976">
        <ele>129.08</ele>
        <time>2020-08-06T07:32:33Z</time>
      </trkpt>
      <trkpt lat="47.92472" lon="-3.14986">
        <ele>129.35</ele>
        <time>2020-08-06T07:32:43Z</time>
      </trkpt>
      <trkpt lat="47.92486" lon="-3.15009">
        <ele>129.77</ele>
        <time>2020-08-06T07:32:59Z</time>
      </trkpt>
      <trkpt lat="47.92495" lon="-3.15024">
        <ele>129.81</ele>
        <time>2020-08-06T07:33:09Z</time>
      </trkpt>
      <trkpt lat="47.92505" lon="-3.15046">
        <ele>129.26</ele>
        <time>2020-08-06T07:33:24Z</time>
      </trkpt>
      <trkpt lat="47.92512" lon="-3.15071">
        <ele>128.28</ele>
        <time>2020-08-06T07:33:39Z</time>
      </trkpt>
      <trkpt lat="47.92519" lon="-3.15094">
        <ele>127.52</ele>
        <time>2020-08-06T07:33:51Z</time>
      </trkpt>
      <trkpt lat="47.92521" lon="-3.15097">
        <ele>127.41</ele>
        <time>2020-08-06T07:33:53Z</time>
      </trkpt>
      <trkpt lat="47.92534" lon="-3.15121">
        <ele>127.65</ele>
        <time>2020-08-06T07:34:09Z</time>
      </trkpt>
      <trkpt lat="47.92556" lon="-3.15123">
        <ele>127.9</ele>
        <time>2020-08-06T07:34:21Z</time>
      </trkpt>
      <trkpt lat="47.92571" lon="-3.1514">
        <ele>127.6</ele>
        <time>2020-08-06T07:34:34Z</time>
      </trkpt>
      <trkpt lat="47.92576" lon="-3.1514">
        <ele>127.56</ele>
        <time>2020-08-06T07:34:38Z</time>
      </trkpt>
      <trkpt lat="47.9258" lon="-3.15142">
        <ele>127.53</ele>
        <time>2020-08-06T07:34:40Z</time>
      </trkpt>
      <trkpt lat="47.92597" lon="-3.15158">
        <ele>127.14</ele>
        <time>2020-08-06T07:34:53Z</time>
      </trkpt>
      <trkpt lat="47.92609" lon="-3.15171">
        <ele>126.23</ele>
        <time>2020-08-06T07:35:08Z</time>
      </trkpt>
      <trkpt lat="47.92625" lon="-3.15188">
        <ele>125.27</ele>
        <time>2020-08-06T07:35:26Z</time>
      </trkpt>
      <trkpt lat="47.92628" lon="-3.15189">
        <ele>125.16</ele>
        <time>2020-08-06T07:35:28Z</time>
      </trkpt>
      <trkpt lat="47.92644" lon="-3.15188">
        <ele>124.54</ele>
        <time>2020-08-06T07:35:40Z</time>
      </trkpt>
      <trkpt lat="47.92668" lon="-3.15173">
        <ele>124.94</ele>
        <time>2020-08-06T07:35:56Z</time>
      </trkpt>
      <trkpt lat="47.92686" lon="-3.15163">
        <ele>125.52</ele>
        <time>2020-08-06T07:36:11Z</time>
      </trkpt>
      <trkpt lat="47.9269" lon="-3.15163">
        <ele>125.6</ele>
        <time>2020-08-06T07:36:14Z</time>
      </trkpt>
      <trkpt lat="47.92706" lon="-3.15158">
        <ele>126.05</ele>
        <time>2020-08-06T07:36:24Z</time>
      </trkpt>
      <trkpt lat="47.92723" lon="-3.15158">
        <ele>126.37</ele>
        <time>2020-08-06T07:36:34Z</time>
      </trkpt>
      <trkpt lat="47.92733" lon="-3.15158">
        <ele>126.76</ele>
        <time>2020-08-06T07:36:41Z</time>
      </trkpt>
      <trkpt lat="47.92757" lon="-3.15159">
        <ele>127.99</ele>
        <time>2020-08-06T07:36:56Z</time>
      </trkpt>
      <trkpt lat="47.92763" lon="-3.15161">
        <ele>128.19</ele>
        <time>2020-08-06T07:36:59Z</time>
      </trkpt>
      <trkpt lat="47.92786" lon="-3.15163">
        <ele>128.53</ele>
        <time>2020-08-06T07:37:14Z</time>
      </trkpt>
      <trkpt lat="47.92793" lon="-3.15163">
        <ele>128.58</ele>
        <time>2020-08-06T07:37:19Z</time>
      </trkpt>
      <trkpt lat="47.92795" lon="-3.1519">
        <ele>129.33</ele>
        <time>2020-08-06T07:37:33Z</time>
      </trkpt>
      <trkpt lat="47.92794" lon="-3.15193">
        <ele>129.38</ele>
        <time>2020-08-06T07:37:35Z</time>
      </trkpt>
      <trkpt lat="47.92794" lon="-3.15202">
        <ele>129.74</ele>
        <time>2020-08-06T07:37:41Z</time>
      </trkpt>
      <trkpt lat="47.92788" lon="-3.1522">
        <ele>129.65</ele>
        <time>2020-08-06T07:37:54Z</time>
      </trkpt>
      <trkpt lat="47.92773" lon="-3.15264">
        <ele>129.88</ele>
        <time>2020-08-06T07:38:15Z</time>
      </trkpt>
      <trkpt lat="47.9277" lon="-3.15271">
        <ele>129.75</ele>
        <time>2020-08-06T07:38:20Z</time>
      </trkpt>
      <trkpt lat="47.9275" lon="-3.15318">
        <ele>130.05</ele>
        <time>2020-08-06T07:38:33Z</time>
      </trkpt>
      <trkpt lat="47.92731" lon="-3.15349">
        <ele>129.84</ele>
        <time>2020-08-06T07:38:43Z</time>
      </trkpt>
      <trkpt lat="47.92701" lon="-3.15393">
        <ele>129.85</ele>
        <time>2020-08-06T07:38:55Z</time>
      </trkpt>
      <trkpt lat="47.92691" lon="-3.15408">
        <ele>129.91</ele>
        <time>2020-08-06T07:39:06Z</time>
      </trkpt>
      <trkpt lat="47.92691" lon="-3.1541">
        <ele>129.85</ele>
        <time>2020-08-06T07:39:08Z</time>
      </trkpt>
      <trkpt lat="47.92684" lon="-3.15426">
        <ele>129.48</ele>
        <time>2020-08-06T07:39:23Z</time>
      </trkpt>
      <trkpt lat="47.92683" lon="-3.15429">
        <ele>129.48</ele>
        <time>2020-08-06T07:39:24Z</time>
      </trkpt>
      <trkpt lat="47.92665" lon="-3.15454">
        <ele>129.43</ele>
        <time>2020-08-06T07:39:38Z</time>
      </trkpt>
      <trkpt lat="47.92647" lon="-3.15476">
        <ele>129.32</ele>
        <time>2020-08-06T07:39:54Z</time>
      </trkpt>
      <trkpt lat="47.92646" lon="-3.15475">
        <ele>129.29</ele>
        <time>2020-08-06T07:39:55Z</time>
      </trkpt>
      <trkpt lat="47.92646" lon="-3.15473">
        <ele>129.29</ele>
        <time>2020-08-06T07:39:56Z</time>
      </trkpt>
      <trkpt lat="47.92644" lon="-3.15471">
        <ele>129.29</ele>
        <time>2020-08-06T07:39:58Z</time>
      </trkpt>
      <trkpt lat="47.92633" lon="-3.15457">
        <ele>129.35</ele>
        <time>2020-08-06T07:40:08Z</time>
      </trkpt>
      <trkpt lat="47.92613" lon="-3.15443">
        <ele>129.52</ele>
        <time>2020-08-06T07:40:23Z</time>
      </trkpt>
      <trkpt lat="47.92609" lon="-3.15438">
        <ele>129.37</ele>
        <time>2020-08-06T07:40:31Z</time>
      </trkpt>
      <trkpt lat="47.92484" lon="-3.15391">
        <ele>132.01</ele>
        <time>2020-08-06T07:44:07Z</time>
      </trkpt>
      <trkpt lat="47.92476" lon="-3.15388">
        <ele>132.17</ele>
        <time>2020-08-06T07:44:13Z</time>
      </trkpt>
      <trkpt lat="47.92454" lon="-3.1539">
        <ele>132.47</ele>
        <time>2020-08-06T07:44:29Z</time>
      </trkpt>
      <trkpt lat="47.9243" lon="-3.15397">
        <ele>133.07</ele>
        <time>2020-08-06T07:44:47Z</time>
      </trkpt>
      <trkpt lat="47.92409" lon="-3.15404">
        <ele>133.12</ele>
        <time>2020-08-06T07:45:01Z</time>
      </trkpt>
      <trkpt lat="47.92398" lon="-3.15406">
        <ele>132.93</ele>
        <time>2020-08-06T07:45:08Z</time>
      </trkpt>
      <trkpt lat="47.92388" lon="-3.15406">
        <ele>132.93</ele>
        <time>2020-08-06T07:45:14Z</time>
      </trkpt>
      <trkpt lat="47.92374" lon="-3.15411">
        <ele>132.98</ele>
        <time>2020-08-06T07:45:20Z</time>
      </trkpt>
      <trkpt lat="47.9237" lon="-3.15416">
        <ele>132.99</ele>
        <time>2020-08-06T07:45:24Z</time>
      </trkpt>
      <trkpt lat="47.92372" lon="-3.15459">
        <ele>132.76</ele>
        <time>2020-08-06T07:45:41Z</time>
      </trkpt>
      <trkpt lat="47.92375" lon="-3.15499">
        <ele>132.53</ele>
        <time>2020-08-06T07:45:56Z</time>
      </trkpt>
      <trkpt lat="47.92374" lon="-3.15502">
        <ele>132.49</ele>
        <time>2020-08-06T07:46:01Z</time>
      </trkpt>
      <trkpt lat="47.92376" lon="-3.15514">
        <ele>132.2</ele>
        <time>2020-08-06T07:46:26Z</time>
      </trkpt>
      <trkpt lat="47.92379" lon="-3.15529">
        <ele>132.15</ele>
        <time>2020-08-06T07:46:38Z</time>
      </trkpt>
      <trkpt lat="47.92382" lon="-3.15538">
        <ele>132.06</ele>
        <time>2020-08-06T07:47:00Z</time>
      </trkpt>
      <trkpt lat="47.92387" lon="-3.15572">
        <ele>132.02</ele>
        <time>2020-08-06T07:47:15Z</time>
      </trkpt>
      <trkpt lat="47.92392" lon="-3.15612">
        <ele>131.8</ele>
        <time>2020-08-06T07:47:32Z</time>
      </trkpt>
      <trkpt lat="47.92395" lon="-3.1565">
        <ele>131.28</ele>
        <time>2020-08-06T07:47:49Z</time>
      </trkpt>
      <trkpt lat="47.92392" lon="-3.15676">
        <ele>130.85</ele>
        <time>2020-08-06T07:48:02Z</time>
      </trkpt>
      <trkpt lat="47.92378" lon="-3.15695">
        <ele>130.54</ele>
        <time>2020-08-06T07:48:14Z</time>
      </trkpt>
      <trkpt lat="47.92359" lon="-3.1572">
        <ele>130.34</ele>
        <time>2020-08-06T07:48:28Z</time>
      </trkpt>
      <trkpt lat="47.92342" lon="-3.15733">
        <ele>130.18</ele>
        <time>2020-08-06T07:48:42Z</time>
      </trkpt>
      <trkpt lat="47.92329" lon="-3.15748">
        <ele>129.8</ele>
        <time>2020-08-06T07:48:55Z</time>
      </trkpt>
      <trkpt lat="47.92322" lon="-3.15751">
        <ele>129.67</ele>
        <time>2020-08-06T07:49:03Z</time>
      </trkpt>
      <trkpt lat="47.92321" lon="-3.15753">
        <ele>129.5</ele>
        <time>2020-08-06T07:49:04Z</time>
      </trkpt>
      <trkpt lat="47.9232" lon="-3.15755">
        <ele>129.5</ele>
        <time>2020-08-06T07:49:05Z</time>
      </trkpt>
      <trkpt lat="47.92319" lon="-3.15756">
        <ele>129.35</ele>
        <time>2020-08-06T07:49:06Z</time>
      </trkpt>
      <trkpt lat="47.92317" lon="-3.15757">
        <ele>129.29</ele>
        <time>2020-08-06T07:49:07Z</time>
      </trkpt>
      <trkpt lat="47.92316" lon="-3.15758">
        <ele>129.25</ele>
        <time>2020-08-06T07:49:08Z</time>
      </trkpt>
      <trkpt lat="47.92314" lon="-3.15759">
        <ele>129.21</ele>
        <time>2020-08-06T07:49:09Z</time>
      </trkpt>
      <trkpt lat="47.923" lon="-3.15779">
        <ele>128.41</ele>
        <time>2020-08-06T07:49:22Z</time>
      </trkpt>
      <trkpt lat="47.92289" lon="-3.15795">
        <ele>127.89</ele>
        <time>2020-08-06T07:49:33Z</time>
      </trkpt>
      <trkpt lat="47.92267" lon="-3.15828">
        <ele>127.14</ele>
        <time>2020-08-06T07:49:48Z</time>
      </trkpt>
      <trkpt lat="47.92259" lon="-3.15852">
        <ele>126.78</ele>
        <time>2020-08-06T07:49:58Z</time>
      </trkpt>
      <trkpt lat="47.92254" lon="-3.15876">
        <ele>126.4</ele>
        <time>2020-08-06T07:50:09Z</time>
      </trkpt>
      <trkpt lat="47.92244" lon="-3.15899">
        <ele>125.97</ele>
        <time>2020-08-06T07:50:22Z</time>
      </trkpt>
      <trkpt lat="47.92224" lon="-3.1593">
        <ele>126.06</ele>
        <time>2020-08-06T07:50:34Z</time>
      </trkpt>
      <trkpt lat="47.92201" lon="-3.15965">
        <ele>125.56</ele>
        <time>2020-08-06T07:50:52Z</time>
      </trkpt>
      <trkpt lat="47.92183" lon="-3.15992">
        <ele>125.15</ele>
        <time>2020-08-06T07:51:07Z</time>
      </trkpt>
      <trkpt lat="47.92176" lon="-3.1599">
        <ele>125.14</ele>
        <time>2020-08-06T07:51:12Z</time>
      </trkpt>
      <trkpt lat="47.92164" lon="-3.15982">
        <ele>125.46</ele>
        <time>2020-08-06T07:51:20Z</time>
      </trkpt>
      <trkpt lat="47.92145" lon="-3.15975">
        <ele>125.9</ele>
        <time>2020-08-06T07:51:33Z</time>
      </trkpt>
      <trkpt lat="47.9212" lon="-3.1596">
        <ele>126.88</ele>
        <time>2020-08-06T07:51:50Z</time>
      </trkpt>
      <trkpt lat="47.92098" lon="-3.15946">
        <ele>128.06</ele>
        <time>2020-08-06T07:52:05Z</time>
      </trkpt>
      <trkpt lat="47.92078" lon="-3.15932">
        <ele>129.11</ele>
        <time>2020-08-06T07:52:18Z</time>
      </trkpt>
      <trkpt lat="47.92055" lon="-3.1592">
        <ele>130.25</ele>
        <time>2020-08-06T07:52:34Z</time>
      </trkpt>
      <trkpt lat="47.92051" lon="-3.15917">
        <ele>130.34</ele>
        <time>2020-08-06T07:52:43Z</time>
      </trkpt>
      <trkpt lat="47.92042" lon="-3.15914">
        <ele>130.32</ele>
        <time>2020-08-06T07:52:56Z</time>
      </trkpt>
      <trkpt lat="47.92038" lon="-3.15918">
        <ele>130.36</ele>
        <time>2020-08-06T07:53:00Z</time>
      </trkpt>
      <trkpt lat="47.92037" lon="-3.1592">
        <ele>130.62</ele>
        <time>2020-08-06T07:53:06Z</time>
      </trkpt>
      <trkpt lat="47.92031" lon="-3.15925">
        <ele>130.69</ele>
        <time>2020-08-06T07:53:16Z</time>
      </trkpt>
      <trkpt lat="47.92014" lon="-3.1595">
        <ele>130.53</ele>
        <time>2020-08-06T07:53:30Z</time>
      </trkpt>
      <trkpt lat="47.91995" lon="-3.15979">
        <ele>130.29</ele>
        <time>2020-08-06T07:53:46Z</time>
      </trkpt>
      <trkpt lat="47.91975" lon="-3.16013">
        <ele>130.07</ele>
        <time>2020-08-06T07:54:01Z</time>
      </trkpt>
      <trkpt lat="47.9196" lon="-3.16043">
        <ele>129.67</ele>
        <time>2020-08-06T07:54:15Z</time>
      </trkpt>
      <trkpt lat="47.91944" lon="-3.16066">
        <ele>129.55</ele>
        <time>2020-08-06T07:54:29Z</time>
      </trkpt>
      <trkpt lat="47.91928" lon="-3.16085">
        <ele>129.97</ele>
        <time>2020-08-06T07:54:46Z</time>
      </trkpt>
      <trkpt lat="47.91925" lon="-3.16087">
        <ele>130.19</ele>
        <time>2020-08-06T07:54:52Z</time>
      </trkpt>
      <trkpt lat="47.91909" lon="-3.16115">
        <ele>130.05</ele>
        <time>2020-08-06T07:55:44Z</time>
      </trkpt>
      <trkpt lat="47.91907" lon="-3.16117">
        <ele>130.05</ele>
        <time>2020-08-06T07:55:45Z</time>
      </trkpt>
      <trkpt lat="47.91903" lon="-3.16123">
        <ele>130.04</ele>
        <time>2020-08-06T07:55:48Z</time>
      </trkpt>
      <trkpt lat="47.91901" lon="-3.16126">
        <ele>130.02</ele>
        <time>2020-08-06T07:55:49Z</time>
      </trkpt>
      <trkpt lat="47.919" lon="-3.16128">
        <ele>130.01</ele>
        <time>2020-08-06T07:55:50Z</time>
      </trkpt>
      <trkpt lat="47.91897" lon="-3.1613">
        <ele>129.92</ele>
        <time>2020-08-06T07:55:52Z</time>
      </trkpt>
      <trkpt lat="47.91896" lon="-3.16131">
        <ele>129.88</ele>
        <time>2020-08-06T07:55:53Z</time>
      </trkpt>
      <trkpt lat="47.91883" lon="-3.16149">
        <ele>129.79</ele>
        <time>2020-08-06T07:56:07Z</time>
      </trkpt>
      <trkpt lat="47.91875" lon="-3.16162">
        <ele>129.83</ele>
        <time>2020-08-06T07:56:24Z</time>
      </trkpt>
      <trkpt lat="47.91879" lon="-3.16185">
        <ele>129.83</ele>
        <time>2020-08-06T07:56:38Z</time>
      </trkpt>
      <trkpt lat="47.91886" lon="-3.16199">
        <ele>129.68</ele>
        <time>2020-08-06T07:56:50Z</time>
      </trkpt>
      <trkpt lat="47.91911" lon="-3.1622">
        <ele>129.29</ele>
        <time>2020-08-06T07:57:56Z</time>
      </trkpt>
      <trkpt lat="47.91922" lon="-3.16231">
        <ele>128.78</ele>
        <time>2020-08-06T07:58:06Z</time>
      </trkpt>
      <trkpt lat="47.91936" lon="-3.16245">
        <ele>128.35</ele>
        <time>2020-08-06T07:58:20Z</time>
      </trkpt>
      <trkpt lat="47.91949" lon="-3.1626">
        <ele>127.81</ele>
        <time>2020-08-06T07:58:32Z</time>
      </trkpt>
      <trkpt lat="47.91962" lon="-3.16274">
        <ele>127.11</ele>
        <time>2020-08-06T07:58:43Z</time>
      </trkpt>
      <trkpt lat="47.91965" lon="-3.16277">
        <ele>127.01</ele>
        <time>2020-08-06T07:58:45Z</time>
      </trkpt>
      <trkpt lat="47.91977" lon="-3.16287">
        <ele>126.48</ele>
        <time>2020-08-06T07:58:55Z</time>
      </trkpt>
      <trkpt lat="47.91986" lon="-3.16295">
        <ele>125.57</ele>
        <time>2020-08-06T07:59:03Z</time>
      </trkpt>
      <trkpt lat="47.91997" lon="-3.16306">
        <ele>124.77</ele>
        <time>2020-08-06T07:59:16Z</time>
      </trkpt>
      <trkpt lat="47.91999" lon="-3.16309">
        <ele>124.71</ele>
        <time>2020-08-06T07:59:18Z</time>
      </trkpt>
      <trkpt lat="47.92008" lon="-3.16336">
        <ele>123.84</ele>
        <time>2020-08-06T07:59:32Z</time>
      </trkpt>
      <trkpt lat="47.92013" lon="-3.16355">
        <ele>124.15</ele>
        <time>2020-08-06T07:59:41Z</time>
      </trkpt>
      <trkpt lat="47.92021" lon="-3.16364">
        <ele>124.01</ele>
        <time>2020-08-06T07:59:48Z</time>
      </trkpt>
      <trkpt lat="47.92023" lon="-3.16373">
        <ele>123.52</ele>
        <time>2020-08-06T07:59:51Z</time>
      </trkpt>
      <trkpt lat="47.92022" lon="-3.16376">
        <ele>123.35</ele>
        <time>2020-08-06T07:59:52Z</time>
      </trkpt>
      <trkpt lat="47.92022" lon="-3.1638">
        <ele>123.18</ele>
        <time>2020-08-06T07:59:53Z</time>
      </trkpt>
      <trkpt lat="47.92021" lon="-3.16409">
        <ele>122.24</ele>
        <time>2020-08-06T08:00:04Z</time>
      </trkpt>
      <trkpt lat="47.92023" lon="-3.16441">
        <ele>122.1</ele>
        <time>2020-08-06T08:00:18Z</time>
      </trkpt>
      <trkpt lat="47.92027" lon="-3.16476">
        <ele>122.25</ele>
        <time>2020-08-06T08:00:34Z</time>
      </trkpt>
      <trkpt lat="47.9203" lon="-3.16491">
        <ele>122.02</ele>
        <time>2020-08-06T08:00:46Z</time>
      </trkpt>
      <trkpt lat="47.92034" lon="-3.16503">
        <ele>122.14</ele>
        <time>2020-08-06T08:01:13Z</time>
      </trkpt>
      <trkpt lat="47.92039" lon="-3.16513">
        <ele>121.98</ele>
        <time>2020-08-06T08:01:21Z</time>
      </trkpt>
      <trkpt lat="47.92042" lon="-3.16517">
        <ele>122.14</ele>
        <time>2020-08-06T08:01:25Z</time>
      </trkpt>
      <trkpt lat="47.92047" lon="-3.16522">
        <ele>121.79</ele>
        <time>2020-08-06T08:01:34Z</time>
      </trkpt>
      <trkpt lat="47.92021" lon="-3.16564">
        <ele>123.68</ele>
        <time>2020-08-06T08:04:10Z</time>
      </trkpt>
      <trkpt lat="47.92019" lon="-3.16565">
        <ele>123.74</ele>
        <time>2020-08-06T08:04:12Z</time>
      </trkpt>
      <trkpt lat="47.92011" lon="-3.16571">
        <ele>124.26</ele>
        <time>2020-08-06T08:04:19Z</time>
      </trkpt>
      <trkpt lat="47.92004" lon="-3.16574">
        <ele>125.84</ele>
        <time>2020-08-06T08:04:29Z</time>
      </trkpt>
      <trkpt lat="47.91962" lon="-3.16587">
        <ele>126.88</ele>
        <time>2020-08-06T08:05:01Z</time>
      </trkpt>
      <trkpt lat="47.91952" lon="-3.16589">
        <ele>127.27</ele>
        <time>2020-08-06T08:05:08Z</time>
      </trkpt>
      <trkpt lat="47.91947" lon="-3.1659">
        <ele>127.36</ele>
        <time>2020-08-06T08:05:12Z</time>
      </trkpt>
      <trkpt lat="47.91918" lon="-3.16595">
        <ele>127.8</ele>
        <time>2020-08-06T08:05:31Z</time>
      </trkpt>
      <trkpt lat="47.91913" lon="-3.16595">
        <ele>127.78</ele>
        <time>2020-08-06T08:05:34Z</time>
      </trkpt>
      <trkpt lat="47.91907" lon="-3.16596">
        <ele>127.83</ele>
        <time>2020-08-06T08:05:37Z</time>
      </trkpt>
      <trkpt lat="47.91882" lon="-3.166">
        <ele>127.47</ele>
        <time>2020-08-06T08:05:52Z</time>
      </trkpt>
      <trkpt lat="47.91861" lon="-3.16606">
        <ele>127.19</ele>
        <time>2020-08-06T08:06:06Z</time>
      </trkpt>
      <trkpt lat="47.91844" lon="-3.1661">
        <ele>127.01</ele>
        <time>2020-08-06T08:06:17Z</time>
      </trkpt>
      <trkpt lat="47.91822" lon="-3.16621">
        <ele>127.02</ele>
        <time>2020-08-06T08:06:27Z</time>
      </trkpt>
      <trkpt lat="47.91813" lon="-3.16622">
        <ele>126.96</ele>
        <time>2020-08-06T08:06:31Z</time>
      </trkpt>
      <trkpt lat="47.91787" lon="-3.16622">
        <ele>127.2</ele>
        <time>2020-08-06T08:06:45Z</time>
      </trkpt>
      <trkpt lat="47.91765" lon="-3.1663">
        <ele>127.43</ele>
        <time>2020-08-06T08:06:58Z</time>
      </trkpt>
      <trkpt lat="47.91742" lon="-3.16643">
        <ele>127.63</ele>
        <time>2020-08-06T08:07:14Z</time>
      </trkpt>
      <trkpt lat="47.91733" lon="-3.16644">
        <ele>127.45</ele>
        <time>2020-08-06T08:07:20Z</time>
      </trkpt>
      <trkpt lat="47.91721" lon="-3.16647">
        <ele>127.27</ele>
        <time>2020-08-06T08:07:30Z</time>
      </trkpt>
      <trkpt lat="47.91699" lon="-3.16648">
        <ele>127.11</ele>
        <time>2020-08-06T08:07:45Z</time>
      </trkpt>
      <trkpt lat="47.91693" lon="-3.1665">
        <ele>127</ele>
        <time>2020-08-06T08:07:48Z</time>
      </trkpt>
      <trkpt lat="47.91682" lon="-3.16666">
        <ele>126.51</ele>
        <time>2020-08-06T08:07:58Z</time>
      </trkpt>
      <trkpt lat="47.91676" lon="-3.16681">
        <ele>125.99</ele>
        <time>2020-08-06T08:08:07Z</time>
      </trkpt>
      <trkpt lat="47.91669" lon="-3.16711">
        <ele>124.22</ele>
        <time>2020-08-06T08:08:23Z</time>
      </trkpt>
      <trkpt lat="47.91658" lon="-3.1673">
        <ele>122.89</ele>
        <time>2020-08-06T08:08:33Z</time>
      </trkpt>
      <trkpt lat="47.91649" lon="-3.16729">
        <ele>121.68</ele>
        <time>2020-08-06T08:08:40Z</time>
      </trkpt>
      <trkpt lat="47.91636" lon="-3.16729">
        <ele>120.52</ele>
        <time>2020-08-06T08:08:51Z</time>
      </trkpt>
      <trkpt lat="47.91633" lon="-3.16731">
        <ele>120.26</ele>
        <time>2020-08-06T08:08:54Z</time>
      </trkpt>
      <trkpt lat="47.9161" lon="-3.16732">
        <ele>118.77</ele>
        <time>2020-08-06T08:09:09Z</time>
      </trkpt>
      <trkpt lat="47.91605" lon="-3.16733">
        <ele>118.46</ele>
        <time>2020-08-06T08:09:12Z</time>
      </trkpt>
      <trkpt lat="47.91588" lon="-3.16737">
        <ele>117.34</ele>
        <time>2020-08-06T08:09:23Z</time>
      </trkpt>
      <trkpt lat="47.91579" lon="-3.1674">
        <ele>116.92</ele>
        <time>2020-08-06T08:09:28Z</time>
      </trkpt>
      <trkpt lat="47.91563" lon="-3.1678">
        <ele>116.07</ele>
        <time>2020-08-06T08:09:43Z</time>
      </trkpt>
      <trkpt lat="47.91555" lon="-3.16807">
        <ele>115.84</ele>
        <time>2020-08-06T08:09:58Z</time>
      </trkpt>
      <trkpt lat="47.91544" lon="-3.16834">
        <ele>115.39</ele>
        <time>2020-08-06T08:10:12Z</time>
      </trkpt>
      <trkpt lat="47.91534" lon="-3.16865">
        <ele>114.97</ele>
        <time>2020-08-06T08:10:26Z</time>
      </trkpt>
      <trkpt lat="47.9152" lon="-3.16903">
        <ele>114.66</ele>
        <time>2020-08-06T08:10:43Z</time>
      </trkpt>
      <trkpt lat="47.91508" lon="-3.16935">
        <ele>113.92</ele>
        <time>2020-08-06T08:10:57Z</time>
      </trkpt>
      <trkpt lat="47.915" lon="-3.16963">
        <ele>113.36</ele>
        <time>2020-08-06T08:11:10Z</time>
      </trkpt>
      <trkpt lat="47.91494" lon="-3.16987">
        <ele>113.02</ele>
        <time>2020-08-06T08:11:22Z</time>
      </trkpt>
      <trkpt lat="47.91488" lon="-3.17022">
        <ele>112.93</ele>
        <time>2020-08-06T08:11:37Z</time>
      </trkpt>
      <trkpt lat="47.91485" lon="-3.1706">
        <ele>112.48</ele>
        <time>2020-08-06T08:11:52Z</time>
      </trkpt>
      <trkpt lat="47.91492" lon="-3.17089">
        <ele>111.34</ele>
        <time>2020-08-06T08:12:08Z</time>
      </trkpt>
      <trkpt lat="47.91517" lon="-3.17091">
        <ele>109.71</ele>
        <time>2020-08-06T08:12:24Z</time>
      </trkpt>
      <trkpt lat="47.91534" lon="-3.1709">
        <ele>108.11</ele>
        <time>2020-08-06T08:12:36Z</time>
      </trkpt>
      <trkpt lat="47.91548" lon="-3.17089">
        <ele>106.75</ele>
        <time>2020-08-06T08:12:46Z</time>
      </trkpt>
      <trkpt lat="47.91571" lon="-3.17084">
        <ele>105.23</ele>
        <time>2020-08-06T08:12:59Z</time>
      </trkpt>
      <trkpt lat="47.91573" lon="-3.17084">
        <ele>105.1</ele>
        <time>2020-08-06T08:13:00Z</time>
      </trkpt>
      <trkpt lat="47.91574" lon="-3.17084">
        <ele>104.97</ele>
        <time>2020-08-06T08:13:01Z</time>
      </trkpt>
      <trkpt lat="47.91597" lon="-3.17081">
        <ele>103.35</ele>
        <time>2020-08-06T08:13:14Z</time>
      </trkpt>
      <trkpt lat="47.9162" lon="-3.17078">
        <ele>102.2</ele>
        <time>2020-08-06T08:13:28Z</time>
      </trkpt>
      <trkpt lat="47.91636" lon="-3.17074">
        <ele>101.41</ele>
        <time>2020-08-06T08:13:39Z</time>
      </trkpt>
      <trkpt lat="47.91654" lon="-3.17073">
        <ele>100.72</ele>
        <time>2020-08-06T08:13:50Z</time>
      </trkpt>
      <trkpt lat="47.91672" lon="-3.1707">
        <ele>100.27</ele>
        <time>2020-08-06T08:14:01Z</time>
      </trkpt>
      <trkpt lat="47.91677" lon="-3.17071">
        <ele>100.16</ele>
        <time>2020-08-06T08:14:05Z</time>
      </trkpt>
      <trkpt lat="47.91679" lon="-3.17069">
        <ele>100.04</ele>
        <time>2020-08-06T08:14:07Z</time>
      </trkpt>
      <trkpt lat="47.9168" lon="-3.17068">
        <ele>99.95</ele>
        <time>2020-08-06T08:14:08Z</time>
      </trkpt>
      <trkpt lat="47.91681" lon="-3.17066">
        <ele>99.89</ele>
        <time>2020-08-06T08:14:09Z</time>
      </trkpt>
      <trkpt lat="47.91689" lon="-3.17061">
        <ele>99.72</ele>
        <time>2020-08-06T08:14:15Z</time>
      </trkpt>
      <trkpt lat="47.91691" lon="-3.17059">
        <ele>99.72</ele>
        <time>2020-08-06T08:14:16Z</time>
      </trkpt>
      <trkpt lat="47.91693" lon="-3.17059">
        <ele>99.69</ele>
        <time>2020-08-06T08:14:17Z</time>
      </trkpt>
      <trkpt lat="47.91695" lon="-3.17059">
        <ele>99.67</ele>
        <time>2020-08-06T08:14:18Z</time>
      </trkpt>
      <trkpt lat="47.91697" lon="-3.17059">
        <ele>99.56</ele>
        <time>2020-08-06T08:14:19Z</time>
      </trkpt>
      <trkpt lat="47.91698" lon="-3.17058">
        <ele>99.49</ele>
        <time>2020-08-06T08:14:20Z</time>
      </trkpt>
      <trkpt lat="47.917" lon="-3.17057">
        <ele>99.43</ele>
        <time>2020-08-06T08:14:21Z</time>
      </trkpt>
      <trkpt lat="47.91705" lon="-3.17055">
        <ele>99.39</ele>
        <time>2020-08-06T08:14:24Z</time>
      </trkpt>
      <trkpt lat="47.91706" lon="-3.17053">
        <ele>99.39</ele>
        <time>2020-08-06T08:14:25Z</time>
      </trkpt>
      <trkpt lat="47.91708" lon="-3.17053">
        <ele>99.39</ele>
        <time>2020-08-06T08:14:26Z</time>
      </trkpt>
      <trkpt lat="47.91728" lon="-3.17045">
        <ele>99.09</ele>
        <time>2020-08-06T08:14:39Z</time>
      </trkpt>
      <trkpt lat="47.91747" lon="-3.17043">
        <ele>98.74</ele>
        <time>2020-08-06T08:14:50Z</time>
      </trkpt>
      <trkpt lat="47.91759" lon="-3.17041">
        <ele>98.73</ele>
        <time>2020-08-06T08:14:57Z</time>
      </trkpt>
      <trkpt lat="47.91772" lon="-3.17064">
        <ele>98.43</ele>
        <time>2020-08-06T08:15:09Z</time>
      </trkpt>
      <trkpt lat="47.91778" lon="-3.17104">
        <ele>97.93</ele>
        <time>2020-08-06T08:15:23Z</time>
      </trkpt>
      <trkpt lat="47.91768" lon="-3.17132">
        <ele>97.96</ele>
        <time>2020-08-06T08:15:37Z</time>
      </trkpt>
      <trkpt lat="47.9175" lon="-3.17146">
        <ele>98.88</ele>
        <time>2020-08-06T08:15:49Z</time>
      </trkpt>
      <trkpt lat="47.91729" lon="-3.17159">
        <ele>99.49</ele>
        <time>2020-08-06T08:16:03Z</time>
      </trkpt>
      <trkpt lat="47.91712" lon="-3.17182">
        <ele>100.45</ele>
        <time>2020-08-06T08:16:18Z</time>
      </trkpt>
      <trkpt lat="47.91709" lon="-3.17189">
        <ele>100.79</ele>
        <time>2020-08-06T08:16:22Z</time>
      </trkpt>
      <trkpt lat="47.91709" lon="-3.17191">
        <ele>100.84</ele>
        <time>2020-08-06T08:16:23Z</time>
      </trkpt>
      <trkpt lat="47.91709" lon="-3.17193">
        <ele>100.9</ele>
        <time>2020-08-06T08:16:24Z</time>
      </trkpt>
      <trkpt lat="47.91708" lon="-3.1721">
        <ele>101.76</ele>
        <time>2020-08-06T08:16:34Z</time>
      </trkpt>
      <trkpt lat="47.91708" lon="-3.17212">
        <ele>101.86</ele>
        <time>2020-08-06T08:16:35Z</time>
      </trkpt>
      <trkpt lat="47.91708" lon="-3.17215">
        <ele>101.96</ele>
        <time>2020-08-06T08:16:36Z</time>
      </trkpt>
      <trkpt lat="47.91705" lon="-3.17233">
        <ele>103.16</ele>
        <time>2020-08-06T08:16:48Z</time>
      </trkpt>
      <trkpt lat="47.91703" lon="-3.1723">
        <ele>103.19</ele>
        <time>2020-08-06T08:16:50Z</time>
      </trkpt>
      <trkpt lat="47.91699" lon="-3.17224">
        <ele>102.48</ele>
        <time>2020-08-06T08:17:04Z</time>
      </trkpt>
      <trkpt lat="47.91698" lon="-3.17231">
        <ele>101.85</ele>
        <time>2020-08-06T08:17:09Z</time>
      </trkpt>
      <trkpt lat="47.91686" lon="-3.17253">
        <ele>99.37</ele>
        <time>2020-08-06T08:17:26Z</time>
      </trkpt>
      <trkpt lat="47.91659" lon="-3.17253">
        <ele>96.92</ele>
        <time>2020-08-06T08:17:49Z</time>
      </trkpt>
      <trkpt lat="47.91652" lon="-3.17248">
        <ele>96.2</ele>
        <time>2020-08-06T08:17:55Z</time>
      </trkpt>
      <trkpt lat="47.91648" lon="-3.17245">
        <ele>95.92</ele>
        <time>2020-08-06T08:17:58Z</time>
      </trkpt>
      <trkpt lat="47.91638" lon="-3.17239">
        <ele>94.9</ele>
        <time>2020-08-06T08:18:05Z</time>
      </trkpt>
      <trkpt lat="47.91619" lon="-3.17232">
        <ele>93.79</ele>
        <time>2020-08-06T08:18:19Z</time>
      </trkpt>
      <trkpt lat="47.916" lon="-3.1723">
        <ele>93.01</ele>
        <time>2020-08-06T08:18:34Z</time>
      </trkpt>
      <trkpt lat="47.91573" lon="-3.17239">
        <ele>92.15</ele>
        <time>2020-08-06T08:18:53Z</time>
      </trkpt>
      <trkpt lat="47.91554" lon="-3.17241">
        <ele>90.96</ele>
        <time>2020-08-06T08:19:07Z</time>
      </trkpt>
      <trkpt lat="47.91546" lon="-3.17242">
        <ele>90.33</ele>
        <time>2020-08-06T08:19:15Z</time>
      </trkpt>
      <trkpt lat="47.91537" lon="-3.17434">
        <ele>116.95</ele>
        <time>2020-08-06T08:22:05Z</time>
      </trkpt>
      <trkpt lat="47.91538" lon="-3.1744">
        <ele>116.99</ele>
        <time>2020-08-06T08:22:07Z</time>
      </trkpt>
      <trkpt lat="47.91536" lon="-3.17468">
        <ele>118.18</ele>
        <time>2020-08-06T08:22:19Z</time>
      </trkpt>
      <trkpt lat="47.91532" lon="-3.17483">
        <ele>119</ele>
        <time>2020-08-06T08:22:28Z</time>
      </trkpt>
      <trkpt lat="47.91531" lon="-3.17487">
        <ele>119.16</ele>
        <time>2020-08-06T08:22:32Z</time>
      </trkpt>
      <trkpt lat="47.91523" lon="-3.17514">
        <ele>119.96</ele>
        <time>2020-08-06T08:22:51Z</time>
      </trkpt>
      <trkpt lat="47.91524" lon="-3.17514">
        <ele>120.1</ele>
        <time>2020-08-06T08:22:53Z</time>
      </trkpt>
      <trkpt lat="47.91517" lon="-3.17537">
        <ele>120.52</ele>
        <time>2020-08-06T08:24:41Z</time>
      </trkpt>
      <trkpt lat="47.91514" lon="-3.17566">
        <ele>120.92</ele>
        <time>2020-08-06T08:24:53Z</time>
      </trkpt>
      <trkpt lat="47.9151" lon="-3.1758">
        <ele>121.53</ele>
        <time>2020-08-06T08:25:00Z</time>
      </trkpt>
      <trkpt lat="47.9151" lon="-3.17581">
        <ele>121.57</ele>
        <time>2020-08-06T08:25:01Z</time>
      </trkpt>
      <trkpt lat="47.91509" lon="-3.17583">
        <ele>121.64</ele>
        <time>2020-08-06T08:25:02Z</time>
      </trkpt>
      <trkpt lat="47.91509" lon="-3.17586">
        <ele>121.7</ele>
        <time>2020-08-06T08:25:03Z</time>
      </trkpt>
      <trkpt lat="47.91498" lon="-3.1762">
        <ele>122.95</ele>
        <time>2020-08-06T08:25:19Z</time>
      </trkpt>
      <trkpt lat="47.91488" lon="-3.17645">
        <ele>123.65</ele>
        <time>2020-08-06T08:25:31Z</time>
      </trkpt>
      <trkpt lat="47.91472" lon="-3.17682">
        <ele>124.53</ele>
        <time>2020-08-06T08:25:48Z</time>
      </trkpt>
      <trkpt lat="47.91459" lon="-3.17711">
        <ele>124.74</ele>
        <time>2020-08-06T08:26:03Z</time>
      </trkpt>
      <trkpt lat="47.91452" lon="-3.17739">
        <ele>124.76</ele>
        <time>2020-08-06T08:26:15Z</time>
      </trkpt>
      <trkpt lat="47.91451" lon="-3.17755">
        <ele>124.83</ele>
        <time>2020-08-06T08:26:23Z</time>
      </trkpt>
      <trkpt lat="47.91452" lon="-3.17768">
        <ele>125</ele>
        <time>2020-08-06T08:26:32Z</time>
      </trkpt>
      <trkpt lat="47.91451" lon="-3.17802">
        <ele>125.43</ele>
        <time>2020-08-06T08:26:46Z</time>
      </trkpt>
      <trkpt lat="47.91451" lon="-3.17804">
        <ele>125.46</ele>
        <time>2020-08-06T08:26:47Z</time>
      </trkpt>
      <trkpt lat="47.91452" lon="-3.1785">
        <ele>125.39</ele>
        <time>2020-08-06T08:26:58Z</time>
      </trkpt>
      <trkpt lat="47.91453" lon="-3.17917">
        <ele>126.41</ele>
        <time>2020-08-06T08:27:09Z</time>
      </trkpt>
      <trkpt lat="47.91427" lon="-3.17969">
        <ele>127.75</ele>
        <time>2020-08-06T08:27:17Z</time>
      </trkpt>
      <trkpt lat="47.91392" lon="-3.17983">
        <ele>128.68</ele>
        <time>2020-08-06T08:27:24Z</time>
      </trkpt>
      <trkpt lat="47.91371" lon="-3.18028">
        <ele>128.74</ele>
        <time>2020-08-06T08:27:33Z</time>
      </trkpt>
      <trkpt lat="47.91369" lon="-3.18056">
        <ele>129.07</ele>
        <time>2020-08-06T08:27:37Z</time>
      </trkpt>
      <trkpt lat="47.91352" lon="-3.18083">
        <ele>129.85</ele>
        <time>2020-08-06T08:27:42Z</time>
      </trkpt>
      <trkpt lat="47.91331" lon="-3.18093">
        <ele>130.13</ele>
        <time>2020-08-06T08:27:46Z</time>
      </trkpt>
      <trkpt lat="47.9132" lon="-3.18122">
        <ele>129.88</ele>
        <time>2020-08-06T08:27:51Z</time>
      </trkpt>
      <trkpt lat="47.91318" lon="-3.1815">
        <ele>130.17</ele>
        <time>2020-08-06T08:27:59Z</time>
      </trkpt>
      <trkpt lat="47.91317" lon="-3.18159">
        <ele>131.18</ele>
        <time>2020-08-06T08:28:05Z</time>
      </trkpt>
      <trkpt lat="47.91313" lon="-3.18187">
        <ele>130.42</ele>
        <time>2020-08-06T08:28:14Z</time>
      </trkpt>
      <trkpt lat="47.91308" lon="-3.18201">
        <ele>130.36</ele>
        <time>2020-08-06T08:28:16Z</time>
      </trkpt>
      <trkpt lat="47.91301" lon="-3.18226">
        <ele>130.12</ele>
        <time>2020-08-06T08:28:20Z</time>
      </trkpt>
      <trkpt lat="47.91297" lon="-3.18264">
        <ele>129.51</ele>
        <time>2020-08-06T08:28:26Z</time>
      </trkpt>
      <trkpt lat="47.91295" lon="-3.18295">
        <ele>128.42</ele>
        <time>2020-08-06T08:28:31Z</time>
      </trkpt>
      <trkpt lat="47.91281" lon="-3.18327">
        <ele>127.05</ele>
        <time>2020-08-06T08:28:39Z</time>
      </trkpt>
      <trkpt lat="47.91258" lon="-3.18345">
        <ele>125.89</ele>
        <time>2020-08-06T08:28:47Z</time>
      </trkpt>
      <trkpt lat="47.91232" lon="-3.18361">
        <ele>124.42</ele>
        <time>2020-08-06T08:28:58Z</time>
      </trkpt>
      <trkpt lat="47.91227" lon="-3.18365">
        <ele>124.21</ele>
        <time>2020-08-06T08:29:01Z</time>
      </trkpt>
      <trkpt lat="47.91226" lon="-3.18366">
        <ele>124.17</ele>
        <time>2020-08-06T08:29:02Z</time>
      </trkpt>
      <trkpt lat="47.91225" lon="-3.18367">
        <ele>124.09</ele>
        <time>2020-08-06T08:29:03Z</time>
      </trkpt>
      <trkpt lat="47.91224" lon="-3.1837">
        <ele>124.04</ele>
        <time>2020-08-06T08:29:04Z</time>
      </trkpt>
      <trkpt lat="47.91222" lon="-3.18371">
        <ele>123.98</ele>
        <time>2020-08-06T08:29:05Z</time>
      </trkpt>
      <trkpt lat="47.9122" lon="-3.18372">
        <ele>123.92</ele>
        <time>2020-08-06T08:29:06Z</time>
      </trkpt>
      <trkpt lat="47.91219" lon="-3.18375">
        <ele>123.83</ele>
        <time>2020-08-06T08:29:07Z</time>
      </trkpt>
      <trkpt lat="47.91202" lon="-3.18398">
        <ele>123.05</ele>
        <time>2020-08-06T08:29:21Z</time>
      </trkpt>
      <trkpt lat="47.91199" lon="-3.18419">
        <ele>122.81</ele>
        <time>2020-08-06T08:29:31Z</time>
      </trkpt>
      <trkpt lat="47.912" lon="-3.18421">
        <ele>122.75</ele>
        <time>2020-08-06T08:29:32Z</time>
      </trkpt>
      <trkpt lat="47.9121" lon="-3.18453">
        <ele>125.59</ele>
        <time>2020-08-06T08:29:48Z</time>
      </trkpt>
      <trkpt lat="47.91219" lon="-3.18494">
        <ele>128.11</ele>
        <time>2020-08-06T08:30:10Z</time>
      </trkpt>
      <trkpt lat="47.9121" lon="-3.18513">
        <ele>128.44</ele>
        <time>2020-08-06T08:30:23Z</time>
      </trkpt>
      <trkpt lat="47.91201" lon="-3.18526">
        <ele>128.13</ele>
        <time>2020-08-06T08:30:31Z</time>
      </trkpt>
      <trkpt lat="47.91182" lon="-3.18529">
        <ele>126.51</ele>
        <time>2020-08-06T08:30:46Z</time>
      </trkpt>
      <trkpt lat="47.91177" lon="-3.18516">
        <ele>124.93</ele>
        <time>2020-08-06T08:30:54Z</time>
      </trkpt>
      <trkpt lat="47.91173" lon="-3.18486">
        <ele>123.01</ele>
        <time>2020-08-06T08:31:10Z</time>
      </trkpt>
      <trkpt lat="47.91172" lon="-3.18478">
        <ele>122.78</ele>
        <time>2020-08-06T08:31:14Z</time>
      </trkpt>
      <trkpt lat="47.9117" lon="-3.18448">
        <ele>122.14</ele>
        <time>2020-08-06T08:31:28Z</time>
      </trkpt>
      <trkpt lat="47.91166" lon="-3.18421">
        <ele>121.24</ele>
        <time>2020-08-06T08:31:43Z</time>
      </trkpt>
      <trkpt lat="47.91165" lon="-3.18397">
        <ele>119.46</ele>
        <time>2020-08-06T08:31:56Z</time>
      </trkpt>
      <trkpt lat="47.9116" lon="-3.18383">
        <ele>118.51</ele>
        <time>2020-08-06T08:32:04Z</time>
      </trkpt>
      <trkpt lat="47.91145" lon="-3.18372">
        <ele>116.4</ele>
        <time>2020-08-06T08:32:18Z</time>
      </trkpt>
      <trkpt lat="47.91126" lon="-3.18368">
        <ele>113.66</ele>
        <time>2020-08-06T08:32:34Z</time>
      </trkpt>
      <trkpt lat="47.9111" lon="-3.18367">
        <ele>111.71</ele>
        <time>2020-08-06T08:32:47Z</time>
      </trkpt>
      <trkpt lat="47.91085" lon="-3.18388">
        <ele>109.6</ele>
        <time>2020-08-06T08:32:59Z</time>
      </trkpt>
      <trkpt lat="47.91066" lon="-3.18402">
        <ele>106.59</ele>
        <time>2020-08-06T08:33:14Z</time>
      </trkpt>
      <trkpt lat="47.91062" lon="-3.18404">
        <ele>105.47</ele>
        <time>2020-08-06T08:33:18Z</time>
      </trkpt>
      <trkpt lat="47.91051" lon="-3.18413">
        <ele>102.18</ele>
        <time>2020-08-06T08:33:29Z</time>
      </trkpt>
      <trkpt lat="47.91042" lon="-3.18421">
        <ele>99.94</ele>
        <time>2020-08-06T08:33:36Z</time>
      </trkpt>
      <trkpt lat="47.9103" lon="-3.18428">
        <ele>96.25</ele>
        <time>2020-08-06T08:33:47Z</time>
      </trkpt>
      <trkpt lat="47.91023" lon="-3.18431">
        <ele>93.05</ele>
        <time>2020-08-06T08:33:55Z</time>
      </trkpt>
      <trkpt lat="47.91014" lon="-3.18432">
        <ele>90.39</ele>
        <time>2020-08-06T08:34:02Z</time>
      </trkpt>
      <trkpt lat="47.91001" lon="-3.18427">
        <ele>87.35</ele>
        <time>2020-08-06T08:34:15Z</time>
      </trkpt>
      <trkpt lat="47.90994" lon="-3.18426">
        <ele>86.58</ele>
        <time>2020-08-06T08:34:22Z</time>
      </trkpt>
      <trkpt lat="47.90987" lon="-3.18426">
        <ele>85.7</ele>
        <time>2020-08-06T08:34:29Z</time>
      </trkpt>
      <trkpt lat="47.90929" lon="-3.18446">
        <ele>81.04</ele>
        <time>2020-08-06T08:35:06Z</time>
      </trkpt>
      <trkpt lat="47.90914" lon="-3.18447">
        <ele>77.94</ele>
        <time>2020-08-06T08:35:18Z</time>
      </trkpt>
      <trkpt lat="47.90911" lon="-3.18447">
        <ele>76.68</ele>
        <time>2020-08-06T08:35:23Z</time>
      </trkpt>
      <trkpt lat="47.90929" lon="-3.18498">
        <ele>72.13</ele>
        <time>2020-08-06T08:36:13Z</time>
      </trkpt>
      <trkpt lat="47.90928" lon="-3.18541">
        <ele>74.58</ele>
        <time>2020-08-06T08:36:35Z</time>
      </trkpt>
      <trkpt lat="47.90921" lon="-3.18549">
        <ele>74.65</ele>
        <time>2020-08-06T08:36:46Z</time>
      </trkpt>
      <trkpt lat="47.90896" lon="-3.18565">
        <ele>72.54</ele>
        <time>2020-08-06T08:37:09Z</time>
      </trkpt>
      <trkpt lat="47.90892" lon="-3.18567">
        <ele>72.07</ele>
        <time>2020-08-06T08:37:12Z</time>
      </trkpt>
      <trkpt lat="47.90879" lon="-3.18581">
        <ele>70.7</ele>
        <time>2020-08-06T08:37:22Z</time>
      </trkpt>
      <trkpt lat="47.90879" lon="-3.18581">
        <ele>70.56</ele>
        <time>2020-08-06T08:37:23Z</time>
      </trkpt>
      <trkpt lat="47.90871" lon="-3.1859">
        <ele>69.67</ele>
        <time>2020-08-06T08:37:33Z</time>
      </trkpt>
      <trkpt lat="47.90866" lon="-3.18618">
        <ele>67.46</ele>
        <time>2020-08-06T08:37:51Z</time>
      </trkpt>
      <trkpt lat="47.90867" lon="-3.18631">
        <ele>65.84</ele>
        <time>2020-08-06T08:38:00Z</time>
      </trkpt>
      <trkpt lat="47.90864" lon="-3.18652">
        <ele>64.56</ele>
        <time>2020-08-06T08:38:06Z</time>
      </trkpt>
      <trkpt lat="47.90867" lon="-3.18669">
        <ele>62.87</ele>
        <time>2020-08-06T08:38:15Z</time>
      </trkpt>
      <trkpt lat="47.90871" lon="-3.18718">
        <ele>60.37</ele>
        <time>2020-08-06T08:38:36Z</time>
      </trkpt>
      <trkpt lat="47.90871" lon="-3.18731">
        <ele>59.75</ele>
        <time>2020-08-06T08:38:41Z</time>
      </trkpt>
      <trkpt lat="47.90871" lon="-3.18738">
        <ele>59.42</ele>
        <time>2020-08-06T08:38:44Z</time>
      </trkpt>
      <trkpt lat="47.90873" lon="-3.18761">
        <ele>58.17</ele>
        <time>2020-08-06T08:38:56Z</time>
      </trkpt>
      <trkpt lat="47.90875" lon="-3.18764">
        <ele>58.58</ele>
        <time>2020-08-06T08:38:59Z</time>
      </trkpt>
      <trkpt lat="47.90878" lon="-3.18795">
        <ele>60.64</ele>
        <time>2020-08-06T08:39:11Z</time>
      </trkpt>
      <trkpt lat="47.90889" lon="-3.18823">
        <ele>61.55</ele>
        <time>2020-08-06T08:39:22Z</time>
      </trkpt>
      <trkpt lat="47.9089" lon="-3.18838">
        <ele>62.72</ele>
        <time>2020-08-06T08:39:29Z</time>
      </trkpt>
      <trkpt lat="47.90943" lon="-3.19012">
        <ele>75.62</ele>
        <time>2020-08-06T08:41:13Z</time>
      </trkpt>
      <trkpt lat="47.90954" lon="-3.19034">
        <ele>75.58</ele>
        <time>2020-08-06T08:41:19Z</time>
      </trkpt>
      <trkpt lat="47.90982" lon="-3.19066">
        <ele>76.39</ele>
        <time>2020-08-06T08:41:30Z</time>
      </trkpt>
      <trkpt lat="47.91016" lon="-3.19096">
        <ele>78.05</ele>
        <time>2020-08-06T08:41:41Z</time>
      </trkpt>
      <trkpt lat="47.91038" lon="-3.19123">
        <ele>80.04</ele>
        <time>2020-08-06T08:41:52Z</time>
      </trkpt>
      <trkpt lat="47.91049" lon="-3.19135">
        <ele>80.15</ele>
        <time>2020-08-06T08:41:58Z</time>
      </trkpt>
      <trkpt lat="47.91054" lon="-3.19145">
        <ele>80</ele>
        <time>2020-08-06T08:42:03Z</time>
      </trkpt>
      <trkpt lat="47.91058" lon="-3.19172">
        <ele>79.17</ele>
        <time>2020-08-06T08:42:11Z</time>
      </trkpt>
      <trkpt lat="47.91056" lon="-3.19196">
        <ele>79.29</ele>
        <time>2020-08-06T08:42:26Z</time>
      </trkpt>
      <trkpt lat="47.91054" lon="-3.19201">
        <ele>79.43</ele>
        <time>2020-08-06T08:42:34Z</time>
      </trkpt>
      <trkpt lat="47.91036" lon="-3.19338">
        <ele>78.76</ele>
        <time>2020-08-06T08:44:34Z</time>
      </trkpt>
      <trkpt lat="47.91026" lon="-3.19398">
        <ele>78.41</ele>
        <time>2020-08-06T08:44:42Z</time>
      </trkpt>
      <trkpt lat="47.91028" lon="-3.19431">
        <ele>78.24</ele>
        <time>2020-08-06T08:44:49Z</time>
      </trkpt>
      <trkpt lat="47.91027" lon="-3.19446">
        <ele>77.49</ele>
        <time>2020-08-06T08:44:55Z</time>
      </trkpt>
      <trkpt lat="47.91004" lon="-3.19582">
        <ele>71.53</ele>
        <time>2020-08-06T08:46:02Z</time>
      </trkpt>
      <trkpt lat="47.91015" lon="-3.1962">
        <ele>72.29</ele>
        <time>2020-08-06T08:46:20Z</time>
      </trkpt>
      <trkpt lat="47.91027" lon="-3.19648">
        <ele>72.74</ele>
        <time>2020-08-06T08:46:37Z</time>
      </trkpt>
      <trkpt lat="47.91027" lon="-3.1965">
        <ele>72.71</ele>
        <time>2020-08-06T08:46:38Z</time>
      </trkpt>
      <trkpt lat="47.91037" lon="-3.19691">
        <ele>72.23</ele>
        <time>2020-08-06T08:46:57Z</time>
      </trkpt>
      <trkpt lat="47.91057" lon="-3.19736">
        <ele>71.84</ele>
        <time>2020-08-06T08:47:22Z</time>
      </trkpt>
      <trkpt lat="47.91061" lon="-3.19745">
        <ele>72.01</ele>
        <time>2020-08-06T08:47:28Z</time>
      </trkpt>
      <trkpt lat="47.91063" lon="-3.19748">
        <ele>71.83</ele>
        <time>2020-08-06T08:47:33Z</time>
      </trkpt>
      <trkpt lat="47.91065" lon="-3.19752">
        <ele>71.79</ele>
        <time>2020-08-06T08:47:41Z</time>
      </trkpt>
      <trkpt lat="47.91112" lon="-3.19847">
        <ele>74.11</ele>
        <time>2020-08-06T08:48:55Z</time>
      </trkpt>
      <trkpt lat="47.91123" lon="-3.1988">
        <ele>74.88</ele>
        <time>2020-08-06T08:49:10Z</time>
      </trkpt>
      <trkpt lat="47.91138" lon="-3.19921">
        <ele>73.67</ele>
        <time>2020-08-06T08:49:34Z</time>
      </trkpt>
      <trkpt lat="47.91137" lon="-3.19946">
        <ele>72.69</ele>
        <time>2020-08-06T08:49:43Z</time>
      </trkpt>
      <trkpt lat="47.91129" lon="-3.19958">
        <ele>71.09</ele>
        <time>2020-08-06T08:49:53Z</time>
      </trkpt>
      <trkpt lat="47.91101" lon="-3.19969">
        <ele>68.28</ele>
        <time>2020-08-06T08:50:13Z</time>
      </trkpt>
      <trkpt lat="47.9108" lon="-3.1997">
        <ele>67.27</ele>
        <time>2020-08-06T08:50:25Z</time>
      </trkpt>
      <trkpt lat="47.91067" lon="-3.19966">
        <ele>66.8</ele>
        <time>2020-08-06T08:50:31Z</time>
      </trkpt>
      <trkpt lat="47.91061" lon="-3.19962">
        <ele>66.56</ele>
        <time>2020-08-06T08:50:36Z</time>
      </trkpt>
      <trkpt lat="47.91054" lon="-3.19957">
        <ele>66.52</ele>
        <time>2020-08-06T08:50:40Z</time>
      </trkpt>
      <trkpt lat="47.91034" lon="-3.19946">
        <ele>65.32</ele>
        <time>2020-08-06T08:50:56Z</time>
      </trkpt>
      <trkpt lat="47.91029" lon="-3.19947">
        <ele>64.18</ele>
        <time>2020-08-06T08:51:06Z</time>
      </trkpt>
      <trkpt lat="47.9102" lon="-3.19997">
        <ele>64.97</ele>
        <time>2020-08-06T08:51:27Z</time>
      </trkpt>
      <trkpt lat="47.91017" lon="-3.20002">
        <ele>65.1</ele>
        <time>2020-08-06T08:51:29Z</time>
      </trkpt>
      <trkpt lat="47.91014" lon="-3.20013">
        <ele>65.33</ele>
        <time>2020-08-06T08:51:34Z</time>
      </trkpt>
      <trkpt lat="47.91018" lon="-3.20031">
        <ele>65.38</ele>
        <time>2020-08-06T08:51:44Z</time>
      </trkpt>
      <trkpt lat="47.91019" lon="-3.20034">
        <ele>65.38</ele>
        <time>2020-08-06T08:51:46Z</time>
      </trkpt>
      <trkpt lat="47.91019" lon="-3.20039">
        <ele>65.43</ele>
        <time>2020-08-06T08:51:48Z</time>
      </trkpt>
      <trkpt lat="47.91009" lon="-3.20076">
        <ele>65.18</ele>
        <time>2020-08-06T08:52:01Z</time>
      </trkpt>
      <trkpt lat="47.91011" lon="-3.20095">
        <ele>64.32</ele>
        <time>2020-08-06T08:52:09Z</time>
      </trkpt>
      <trkpt lat="47.91012" lon="-3.20105">
        <ele>63.67</ele>
        <time>2020-08-06T08:52:14Z</time>
      </trkpt>
      <trkpt lat="47.91014" lon="-3.20111">
        <ele>63.17</ele>
        <time>2020-08-06T08:52:18Z</time>
      </trkpt>
      <trkpt lat="47.91018" lon="-3.20127">
        <ele>62.82</ele>
        <time>2020-08-06T08:52:28Z</time>
      </trkpt>
      <trkpt lat="47.9102" lon="-3.20148">
        <ele>62.24</ele>
        <time>2020-08-06T08:52:36Z</time>
      </trkpt>
      <trkpt lat="47.91016" lon="-3.2016">
        <ele>61.87</ele>
        <time>2020-08-06T08:52:40Z</time>
      </trkpt>
      <trkpt lat="47.91017" lon="-3.20167">
        <ele>61.37</ele>
        <time>2020-08-06T08:52:44Z</time>
      </trkpt>
      <trkpt lat="47.91022" lon="-3.20179">
        <ele>60.71</ele>
        <time>2020-08-06T08:52:50Z</time>
      </trkpt>
      <trkpt lat="47.91023" lon="-3.20193">
        <ele>59.96</ele>
        <time>2020-08-06T08:52:56Z</time>
      </trkpt>
      <trkpt lat="47.91033" lon="-3.20225">
        <ele>57.97</ele>
        <time>2020-08-06T08:53:10Z</time>
      </trkpt>
      <trkpt lat="47.91037" lon="-3.20261">
        <ele>55.76</ele>
        <time>2020-08-06T08:53:28Z</time>
      </trkpt>
      <trkpt lat="47.91046" lon="-3.20295">
        <ele>53.64</ele>
        <time>2020-08-06T08:53:49Z</time>
      </trkpt>
      <trkpt lat="47.91044" lon="-3.20314">
        <ele>53.04</ele>
        <time>2020-08-06T08:53:55Z</time>
      </trkpt>
      <trkpt lat="47.91045" lon="-3.20335">
        <ele>52.1</ele>
        <time>2020-08-06T08:54:02Z</time>
      </trkpt>
      <trkpt lat="47.91054" lon="-3.20347">
        <ele>49.72</ele>
        <time>2020-08-06T08:54:08Z</time>
      </trkpt>
      <trkpt lat="47.91068" lon="-3.20358">
        <ele>51.18</ele>
        <time>2020-08-06T08:54:16Z</time>
      </trkpt>
      <trkpt lat="47.91072" lon="-3.20395">
        <ele>50.21</ele>
        <time>2020-08-06T08:54:29Z</time>
      </trkpt>
      <trkpt lat="47.91091" lon="-3.20408">
        <ele>48.81</ele>
        <time>2020-08-06T08:54:42Z</time>
      </trkpt>
      <trkpt lat="47.91121" lon="-3.20415">
        <ele>47.93</ele>
        <time>2020-08-06T08:54:56Z</time>
      </trkpt>
      <trkpt lat="47.91134" lon="-3.20422">
        <ele>47.01</ele>
        <time>2020-08-06T08:55:05Z</time>
      </trkpt>
      <trkpt lat="47.91144" lon="-3.20446">
        <ele>46.56</ele>
        <time>2020-08-06T08:55:19Z</time>
      </trkpt>
      <trkpt lat="47.91145" lon="-3.20448">
        <ele>46.62</ele>
        <time>2020-08-06T08:55:20Z</time>
      </trkpt>
      <trkpt lat="47.91147" lon="-3.20456">
        <ele>46.73</ele>
        <time>2020-08-06T08:55:23Z</time>
      </trkpt>
      <trkpt lat="47.91146" lon="-3.20462">
        <ele>46.8</ele>
        <time>2020-08-06T08:55:27Z</time>
      </trkpt>
      <trkpt lat="47.91143" lon="-3.20487">
        <ele>47.29</ele>
        <time>2020-08-06T08:55:37Z</time>
      </trkpt>
      <trkpt lat="47.91132" lon="-3.20501">
        <ele>47.72</ele>
        <time>2020-08-06T08:55:48Z</time>
      </trkpt>
      <trkpt lat="47.91129" lon="-3.20504">
        <ele>47.65</ele>
        <time>2020-08-06T08:55:51Z</time>
      </trkpt>
      <trkpt lat="47.91127" lon="-3.20505">
        <ele>47.6</ele>
        <time>2020-08-06T08:55:52Z</time>
      </trkpt>
      <trkpt lat="47.91126" lon="-3.20506">
        <ele>47.55</ele>
        <time>2020-08-06T08:55:53Z</time>
      </trkpt>
      <trkpt lat="47.91124" lon="-3.20507">
        <ele>47.52</ele>
        <time>2020-08-06T08:55:54Z</time>
      </trkpt>
      <trkpt lat="47.91123" lon="-3.20508">
        <ele>47.47</ele>
        <time>2020-08-06T08:55:55Z</time>
      </trkpt>
      <trkpt lat="47.91122" lon="-3.20509">
        <ele>47.41</ele>
        <time>2020-08-06T08:55:56Z</time>
      </trkpt>
      <trkpt lat="47.9112" lon="-3.2051">
        <ele>47.34</ele>
        <time>2020-08-06T08:55:57Z</time>
      </trkpt>
      <trkpt lat="47.91118" lon="-3.20512">
        <ele>47.25</ele>
        <time>2020-08-06T08:55:58Z</time>
      </trkpt>
      <trkpt lat="47.91117" lon="-3.20513">
        <ele>47.14</ele>
        <time>2020-08-06T08:55:59Z</time>
      </trkpt>
      <trkpt lat="47.91115" lon="-3.20514">
        <ele>47.06</ele>
        <time>2020-08-06T08:56:00Z</time>
      </trkpt>
      <trkpt lat="47.91111" lon="-3.20518">
        <ele>46.49</ele>
        <time>2020-08-06T08:56:10Z</time>
      </trkpt>
      <trkpt lat="47.91094" lon="-3.20537">
        <ele>46.12</ele>
        <time>2020-08-06T08:56:51Z</time>
      </trkpt>
      <trkpt lat="47.91082" lon="-3.20556">
        <ele>45.41</ele>
        <time>2020-08-06T08:57:03Z</time>
      </trkpt>
      <trkpt lat="47.91069" lon="-3.20579">
        <ele>44.46</ele>
        <time>2020-08-06T08:57:17Z</time>
      </trkpt>
      <trkpt lat="47.91066" lon="-3.20583">
        <ele>44.37</ele>
        <time>2020-08-06T08:57:19Z</time>
      </trkpt>
      <trkpt lat="47.91062" lon="-3.20595">
        <ele>44.28</ele>
        <time>2020-08-06T08:57:25Z</time>
      </trkpt>
      <trkpt lat="47.91062" lon="-3.20598">
        <ele>44.25</ele>
        <time>2020-08-06T08:57:26Z</time>
      </trkpt>
      <trkpt lat="47.91061" lon="-3.206">
        <ele>44.23</ele>
        <time>2020-08-06T08:57:27Z</time>
      </trkpt>
      <trkpt lat="47.9106" lon="-3.20602">
        <ele>44.21</ele>
        <time>2020-08-06T08:57:28Z</time>
      </trkpt>
      <trkpt lat="47.91058" lon="-3.20604">
        <ele>44.18</ele>
        <time>2020-08-06T08:57:29Z</time>
      </trkpt>
      <trkpt lat="47.91052" lon="-3.20623">
        <ele>43.53</ele>
        <time>2020-08-06T08:57:40Z</time>
      </trkpt>
      <trkpt lat="47.91048" lon="-3.20659">
        <ele>43.47</ele>
        <time>2020-08-06T08:58:02Z</time>
      </trkpt>
      <trkpt lat="47.91047" lon="-3.20679">
        <ele>42.97</ele>
        <time>2020-08-06T08:58:16Z</time>
      </trkpt>
      <trkpt lat="47.91044" lon="-3.20695">
        <ele>42.68</ele>
        <time>2020-08-06T08:58:22Z</time>
      </trkpt>
      <trkpt lat="47.91044" lon="-3.207">
        <ele>42.65</ele>
        <time>2020-08-06T08:58:23Z</time>
      </trkpt>
      <trkpt lat="47.9104" lon="-3.2073">
        <ele>42.07</ele>
        <time>2020-08-06T08:58:33Z</time>
      </trkpt>
      <trkpt lat="47.91038" lon="-3.20747">
        <ele>43.14</ele>
        <time>2020-08-06T08:58:39Z</time>
      </trkpt>
      <trkpt lat="47.91038" lon="-3.2076">
        <ele>42.34</ele>
        <time>2020-08-06T08:58:43Z</time>
      </trkpt>
      <trkpt lat="47.91038" lon="-3.20766">
        <ele>41.97</ele>
        <time>2020-08-06T08:58:45Z</time>
      </trkpt>
      <trkpt lat="47.91037" lon="-3.20775">
        <ele>41.5</ele>
        <time>2020-08-06T08:58:49Z</time>
      </trkpt>
      <trkpt lat="47.91036" lon="-3.20785">
        <ele>40.82</ele>
        <time>2020-08-06T08:58:55Z</time>
      </trkpt>
      <trkpt lat="47.91037" lon="-3.2079">
        <ele>40.68</ele>
        <time>2020-08-06T08:58:58Z</time>
      </trkpt>
      <trkpt lat="47.91047" lon="-3.20809">
        <ele>40.42</ele>
        <time>2020-08-06T08:59:10Z</time>
      </trkpt>
      <trkpt lat="47.91053" lon="-3.20824">
        <ele>40.29</ele>
        <time>2020-08-06T08:59:17Z</time>
      </trkpt>
      <trkpt lat="47.91054" lon="-3.20825">
        <ele>40.27</ele>
        <time>2020-08-06T08:59:18Z</time>
      </trkpt>
      <trkpt lat="47.91056" lon="-3.20828">
        <ele>40.24</ele>
        <time>2020-08-06T08:59:21Z</time>
      </trkpt>
      <trkpt lat="47.91065" lon="-3.20846">
        <ele>40.17</ele>
        <time>2020-08-06T08:59:28Z</time>
      </trkpt>
      <trkpt lat="47.91073" lon="-3.20871">
        <ele>40.02</ele>
        <time>2020-08-06T08:59:36Z</time>
      </trkpt>
      <trkpt lat="47.91076" lon="-3.20874">
        <ele>40</ele>
        <time>2020-08-06T08:59:39Z</time>
      </trkpt>
      <trkpt lat="47.91086" lon="-3.20892">
        <ele>40.04</ele>
        <time>2020-08-06T08:59:50Z</time>
      </trkpt>
      <trkpt lat="47.91093" lon="-3.20904">
        <ele>40.15</ele>
        <time>2020-08-06T08:59:55Z</time>
      </trkpt>
      <trkpt lat="47.911" lon="-3.20914">
        <ele>39.96</ele>
        <time>2020-08-06T09:00:04Z</time>
      </trkpt>
      <trkpt lat="47.91101" lon="-3.20918">
        <ele>39.91</ele>
        <time>2020-08-06T09:00:07Z</time>
      </trkpt>
      <trkpt lat="47.91103" lon="-3.2092">
        <ele>39.95</ele>
        <time>2020-08-06T09:00:09Z</time>
      </trkpt>
      <trkpt lat="47.91108" lon="-3.20925">
        <ele>40.02</ele>
        <time>2020-08-06T09:00:12Z</time>
      </trkpt>
      <trkpt lat="47.91113" lon="-3.2093">
        <ele>40.04</ele>
        <time>2020-08-06T09:00:15Z</time>
      </trkpt>
      <trkpt lat="47.91118" lon="-3.2094">
        <ele>40.2</ele>
        <time>2020-08-06T09:00:20Z</time>
      </trkpt>
      <trkpt lat="47.91122" lon="-3.20945">
        <ele>40.27</ele>
        <time>2020-08-06T09:00:23Z</time>
      </trkpt>
      <trkpt lat="47.91129" lon="-3.20953">
        <ele>40.38</ele>
        <time>2020-08-06T09:00:27Z</time>
      </trkpt>
      <trkpt lat="47.91133" lon="-3.2096">
        <ele>40.56</ele>
        <time>2020-08-06T09:00:31Z</time>
      </trkpt>
      <trkpt lat="47.91138" lon="-3.20963">
        <ele>40.78</ele>
        <time>2020-08-06T09:00:35Z</time>
      </trkpt>
      <trkpt lat="47.91148" lon="-3.20979">
        <ele>41.05</ele>
        <time>2020-08-06T09:00:43Z</time>
      </trkpt>
      <trkpt lat="47.9115" lon="-3.20981">
        <ele>41.16</ele>
        <time>2020-08-06T09:00:45Z</time>
      </trkpt>
      <trkpt lat="47.91158" lon="-3.20989">
        <ele>41.36</ele>
        <time>2020-08-06T09:00:49Z</time>
      </trkpt>
      <trkpt lat="47.91164" lon="-3.21017">
        <ele>41.18</ele>
        <time>2020-08-06T09:01:02Z</time>
      </trkpt>
      <trkpt lat="47.91174" lon="-3.21051">
        <ele>40.95</ele>
        <time>2020-08-06T09:01:12Z</time>
      </trkpt>
      <trkpt lat="47.91159" lon="-3.21101">
        <ele>40.74</ele>
        <time>2020-08-06T09:01:20Z</time>
      </trkpt>
      <trkpt lat="47.91165" lon="-3.21111">
        <ele>40.82</ele>
        <time>2020-08-06T09:01:25Z</time>
      </trkpt>
      <trkpt lat="47.91167" lon="-3.21114">
        <ele>40.83</ele>
        <time>2020-08-06T09:01:27Z</time>
      </trkpt>
      <trkpt lat="47.91171" lon="-3.21131">
        <ele>40.69</ele>
        <time>2020-08-06T09:01:34Z</time>
      </trkpt>
      <trkpt lat="47.91171" lon="-3.21146">
        <ele>40.42</ele>
        <time>2020-08-06T09:01:39Z</time>
      </trkpt>
      <trkpt lat="47.91174" lon="-3.21171">
        <ele>40.11</ele>
        <time>2020-08-06T09:01:50Z</time>
      </trkpt>
      <trkpt lat="47.91178" lon="-3.21174">
        <ele>40.08</ele>
        <time>2020-08-06T09:01:52Z</time>
      </trkpt>
      <trkpt lat="47.91186" lon="-3.21196">
        <ele>40.28</ele>
        <time>2020-08-06T09:02:03Z</time>
      </trkpt>
      <trkpt lat="47.91186" lon="-3.21199">
        <ele>40.34</ele>
        <time>2020-08-06T09:02:04Z</time>
      </trkpt>
      <trkpt lat="47.91189" lon="-3.21205">
        <ele>40.34</ele>
        <time>2020-08-06T09:02:07Z</time>
      </trkpt>
      <trkpt lat="47.91196" lon="-3.21221">
        <ele>40.42</ele>
        <time>2020-08-06T09:02:18Z</time>
      </trkpt>
      <trkpt lat="47.91196" lon="-3.21224">
        <ele>40.44</ele>
        <time>2020-08-06T09:02:19Z</time>
      </trkpt>
      <trkpt lat="47.91203" lon="-3.21236">
        <ele>40.59</ele>
        <time>2020-08-06T09:02:26Z</time>
      </trkpt>
      <trkpt lat="47.91204" lon="-3.21261">
        <ele>40.83</ele>
        <time>2020-08-06T09:02:34Z</time>
      </trkpt>
      <trkpt lat="47.91201" lon="-3.21307">
        <ele>40.62</ele>
        <time>2020-08-06T09:02:46Z</time>
      </trkpt>
      <trkpt lat="47.91206" lon="-3.21316">
        <ele>40.43</ele>
        <time>2020-08-06T09:02:50Z</time>
      </trkpt>
      <trkpt lat="47.91208" lon="-3.21365">
        <ele>40</ele>
        <time>2020-08-06T09:03:09Z</time>
      </trkpt>
      <trkpt lat="47.91214" lon="-3.21412">
        <ele>40.03</ele>
        <time>2020-08-06T09:03:29Z</time>
      </trkpt>
      <trkpt lat="47.91217" lon="-3.21415">
        <ele>39.92</ele>
        <time>2020-08-06T09:03:31Z</time>
      </trkpt>
      <trkpt lat="47.91225" lon="-3.21422">
        <ele>38.75</ele>
        <time>2020-08-06T09:03:43Z</time>
      </trkpt>
      <trkpt lat="47.91258" lon="-3.21379">
        <ele>38.48</ele>
        <time>2020-08-06T09:04:15Z</time>
      </trkpt>
      <trkpt lat="47.91262" lon="-3.21371">
        <ele>38.74</ele>
        <time>2020-08-06T09:04:19Z</time>
      </trkpt>
      <trkpt lat="47.91265" lon="-3.21359">
        <ele>39.2</ele>
        <time>2020-08-06T09:04:29Z</time>
      </trkpt>
      <trkpt lat="47.91268" lon="-3.21342">
        <ele>39.37</ele>
        <time>2020-08-06T09:04:42Z</time>
      </trkpt>
      <trkpt lat="47.91271" lon="-3.21341">
        <ele>39.43</ele>
        <time>2020-08-06T09:04:53Z</time>
      </trkpt>
      <trkpt lat="47.91282" lon="-3.21347">
        <ele>37.64</ele>
        <time>2020-08-06T09:05:59Z</time>
      </trkpt>
      <trkpt lat="47.91289" lon="-3.21345">
        <ele>37.66</ele>
        <time>2020-08-06T09:06:21Z</time>
      </trkpt>
      <trkpt lat="47.91304" lon="-3.21357">
        <ele>37.21</ele>
        <time>2020-08-06T09:07:01Z</time>
      </trkpt>
      <trkpt lat="47.91306" lon="-3.21358">
        <ele>37.31</ele>
        <time>2020-08-06T09:07:03Z</time>
      </trkpt>
      <trkpt lat="47.91315" lon="-3.21364">
        <ele>37.94</ele>
        <time>2020-08-06T09:07:25Z</time>
      </trkpt>
      <trkpt lat="47.91296" lon="-3.21412">
        <ele>42.07</ele>
        <time>2020-08-06T09:14:00Z</time>
      </trkpt>
      <trkpt lat="47.91303" lon="-3.21427">
        <ele>42.65</ele>
        <time>2020-08-06T09:14:09Z</time>
      </trkpt>
      <trkpt lat="47.91305" lon="-3.21436">
        <ele>42.73</ele>
        <time>2020-08-06T09:14:15Z</time>
      </trkpt>
      <trkpt lat="47.91326" lon="-3.2159">
        <ele>48.05</ele>
        <time>2020-08-06T09:15:56Z</time>
      </trkpt>
      <trkpt lat="47.91334" lon="-3.21602">
        <ele>48.93</ele>
        <time>2020-08-06T09:16:04Z</time>
      </trkpt>
      <trkpt lat="47.91354" lon="-3.2165">
        <ele>51.8</ele>
        <time>2020-08-06T09:16:37Z</time>
      </trkpt>
      <trkpt lat="47.91365" lon="-3.21673">
        <ele>51.98</ele>
        <time>2020-08-06T09:16:48Z</time>
      </trkpt>
      <trkpt lat="47.91365" lon="-3.21674">
        <ele>52.04</ele>
        <time>2020-08-06T09:16:50Z</time>
      </trkpt>
      <trkpt lat="47.91373" lon="-3.21691">
        <ele>52.04</ele>
        <time>2020-08-06T09:16:55Z</time>
      </trkpt>
      <trkpt lat="47.91373" lon="-3.21696">
        <ele>52.19</ele>
        <time>2020-08-06T09:16:56Z</time>
      </trkpt>
      <trkpt lat="47.91373" lon="-3.21732">
        <ele>52.91</ele>
        <time>2020-08-06T09:17:01Z</time>
      </trkpt>
      <trkpt lat="47.91373" lon="-3.21739">
        <ele>53.08</ele>
        <time>2020-08-06T09:17:02Z</time>
      </trkpt>
      <trkpt lat="47.91374" lon="-3.21745">
        <ele>53.25</ele>
        <time>2020-08-06T09:17:03Z</time>
      </trkpt>
      <trkpt lat="47.91375" lon="-3.21749">
        <ele>53.46</ele>
        <time>2020-08-06T09:17:04Z</time>
      </trkpt>
      <trkpt lat="47.91376" lon="-3.21754">
        <ele>53.77</ele>
        <time>2020-08-06T09:17:05Z</time>
      </trkpt>
      <trkpt lat="47.9138" lon="-3.21778">
        <ele>57.05</ele>
        <time>2020-08-06T09:17:12Z</time>
      </trkpt>
      <trkpt lat="47.91381" lon="-3.21797">
        <ele>57.56</ele>
        <time>2020-08-06T09:17:21Z</time>
      </trkpt>
      <trkpt lat="47.91382" lon="-3.21801">
        <ele>57.83</ele>
        <time>2020-08-06T09:17:22Z</time>
      </trkpt>
      <trkpt lat="47.91383" lon="-3.21806">
        <ele>57.96</ele>
        <time>2020-08-06T09:17:23Z</time>
      </trkpt>
      <trkpt lat="47.91384" lon="-3.21811">
        <ele>58.11</ele>
        <time>2020-08-06T09:17:24Z</time>
      </trkpt>
      <trkpt lat="47.91382" lon="-3.21818">
        <ele>58.3</ele>
        <time>2020-08-06T09:17:25Z</time>
      </trkpt>
      <trkpt lat="47.91383" lon="-3.21822">
        <ele>58.56</ele>
        <time>2020-08-06T09:17:26Z</time>
      </trkpt>
      <trkpt lat="47.91384" lon="-3.21826">
        <ele>58.9</ele>
        <time>2020-08-06T09:17:27Z</time>
      </trkpt>
      <trkpt lat="47.91384" lon="-3.21831">
        <ele>59.31</ele>
        <time>2020-08-06T09:17:28Z</time>
      </trkpt>
      <trkpt lat="47.91383" lon="-3.21836">
        <ele>59.77</ele>
        <time>2020-08-06T09:17:29Z</time>
      </trkpt>
      <trkpt lat="47.91381" lon="-3.21843">
        <ele>60.21</ele>
        <time>2020-08-06T09:17:30Z</time>
      </trkpt>
      <trkpt lat="47.91382" lon="-3.2185">
        <ele>60.65</ele>
        <time>2020-08-06T09:17:31Z</time>
      </trkpt>
      <trkpt lat="47.91383" lon="-3.21856">
        <ele>61.11</ele>
        <time>2020-08-06T09:17:32Z</time>
      </trkpt>
      <trkpt lat="47.91381" lon="-3.21887">
        <ele>63.15</ele>
        <time>2020-08-06T09:17:36Z</time>
      </trkpt>
      <trkpt lat="47.91381" lon="-3.21949">
        <ele>66.18</ele>
        <time>2020-08-06T09:17:43Z</time>
      </trkpt>
      <trkpt lat="47.9138" lon="-3.21985">
        <ele>66.47</ele>
        <time>2020-08-06T09:17:49Z</time>
      </trkpt>
      <trkpt lat="47.91379" lon="-3.21993">
        <ele>66.4</ele>
        <time>2020-08-06T09:17:50Z</time>
      </trkpt>
      <trkpt lat="47.9138" lon="-3.22001">
        <ele>66.35</ele>
        <time>2020-08-06T09:17:51Z</time>
      </trkpt>
      <trkpt lat="47.91382" lon="-3.22028">
        <ele>66.49</ele>
        <time>2020-08-06T09:17:54Z</time>
      </trkpt>
      <trkpt lat="47.91385" lon="-3.22045">
        <ele>66.69</ele>
        <time>2020-08-06T09:17:56Z</time>
      </trkpt>
      <trkpt lat="47.91387" lon="-3.22053">
        <ele>66.81</ele>
        <time>2020-08-06T09:17:57Z</time>
      </trkpt>
      <trkpt lat="47.91391" lon="-3.2207">
        <ele>67.19</ele>
        <time>2020-08-06T09:17:59Z</time>
      </trkpt>
      <trkpt lat="47.91392" lon="-3.22078">
        <ele>67.47</ele>
        <time>2020-08-06T09:18:00Z</time>
      </trkpt>
      <trkpt lat="47.91395" lon="-3.22085">
        <ele>67.81</ele>
        <time>2020-08-06T09:18:01Z</time>
      </trkpt>
      <trkpt lat="47.91399" lon="-3.221">
        <ele>68.52</ele>
        <time>2020-08-06T09:18:03Z</time>
      </trkpt>
      <trkpt lat="47.914" lon="-3.22111">
        <ele>68.82</ele>
        <time>2020-08-06T09:18:04Z</time>
      </trkpt>
      <trkpt lat="47.91408" lon="-3.22135">
        <ele>69.62</ele>
        <time>2020-08-06T09:18:07Z</time>
      </trkpt>
      <trkpt lat="47.9142" lon="-3.2217">
        <ele>70.92</ele>
        <time>2020-08-06T09:18:12Z</time>
      </trkpt>
      <trkpt lat="47.91422" lon="-3.22178">
        <ele>71.33</ele>
        <time>2020-08-06T09:18:13Z</time>
      </trkpt>
      <trkpt lat="47.91429" lon="-3.22202">
        <ele>72.03</ele>
        <time>2020-08-06T09:18:16Z</time>
      </trkpt>
      <trkpt lat="47.91432" lon="-3.22211">
        <ele>72.28</ele>
        <time>2020-08-06T09:18:17Z</time>
      </trkpt>
      <trkpt lat="47.91437" lon="-3.22236">
        <ele>73.22</ele>
        <time>2020-08-06T09:18:20Z</time>
      </trkpt>
      <trkpt lat="47.91439" lon="-3.22244">
        <ele>73.51</ele>
        <time>2020-08-06T09:18:21Z</time>
      </trkpt>
      <trkpt lat="47.91441" lon="-3.2225">
        <ele>73.81</ele>
        <time>2020-08-06T09:18:22Z</time>
      </trkpt>
      <trkpt lat="47.91445" lon="-3.22268">
        <ele>74.49</ele>
        <time>2020-08-06T09:18:24Z</time>
      </trkpt>
      <trkpt lat="47.91447" lon="-3.22277">
        <ele>74.82</ele>
        <time>2020-08-06T09:18:25Z</time>
      </trkpt>
      <trkpt lat="47.91454" lon="-3.22313">
        <ele>75.98</ele>
        <time>2020-08-06T09:18:29Z</time>
      </trkpt>
      <trkpt lat="47.91456" lon="-3.22322">
        <ele>76.27</ele>
        <time>2020-08-06T09:18:30Z</time>
      </trkpt>
      <trkpt lat="47.9146" lon="-3.2234">
        <ele>76.91</ele>
        <time>2020-08-06T09:18:32Z</time>
      </trkpt>
      <trkpt lat="47.91462" lon="-3.22347">
        <ele>77.19</ele>
        <time>2020-08-06T09:18:33Z</time>
      </trkpt>
      <trkpt lat="47.91463" lon="-3.22356">
        <ele>77.45</ele>
        <time>2020-08-06T09:18:34Z</time>
      </trkpt>
      <trkpt lat="47.91467" lon="-3.22382">
        <ele>78.32</ele>
        <time>2020-08-06T09:18:37Z</time>
      </trkpt>
      <trkpt lat="47.91469" lon="-3.2239">
        <ele>78.66</ele>
        <time>2020-08-06T09:18:38Z</time>
      </trkpt>
      <trkpt lat="47.9147" lon="-3.22398">
        <ele>78.99</ele>
        <time>2020-08-06T09:18:39Z</time>
      </trkpt>
      <trkpt lat="47.91474" lon="-3.22407">
        <ele>79.27</ele>
        <time>2020-08-06T09:18:40Z</time>
      </trkpt>
      <trkpt lat="47.91479" lon="-3.22416">
        <ele>79.52</ele>
        <time>2020-08-06T09:18:41Z</time>
      </trkpt>
      <trkpt lat="47.91483" lon="-3.22424">
        <ele>79.81</ele>
        <time>2020-08-06T09:18:42Z</time>
      </trkpt>
      <trkpt lat="47.91489" lon="-3.2244">
        <ele>80.92</ele>
        <time>2020-08-06T09:18:44Z</time>
      </trkpt>
      <trkpt lat="47.91491" lon="-3.22448">
        <ele>81.34</ele>
        <time>2020-08-06T09:18:45Z</time>
      </trkpt>
      <trkpt lat="47.91494" lon="-3.22455">
        <ele>81.81</ele>
        <time>2020-08-06T09:18:46Z</time>
      </trkpt>
      <trkpt lat="47.91496" lon="-3.22462">
        <ele>82.27</ele>
        <time>2020-08-06T09:18:47Z</time>
      </trkpt>
      <trkpt lat="47.91499" lon="-3.22468">
        <ele>82.73</ele>
        <time>2020-08-06T09:18:48Z</time>
      </trkpt>
      <trkpt lat="47.91503" lon="-3.22476">
        <ele>83.22</ele>
        <time>2020-08-06T09:18:49Z</time>
      </trkpt>
      <trkpt lat="47.91511" lon="-3.22497">
        <ele>84.76</ele>
        <time>2020-08-06T09:18:52Z</time>
      </trkpt>
      <trkpt lat="47.91513" lon="-3.22514">
        <ele>86.44</ele>
        <time>2020-08-06T09:18:55Z</time>
      </trkpt>
      <trkpt lat="47.91502" lon="-3.22543">
        <ele>90.52</ele>
        <time>2020-08-06T09:19:02Z</time>
      </trkpt>
      <trkpt lat="47.9149" lon="-3.22562">
        <ele>93.58</ele>
        <time>2020-08-06T09:19:07Z</time>
      </trkpt>
      <trkpt lat="47.91479" lon="-3.22593">
        <ele>97.11</ele>
        <time>2020-08-06T09:19:13Z</time>
      </trkpt>
      <trkpt lat="47.91469" lon="-3.22629">
        <ele>100.21</ele>
        <time>2020-08-06T09:19:19Z</time>
      </trkpt>
      <trkpt lat="47.91449" lon="-3.22666">
        <ele>102.77</ele>
        <time>2020-08-06T09:19:25Z</time>
      </trkpt>
      <trkpt lat="47.91425" lon="-3.22721">
        <ele>106.51</ele>
        <time>2020-08-06T09:19:33Z</time>
      </trkpt>
      <trkpt lat="47.91409" lon="-3.22751">
        <ele>109.71</ele>
        <time>2020-08-06T09:19:40Z</time>
      </trkpt>
      <trkpt lat="47.91385" lon="-3.22786">
        <ele>112.84</ele>
        <time>2020-08-06T09:19:50Z</time>
      </trkpt>
      <trkpt lat="47.91358" lon="-3.22823">
        <ele>115.37</ele>
        <time>2020-08-06T09:20:01Z</time>
      </trkpt>
      <trkpt lat="47.91333" lon="-3.22879">
        <ele>117.57</ele>
        <time>2020-08-06T09:20:11Z</time>
      </trkpt>
      <trkpt lat="47.9132" lon="-3.22927">
        <ele>119.18</ele>
        <time>2020-08-06T09:20:20Z</time>
      </trkpt>
      <trkpt lat="47.91318" lon="-3.22943">
        <ele>119.49</ele>
        <time>2020-08-06T09:20:23Z</time>
      </trkpt>
      <trkpt lat="47.9132" lon="-3.22961">
        <ele>120.18</ele>
        <time>2020-08-06T09:20:27Z</time>
      </trkpt>
      <trkpt lat="47.91323" lon="-3.23018">
        <ele>123.23</ele>
        <time>2020-08-06T09:20:42Z</time>
      </trkpt>
      <trkpt lat="47.91331" lon="-3.23042">
        <ele>124.66</ele>
        <time>2020-08-06T09:20:53Z</time>
      </trkpt>
      <trkpt lat="47.91334" lon="-3.23052">
        <ele>125.34</ele>
        <time>2020-08-06T09:20:58Z</time>
      </trkpt>
      <trkpt lat="47.91335" lon="-3.23093">
        <ele>126.39</ele>
        <time>2020-08-06T09:21:14Z</time>
      </trkpt>
      <trkpt lat="47.91338" lon="-3.23127">
        <ele>127.59</ele>
        <time>2020-08-06T09:21:29Z</time>
      </trkpt>
      <trkpt lat="47.91338" lon="-3.23165">
        <ele>128.31</ele>
        <time>2020-08-06T09:21:41Z</time>
      </trkpt>
      <trkpt lat="47.9134" lon="-3.23198">
        <ele>129.27</ele>
        <time>2020-08-06T09:21:55Z</time>
      </trkpt>
      <trkpt lat="47.91342" lon="-3.23237">
        <ele>130.61</ele>
        <time>2020-08-06T09:22:08Z</time>
      </trkpt>
      <trkpt lat="47.91345" lon="-3.23273">
        <ele>131.9</ele>
        <time>2020-08-06T09:22:22Z</time>
      </trkpt>
      <trkpt lat="47.91346" lon="-3.23303">
        <ele>132.62</ele>
        <time>2020-08-06T09:22:35Z</time>
      </trkpt>
      <trkpt lat="47.91349" lon="-3.23345">
        <ele>133.87</ele>
        <time>2020-08-06T09:22:54Z</time>
      </trkpt>
      <trkpt lat="47.91351" lon="-3.23381">
        <ele>134.93</ele>
        <time>2020-08-06T09:23:09Z</time>
      </trkpt>
      <trkpt lat="47.91352" lon="-3.23407">
        <ele>135.73</ele>
        <time>2020-08-06T09:23:18Z</time>
      </trkpt>
      <trkpt lat="47.91352" lon="-3.2341">
        <ele>135.82</ele>
        <time>2020-08-06T09:23:19Z</time>
      </trkpt>
      <trkpt lat="47.9135" lon="-3.23412">
        <ele>135.86</ele>
        <time>2020-08-06T09:23:20Z</time>
      </trkpt>
      <trkpt lat="47.91349" lon="-3.23413">
        <ele>135.93</ele>
        <time>2020-08-06T09:23:21Z</time>
      </trkpt>
      <trkpt lat="47.91348" lon="-3.23414">
        <ele>136.06</ele>
        <time>2020-08-06T09:23:22Z</time>
      </trkpt>
      <trkpt lat="47.91343" lon="-3.23414">
        <ele>136.66</ele>
        <time>2020-08-06T09:23:26Z</time>
      </trkpt>
      <trkpt lat="47.91316" lon="-3.23402">
        <ele>138.03</ele>
        <time>2020-08-06T09:23:42Z</time>
      </trkpt>
      <trkpt lat="47.91296" lon="-3.23391">
        <ele>138.99</ele>
        <time>2020-08-06T09:23:55Z</time>
      </trkpt>
      <trkpt lat="47.91275" lon="-3.23381">
        <ele>139.33</ele>
        <time>2020-08-06T09:24:06Z</time>
      </trkpt>
      <trkpt lat="47.91258" lon="-3.23377">
        <ele>139.98</ele>
        <time>2020-08-06T09:24:19Z</time>
      </trkpt>
      <trkpt lat="47.91245" lon="-3.23381">
        <ele>140.17</ele>
        <time>2020-08-06T09:24:34Z</time>
      </trkpt>
      <trkpt lat="47.91238" lon="-3.23384">
        <ele>140.75</ele>
        <time>2020-08-06T09:24:39Z</time>
      </trkpt>
      <trkpt lat="47.91235" lon="-3.23383">
        <ele>141.03</ele>
        <time>2020-08-06T09:24:42Z</time>
      </trkpt>
      <trkpt lat="47.91232" lon="-3.23385">
        <ele>141.32</ele>
        <time>2020-08-06T09:24:45Z</time>
      </trkpt>
      <trkpt lat="47.9122" lon="-3.23393">
        <ele>141.75</ele>
        <time>2020-08-06T09:24:53Z</time>
      </trkpt>
      <trkpt lat="47.91208" lon="-3.234">
        <ele>143.21</ele>
        <time>2020-08-06T09:25:07Z</time>
      </trkpt>
      <trkpt lat="47.91201" lon="-3.23407">
        <ele>143.68</ele>
        <time>2020-08-06T09:25:17Z</time>
      </trkpt>
      <trkpt lat="47.91185" lon="-3.23425">
        <ele>143.9</ele>
        <time>2020-08-06T09:25:37Z</time>
      </trkpt>
      <trkpt lat="47.91181" lon="-3.23423">
        <ele>143.91</ele>
        <time>2020-08-06T09:25:41Z</time>
      </trkpt>
      <trkpt lat="47.91172" lon="-3.23416">
        <ele>143.78</ele>
        <time>2020-08-06T09:25:50Z</time>
      </trkpt>
      <trkpt lat="47.91147" lon="-3.23422">
        <ele>144.49</ele>
        <time>2020-08-06T09:26:02Z</time>
      </trkpt>
      <trkpt lat="47.91141" lon="-3.23421">
        <ele>144.71</ele>
        <time>2020-08-06T09:26:05Z</time>
      </trkpt>
      <trkpt lat="47.91131" lon="-3.2342">
        <ele>144.83</ele>
        <time>2020-08-06T09:26:12Z</time>
      </trkpt>
      <trkpt lat="47.91096" lon="-3.23435">
        <ele>145.72</ele>
        <time>2020-08-06T09:26:36Z</time>
      </trkpt>
      <trkpt lat="47.91089" lon="-3.23443">
        <ele>145.8</ele>
        <time>2020-08-06T09:26:42Z</time>
      </trkpt>
      <trkpt lat="47.91086" lon="-3.23454">
        <ele>145.75</ele>
        <time>2020-08-06T09:26:46Z</time>
      </trkpt>
      <trkpt lat="47.9108" lon="-3.23467">
        <ele>145.75</ele>
        <time>2020-08-06T09:26:51Z</time>
      </trkpt>
      <trkpt lat="47.91069" lon="-3.23484">
        <ele>145.86</ele>
        <time>2020-08-06T09:26:58Z</time>
      </trkpt>
      <trkpt lat="47.91057" lon="-3.23494">
        <ele>146.04</ele>
        <time>2020-08-06T09:27:09Z</time>
      </trkpt>
      <trkpt lat="47.91053" lon="-3.23498">
        <ele>146.04</ele>
        <time>2020-08-06T09:27:12Z</time>
      </trkpt>
      <trkpt lat="47.9105" lon="-3.23502">
        <ele>146.04</ele>
        <time>2020-08-06T09:27:15Z</time>
      </trkpt>
      <trkpt lat="47.91039" lon="-3.2353">
        <ele>146.23</ele>
        <time>2020-08-06T09:27:25Z</time>
      </trkpt>
      <trkpt lat="47.91038" lon="-3.23544">
        <ele>146.23</ele>
        <time>2020-08-06T09:27:33Z</time>
      </trkpt>
      <trkpt lat="47.911" lon="-3.23716">
        <ele>146.22</ele>
        <time>2020-08-06T09:29:43Z</time>
      </trkpt>
      <trkpt lat="47.91099" lon="-3.23715">
        <ele>146.23</ele>
        <time>2020-08-06T09:29:44Z</time>
      </trkpt>
      <trkpt lat="47.91096" lon="-3.23714">
        <ele>146.23</ele>
        <time>2020-08-06T09:29:45Z</time>
      </trkpt>
      <trkpt lat="47.91094" lon="-3.23715">
        <ele>146.23</ele>
        <time>2020-08-06T09:29:46Z</time>
      </trkpt>
      <trkpt lat="47.91091" lon="-3.23716">
        <ele>146.23</ele>
        <time>2020-08-06T09:29:47Z</time>
      </trkpt>
      <trkpt lat="47.91089" lon="-3.23715">
        <ele>146.23</ele>
        <time>2020-08-06T09:29:48Z</time>
      </trkpt>
      <trkpt lat="47.9107" lon="-3.23714">
        <ele>146.22</ele>
        <time>2020-08-06T09:29:58Z</time>
      </trkpt>
      <trkpt lat="47.91049" lon="-3.23708">
        <ele>146.03</ele>
        <time>2020-08-06T09:30:11Z</time>
      </trkpt>
      <trkpt lat="47.91026" lon="-3.23696">
        <ele>145.96</ele>
        <time>2020-08-06T09:30:24Z</time>
      </trkpt>
      <trkpt lat="47.91024" lon="-3.23693">
        <ele>145.87</ele>
        <time>2020-08-06T09:30:27Z</time>
      </trkpt>
      <trkpt lat="47.91016" lon="-3.23715">
        <ele>145.85</ele>
        <time>2020-08-06T09:30:42Z</time>
      </trkpt>
      <trkpt lat="47.91015" lon="-3.23719">
        <ele>145.75</ele>
        <time>2020-08-06T09:30:45Z</time>
      </trkpt>
      <trkpt lat="47.91016" lon="-3.23723">
        <ele>145.57</ele>
        <time>2020-08-06T09:30:49Z</time>
      </trkpt>
      <trkpt lat="47.91016" lon="-3.23726">
        <ele>145.57</ele>
        <time>2020-08-06T09:30:51Z</time>
      </trkpt>
      <trkpt lat="47.91019" lon="-3.23731">
        <ele>146.14</ele>
        <time>2020-08-06T09:30:56Z</time>
      </trkpt>
      <trkpt lat="47.91022" lon="-3.23771">
        <ele>146.26</ele>
        <time>2020-08-06T09:31:11Z</time>
      </trkpt>
      <trkpt lat="47.91023" lon="-3.23789">
        <ele>146.14</ele>
        <time>2020-08-06T09:31:18Z</time>
      </trkpt>
      <trkpt lat="47.91027" lon="-3.23799">
        <ele>146.07</ele>
        <time>2020-08-06T09:31:23Z</time>
      </trkpt>
      <trkpt lat="47.91034" lon="-3.23828">
        <ele>145.65</ele>
        <time>2020-08-06T09:31:39Z</time>
      </trkpt>
      <trkpt lat="47.91028" lon="-3.23839">
        <ele>145.37</ele>
        <time>2020-08-06T09:31:49Z</time>
      </trkpt>
      <trkpt lat="47.91028" lon="-3.23845">
        <ele>145.11</ele>
        <time>2020-08-06T09:31:54Z</time>
      </trkpt>
      <trkpt lat="47.91029" lon="-3.23891">
        <ele>144.86</ele>
        <time>2020-08-06T09:32:31Z</time>
      </trkpt>
      <trkpt lat="47.91033" lon="-3.23902">
        <ele>144.91</ele>
        <time>2020-08-06T09:32:37Z</time>
      </trkpt>
      <trkpt lat="47.91033" lon="-3.23917">
        <ele>144.93</ele>
        <time>2020-08-06T09:32:42Z</time>
      </trkpt>
      <trkpt lat="47.91035" lon="-3.23926">
        <ele>144.87</ele>
        <time>2020-08-06T09:32:48Z</time>
      </trkpt>
      <trkpt lat="47.91035" lon="-3.23933">
        <ele>144.89</ele>
        <time>2020-08-06T09:32:51Z</time>
      </trkpt>
      <trkpt lat="47.91046" lon="-3.23965">
        <ele>144.68</ele>
        <time>2020-08-06T09:33:04Z</time>
      </trkpt>
      <trkpt lat="47.91047" lon="-3.23969">
        <ele>144.68</ele>
        <time>2020-08-06T09:33:07Z</time>
      </trkpt>
      <trkpt lat="47.9107" lon="-3.24001">
        <ele>143.99</ele>
        <time>2020-08-06T09:33:25Z</time>
      </trkpt>
      <trkpt lat="47.91085" lon="-3.24022">
        <ele>143.69</ele>
        <time>2020-08-06T09:33:36Z</time>
      </trkpt>
      <trkpt lat="47.91086" lon="-3.24025">
        <ele>143.54</ele>
        <time>2020-08-06T09:33:38Z</time>
      </trkpt>
      <trkpt lat="47.91091" lon="-3.24038">
        <ele>143.33</ele>
        <time>2020-08-06T09:33:43Z</time>
      </trkpt>
      <trkpt lat="47.91094" lon="-3.24042">
        <ele>143.33</ele>
        <time>2020-08-06T09:33:46Z</time>
      </trkpt>
      <trkpt lat="47.911" lon="-3.24047">
        <ele>143.1</ele>
        <time>2020-08-06T09:33:50Z</time>
      </trkpt>
      <trkpt lat="47.91123" lon="-3.24065">
        <ele>142.46</ele>
        <time>2020-08-06T09:34:02Z</time>
      </trkpt>
      <trkpt lat="47.91134" lon="-3.24078">
        <ele>141.92</ele>
        <time>2020-08-06T09:34:11Z</time>
      </trkpt>
      <trkpt lat="47.91142" lon="-3.24099">
        <ele>141.25</ele>
        <time>2020-08-06T09:34:23Z</time>
      </trkpt>
      <trkpt lat="47.91142" lon="-3.241">
        <ele>141.12</ele>
        <time>2020-08-06T09:34:24Z</time>
      </trkpt>
      <trkpt lat="47.91144" lon="-3.24125">
        <ele>139.81</ele>
        <time>2020-08-06T09:34:34Z</time>
      </trkpt>
      <trkpt lat="47.91145" lon="-3.24144">
        <ele>137.89</ele>
        <time>2020-08-06T09:34:45Z</time>
      </trkpt>
      <trkpt lat="47.91144" lon="-3.24148">
        <ele>137.79</ele>
        <time>2020-08-06T09:34:46Z</time>
      </trkpt>
      <trkpt lat="47.91142" lon="-3.24161">
        <ele>137.3</ele>
        <time>2020-08-06T09:34:50Z</time>
      </trkpt>
      <trkpt lat="47.91135" lon="-3.2419">
        <ele>137.54</ele>
        <time>2020-08-06T09:34:58Z</time>
      </trkpt>
      <trkpt lat="47.91122" lon="-3.24236">
        <ele>139.63</ele>
        <time>2020-08-06T09:35:07Z</time>
      </trkpt>
      <trkpt lat="47.91122" lon="-3.24238">
        <ele>139.92</ele>
        <time>2020-08-06T09:35:08Z</time>
      </trkpt>
      <trkpt lat="47.91121" lon="-3.24241">
        <ele>140.21</ele>
        <time>2020-08-06T09:35:09Z</time>
      </trkpt>
      <trkpt lat="47.9112" lon="-3.24248">
        <ele>140.48</ele>
        <time>2020-08-06T09:35:10Z</time>
      </trkpt>
      <trkpt lat="47.91119" lon="-3.24253">
        <ele>140.73</ele>
        <time>2020-08-06T09:35:11Z</time>
      </trkpt>
      <trkpt lat="47.91118" lon="-3.24261">
        <ele>140.97</ele>
        <time>2020-08-06T09:35:12Z</time>
      </trkpt>
      <trkpt lat="47.91117" lon="-3.24265">
        <ele>141.24</ele>
        <time>2020-08-06T09:35:13Z</time>
      </trkpt>
      <trkpt lat="47.91114" lon="-3.24302">
        <ele>143.2</ele>
        <time>2020-08-06T09:35:23Z</time>
      </trkpt>
      <trkpt lat="47.91115" lon="-3.24307">
        <ele>143.29</ele>
        <time>2020-08-06T09:35:24Z</time>
      </trkpt>
      <trkpt lat="47.91116" lon="-3.24311">
        <ele>143.38</ele>
        <time>2020-08-06T09:35:25Z</time>
      </trkpt>
      <trkpt lat="47.91116" lon="-3.24315">
        <ele>143.45</ele>
        <time>2020-08-06T09:35:26Z</time>
      </trkpt>
      <trkpt lat="47.91116" lon="-3.24322">
        <ele>143.51</ele>
        <time>2020-08-06T09:35:27Z</time>
      </trkpt>
      <trkpt lat="47.91116" lon="-3.24331">
        <ele>143.7</ele>
        <time>2020-08-06T09:35:28Z</time>
      </trkpt>
      <trkpt lat="47.91122" lon="-3.244">
        <ele>144.27</ele>
        <time>2020-08-06T09:35:38Z</time>
      </trkpt>
      <trkpt lat="47.9112" lon="-3.24448">
        <ele>144.73</ele>
        <time>2020-08-06T09:35:47Z</time>
      </trkpt>
      <trkpt lat="47.91118" lon="-3.2445">
        <ele>144.82</ele>
        <time>2020-08-06T09:35:48Z</time>
      </trkpt>
      <trkpt lat="47.91116" lon="-3.24452">
        <ele>144.94</ele>
        <time>2020-08-06T09:35:49Z</time>
      </trkpt>
      <trkpt lat="47.91112" lon="-3.24454">
        <ele>144.94</ele>
        <time>2020-08-06T09:35:51Z</time>
      </trkpt>
      <trkpt lat="47.91088" lon="-3.24478">
        <ele>144.67</ele>
        <time>2020-08-06T09:36:00Z</time>
      </trkpt>
      <trkpt lat="47.91082" lon="-3.2452">
        <ele>144.14</ele>
        <time>2020-08-06T09:36:10Z</time>
      </trkpt>
      <trkpt lat="47.91072" lon="-3.24532">
        <ele>143.96</ele>
        <time>2020-08-06T09:36:15Z</time>
      </trkpt>
      <trkpt lat="47.9104" lon="-3.24557">
        <ele>142.47</ele>
        <time>2020-08-06T09:36:27Z</time>
      </trkpt>
      <trkpt lat="47.91008" lon="-3.24579">
        <ele>140.74</ele>
        <time>2020-08-06T09:36:37Z</time>
      </trkpt>
      <trkpt lat="47.9098" lon="-3.24595">
        <ele>138.31</ele>
        <time>2020-08-06T09:36:48Z</time>
      </trkpt>
      <trkpt lat="47.90947" lon="-3.24615">
        <ele>135.61</ele>
        <time>2020-08-06T09:36:58Z</time>
      </trkpt>
      <trkpt lat="47.90919" lon="-3.24616">
        <ele>132.28</ele>
        <time>2020-08-06T09:37:09Z</time>
      </trkpt>
      <trkpt lat="47.90911" lon="-3.24622">
        <ele>131.38</ele>
        <time>2020-08-06T09:37:12Z</time>
      </trkpt>
      <trkpt lat="47.90896" lon="-3.24653">
        <ele>127.73</ele>
        <time>2020-08-06T09:37:22Z</time>
      </trkpt>
      <trkpt lat="47.90888" lon="-3.24685">
        <ele>125.83</ele>
        <time>2020-08-06T09:37:29Z</time>
      </trkpt>
      <trkpt lat="47.90872" lon="-3.24715">
        <ele>124.18</ele>
        <time>2020-08-06T09:37:37Z</time>
      </trkpt>
      <trkpt lat="47.90869" lon="-3.2472">
        <ele>123.72</ele>
        <time>2020-08-06T09:37:39Z</time>
      </trkpt>
      <trkpt lat="47.90841" lon="-3.24756">
        <ele>121.19</ele>
        <time>2020-08-06T09:37:50Z</time>
      </trkpt>
      <trkpt lat="47.90834" lon="-3.24765">
        <ele>120.61</ele>
        <time>2020-08-06T09:37:53Z</time>
      </trkpt>
      <trkpt lat="47.90818" lon="-3.24787">
        <ele>118.77</ele>
        <time>2020-08-06T09:38:01Z</time>
      </trkpt>
      <trkpt lat="47.90804" lon="-3.24812">
        <ele>117.15</ele>
        <time>2020-08-06T09:38:07Z</time>
      </trkpt>
      <trkpt lat="47.908" lon="-3.24818">
        <ele>116.54</ele>
        <time>2020-08-06T09:38:09Z</time>
      </trkpt>
      <trkpt lat="47.90783" lon="-3.24856">
        <ele>112.82</ele>
        <time>2020-08-06T09:38:18Z</time>
      </trkpt>
      <trkpt lat="47.90772" lon="-3.24922">
        <ele>110.3</ele>
        <time>2020-08-06T09:38:28Z</time>
      </trkpt>
      <trkpt lat="47.90767" lon="-3.24939">
        <ele>109.69</ele>
        <time>2020-08-06T09:38:32Z</time>
      </trkpt>
      <trkpt lat="47.90762" lon="-3.2501">
        <ele>107.56</ele>
        <time>2020-08-06T09:38:44Z</time>
      </trkpt>
      <trkpt lat="47.9076" lon="-3.25032">
        <ele>106.95</ele>
        <time>2020-08-06T09:38:49Z</time>
      </trkpt>
      <trkpt lat="47.90758" lon="-3.25042">
        <ele>106.88</ele>
        <time>2020-08-06T09:38:52Z</time>
      </trkpt>
      <trkpt lat="47.90746" lon="-3.25054">
        <ele>106.15</ele>
        <time>2020-08-06T09:39:01Z</time>
      </trkpt>
      <trkpt lat="47.90737" lon="-3.2506">
        <ele>104.83</ele>
        <time>2020-08-06T09:39:09Z</time>
      </trkpt>
      <trkpt lat="47.90721" lon="-3.25072">
        <ele>102.56</ele>
        <time>2020-08-06T09:39:23Z</time>
      </trkpt>
      <trkpt lat="47.90689" lon="-3.25131">
        <ele>99.95</ele>
        <time>2020-08-06T09:39:55Z</time>
      </trkpt>
      <trkpt lat="47.90676" lon="-3.25158">
        <ele>98.9</ele>
        <time>2020-08-06T09:40:07Z</time>
      </trkpt>
      <trkpt lat="47.90658" lon="-3.25175">
        <ele>97.48</ele>
        <time>2020-08-06T09:40:19Z</time>
      </trkpt>
      <trkpt lat="47.90643" lon="-3.25175">
        <ele>96.06</ele>
        <time>2020-08-06T09:40:31Z</time>
      </trkpt>
      <trkpt lat="47.90619" lon="-3.25176">
        <ele>94.67</ele>
        <time>2020-08-06T09:40:46Z</time>
      </trkpt>
      <trkpt lat="47.90615" lon="-3.25176">
        <ele>94.53</ele>
        <time>2020-08-06T09:40:48Z</time>
      </trkpt>
      <trkpt lat="47.90596" lon="-3.25182">
        <ele>93.77</ele>
        <time>2020-08-06T09:41:03Z</time>
      </trkpt>
      <trkpt lat="47.90579" lon="-3.25186">
        <ele>92.99</ele>
        <time>2020-08-06T09:41:15Z</time>
      </trkpt>
      <trkpt lat="47.90565" lon="-3.25194">
        <ele>92.64</ele>
        <time>2020-08-06T09:41:26Z</time>
      </trkpt>
      <trkpt lat="47.90544" lon="-3.25199">
        <ele>92.43</ele>
        <time>2020-08-06T09:41:38Z</time>
      </trkpt>
      <trkpt lat="47.90522" lon="-3.25207">
        <ele>91.57</ele>
        <time>2020-08-06T09:41:52Z</time>
      </trkpt>
      <trkpt lat="47.90507" lon="-3.25205">
        <ele>91.19</ele>
        <time>2020-08-06T09:42:03Z</time>
      </trkpt>
      <trkpt lat="47.90491" lon="-3.25195">
        <ele>91.08</ele>
        <time>2020-08-06T09:42:16Z</time>
      </trkpt>
      <trkpt lat="47.90488" lon="-3.25192">
        <ele>91.04</ele>
        <time>2020-08-06T09:42:22Z</time>
      </trkpt>
      <trkpt lat="47.9048" lon="-3.25172">
        <ele>91.86</ele>
        <time>2020-08-06T09:45:54Z</time>
      </trkpt>
      <trkpt lat="47.90469" lon="-3.25167">
        <ele>91.71</ele>
        <time>2020-08-06T09:46:02Z</time>
      </trkpt>
      <trkpt lat="47.90447" lon="-3.25154">
        <ele>91.61</ele>
        <time>2020-08-06T09:46:19Z</time>
      </trkpt>
      <trkpt lat="47.90435" lon="-3.25146">
        <ele>91.61</ele>
        <time>2020-08-06T09:46:27Z</time>
      </trkpt>
      <trkpt lat="47.90415" lon="-3.25131">
        <ele>91.86</ele>
        <time>2020-08-06T09:46:41Z</time>
      </trkpt>
      <trkpt lat="47.90396" lon="-3.25124">
        <ele>91.42</ele>
        <time>2020-08-06T09:46:54Z</time>
      </trkpt>
      <trkpt lat="47.90381" lon="-3.25113">
        <ele>90.84</ele>
        <time>2020-08-06T09:47:08Z</time>
      </trkpt>
      <trkpt lat="47.90366" lon="-3.25106">
        <ele>90.51</ele>
        <time>2020-08-06T09:47:20Z</time>
      </trkpt>
      <trkpt lat="47.90358" lon="-3.25103">
        <ele>90.38</ele>
        <time>2020-08-06T09:47:25Z</time>
      </trkpt>
      <trkpt lat="47.90356" lon="-3.25102">
        <ele>90.36</ele>
        <time>2020-08-06T09:47:26Z</time>
      </trkpt>
      <trkpt lat="47.90352" lon="-3.25101">
        <ele>90.2</ele>
        <time>2020-08-06T09:47:29Z</time>
      </trkpt>
      <trkpt lat="47.9035" lon="-3.25101">
        <ele>90.14</ele>
        <time>2020-08-06T09:47:30Z</time>
      </trkpt>
      <trkpt lat="47.90348" lon="-3.25101">
        <ele>90.09</ele>
        <time>2020-08-06T09:47:31Z</time>
      </trkpt>
      <trkpt lat="47.90346" lon="-3.25101">
        <ele>90.05</ele>
        <time>2020-08-06T09:47:32Z</time>
      </trkpt>
      <trkpt lat="47.90344" lon="-3.25101">
        <ele>90.03</ele>
        <time>2020-08-06T09:47:33Z</time>
      </trkpt>
      <trkpt lat="47.90341" lon="-3.25097">
        <ele>89.99</ele>
        <time>2020-08-06T09:47:34Z</time>
      </trkpt>
      <trkpt lat="47.90338" lon="-3.25097">
        <ele>89.96</ele>
        <time>2020-08-06T09:47:35Z</time>
      </trkpt>
      <trkpt lat="47.90336" lon="-3.25096">
        <ele>89.91</ele>
        <time>2020-08-06T09:47:36Z</time>
      </trkpt>
      <trkpt lat="47.90317" lon="-3.25087">
        <ele>89.16</ele>
        <time>2020-08-06T09:47:49Z</time>
      </trkpt>
      <trkpt lat="47.9031" lon="-3.25086">
        <ele>89.1</ele>
        <time>2020-08-06T09:47:55Z</time>
      </trkpt>
      <trkpt lat="47.90309" lon="-3.25086">
        <ele>89.1</ele>
        <time>2020-08-06T09:47:56Z</time>
      </trkpt>
      <trkpt lat="47.90307" lon="-3.25086">
        <ele>89.08</ele>
        <time>2020-08-06T09:47:57Z</time>
      </trkpt>
      <trkpt lat="47.90292" lon="-3.2508">
        <ele>88.65</ele>
        <time>2020-08-06T09:48:12Z</time>
      </trkpt>
      <trkpt lat="47.90288" lon="-3.25078">
        <ele>88.6</ele>
        <time>2020-08-06T09:48:15Z</time>
      </trkpt>
      <trkpt lat="47.90286" lon="-3.25077">
        <ele>88.6</ele>
        <time>2020-08-06T09:48:16Z</time>
      </trkpt>
      <trkpt lat="47.90284" lon="-3.25075">
        <ele>88.6</ele>
        <time>2020-08-06T09:48:17Z</time>
      </trkpt>
      <trkpt lat="47.90282" lon="-3.25074">
        <ele>88.59</ele>
        <time>2020-08-06T09:48:18Z</time>
      </trkpt>
      <trkpt lat="47.90281" lon="-3.25072">
        <ele>88.58</ele>
        <time>2020-08-06T09:48:19Z</time>
      </trkpt>
      <trkpt lat="47.90276" lon="-3.2507">
        <ele>88.06</ele>
        <time>2020-08-06T09:48:29Z</time>
      </trkpt>
      <trkpt lat="47.90261" lon="-3.25054">
        <ele>89.23</ele>
        <time>2020-08-06T09:48:38Z</time>
      </trkpt>
      <trkpt lat="47.90251" lon="-3.25046">
        <ele>88.27</ele>
        <time>2020-08-06T09:48:45Z</time>
      </trkpt>
      <trkpt lat="47.90246" lon="-3.25042">
        <ele>88.07</ele>
        <time>2020-08-06T09:48:48Z</time>
      </trkpt>
      <trkpt lat="47.90245" lon="-3.25041">
        <ele>88.03</ele>
        <time>2020-08-06T09:48:49Z</time>
      </trkpt>
      <trkpt lat="47.90243" lon="-3.25038">
        <ele>87.94</ele>
        <time>2020-08-06T09:48:51Z</time>
      </trkpt>
      <trkpt lat="47.90231" lon="-3.25029">
        <ele>87.41</ele>
        <time>2020-08-06T09:49:02Z</time>
      </trkpt>
      <trkpt lat="47.90227" lon="-3.25026">
        <ele>87.43</ele>
        <time>2020-08-06T09:49:05Z</time>
      </trkpt>
      <trkpt lat="47.90225" lon="-3.25023">
        <ele>87.31</ele>
        <time>2020-08-06T09:49:07Z</time>
      </trkpt>
      <trkpt lat="47.90201" lon="-3.24994">
        <ele>86.56</ele>
        <time>2020-08-06T09:49:20Z</time>
      </trkpt>
      <trkpt lat="47.9017" lon="-3.24951">
        <ele>85.19</ele>
        <time>2020-08-06T09:49:31Z</time>
      </trkpt>
      <trkpt lat="47.90143" lon="-3.24911">
        <ele>83.93</ele>
        <time>2020-08-06T09:49:41Z</time>
      </trkpt>
      <trkpt lat="47.90111" lon="-3.24873">
        <ele>82.88</ele>
        <time>2020-08-06T09:49:53Z</time>
      </trkpt>
      <trkpt lat="47.9008" lon="-3.24833">
        <ele>81.47</ele>
        <time>2020-08-06T09:50:03Z</time>
      </trkpt>
      <trkpt lat="47.90035" lon="-3.2478">
        <ele>79.62</ele>
        <time>2020-08-06T09:50:19Z</time>
      </trkpt>
      <trkpt lat="47.90023" lon="-3.24764">
        <ele>79.46</ele>
        <time>2020-08-06T09:50:22Z</time>
      </trkpt>
      <trkpt lat="47.90004" lon="-3.2474">
        <ele>79.18</ele>
        <time>2020-08-06T09:50:27Z</time>
      </trkpt>
      <trkpt lat="47.89995" lon="-3.24723">
        <ele>78.87</ele>
        <time>2020-08-06T09:50:30Z</time>
      </trkpt>
      <trkpt lat="47.89966" lon="-3.24659">
        <ele>77.63</ele>
        <time>2020-08-06T09:50:42Z</time>
      </trkpt>
      <trkpt lat="47.89954" lon="-3.24615">
        <ele>76.38</ele>
        <time>2020-08-06T09:50:51Z</time>
      </trkpt>
      <trkpt lat="47.89941" lon="-3.24549">
        <ele>75.05</ele>
        <time>2020-08-06T09:51:02Z</time>
      </trkpt>
      <trkpt lat="47.89929" lon="-3.24483">
        <ele>73.6</ele>
        <time>2020-08-06T09:51:15Z</time>
      </trkpt>
      <trkpt lat="47.89918" lon="-3.24424">
        <ele>72.6</ele>
        <time>2020-08-06T09:51:27Z</time>
      </trkpt>
      <trkpt lat="47.89911" lon="-3.24373">
        <ele>71.61</ele>
        <time>2020-08-06T09:51:37Z</time>
      </trkpt>
      <trkpt lat="47.89896" lon="-3.24307">
        <ele>70.32</ele>
        <time>2020-08-06T09:51:50Z</time>
      </trkpt>
      <trkpt lat="47.89884" lon="-3.24261">
        <ele>70.04</ele>
        <time>2020-08-06T09:52:00Z</time>
      </trkpt>
      <trkpt lat="47.89864" lon="-3.24217">
        <ele>69.96</ele>
        <time>2020-08-06T09:52:10Z</time>
      </trkpt>
      <trkpt lat="47.89863" lon="-3.24213">
        <ele>69.94</ele>
        <time>2020-08-06T09:52:11Z</time>
      </trkpt>
      <trkpt lat="47.89857" lon="-3.24188">
        <ele>69.89</ele>
        <time>2020-08-06T09:52:17Z</time>
      </trkpt>
      <trkpt lat="47.89822" lon="-3.24145">
        <ele>69.06</ele>
        <time>2020-08-06T09:52:28Z</time>
      </trkpt>
      <trkpt lat="47.89801" lon="-3.24115">
        <ele>68.3</ele>
        <time>2020-08-06T09:52:37Z</time>
      </trkpt>
      <trkpt lat="47.89778" lon="-3.24081">
        <ele>67.17</ele>
        <time>2020-08-06T09:52:47Z</time>
      </trkpt>
      <trkpt lat="47.89754" lon="-3.24035">
        <ele>65.96</ele>
        <time>2020-08-06T09:52:59Z</time>
      </trkpt>
      <trkpt lat="47.89734" lon="-3.23986">
        <ele>65.08</ele>
        <time>2020-08-06T09:53:10Z</time>
      </trkpt>
      <trkpt lat="47.89716" lon="-3.23936">
        <ele>63.69</ele>
        <time>2020-08-06T09:53:22Z</time>
      </trkpt>
      <trkpt lat="47.89704" lon="-3.23885">
        <ele>62.82</ele>
        <time>2020-08-06T09:53:33Z</time>
      </trkpt>
      <trkpt lat="47.89702" lon="-3.23823">
        <ele>61.72</ele>
        <time>2020-08-06T09:53:45Z</time>
      </trkpt>
      <trkpt lat="47.89706" lon="-3.23803">
        <ele>61.14</ele>
        <time>2020-08-06T09:53:50Z</time>
      </trkpt>
      <trkpt lat="47.89712" lon="-3.23774">
        <ele>60.41</ele>
        <time>2020-08-06T09:53:57Z</time>
      </trkpt>
      <trkpt lat="47.89725" lon="-3.23725">
        <ele>59.28</ele>
        <time>2020-08-06T09:54:08Z</time>
      </trkpt>
      <trkpt lat="47.8973" lon="-3.23703">
        <ele>58.81</ele>
        <time>2020-08-06T09:54:13Z</time>
      </trkpt>
      <trkpt lat="47.89729" lon="-3.23643">
        <ele>57.14</ele>
        <time>2020-08-06T09:54:26Z</time>
      </trkpt>
      <trkpt lat="47.89726" lon="-3.23582">
        <ele>55.66</ele>
        <time>2020-08-06T09:54:38Z</time>
      </trkpt>
      <trkpt lat="47.89722" lon="-3.23526">
        <ele>54.36</ele>
        <time>2020-08-06T09:54:49Z</time>
      </trkpt>
      <trkpt lat="47.89715" lon="-3.2346">
        <ele>52.45</ele>
        <time>2020-08-06T09:55:01Z</time>
      </trkpt>
      <trkpt lat="47.89713" lon="-3.23404">
        <ele>51.08</ele>
        <time>2020-08-06T09:55:12Z</time>
      </trkpt>
      <trkpt lat="47.89712" lon="-3.23332">
        <ele>49.8</ele>
        <time>2020-08-06T09:55:25Z</time>
      </trkpt>
      <trkpt lat="47.8971" lon="-3.23304">
        <ele>49.24</ele>
        <time>2020-08-06T09:55:30Z</time>
      </trkpt>
      <trkpt lat="47.89711" lon="-3.23282">
        <ele>48.78</ele>
        <time>2020-08-06T09:55:34Z</time>
      </trkpt>
      <trkpt lat="47.89711" lon="-3.23271">
        <ele>48.57</ele>
        <time>2020-08-06T09:55:36Z</time>
      </trkpt>
      <trkpt lat="47.89712" lon="-3.23251">
        <ele>48.2</ele>
        <time>2020-08-06T09:55:40Z</time>
      </trkpt>
      <trkpt lat="47.89715" lon="-3.23194">
        <ele>46.83</ele>
        <time>2020-08-06T09:55:53Z</time>
      </trkpt>
      <trkpt lat="47.89725" lon="-3.23139">
        <ele>46.19</ele>
        <time>2020-08-06T09:56:04Z</time>
      </trkpt>
      <trkpt lat="47.89734" lon="-3.23089">
        <ele>45.3</ele>
        <time>2020-08-06T09:56:14Z</time>
      </trkpt>
      <trkpt lat="47.89739" lon="-3.23043">
        <ele>44.2</ele>
        <time>2020-08-06T09:56:24Z</time>
      </trkpt>
      <trkpt lat="47.89738" lon="-3.2298">
        <ele>42.59</ele>
        <time>2020-08-06T09:56:36Z</time>
      </trkpt>
      <trkpt lat="47.89736" lon="-3.22925">
        <ele>41.66</ele>
        <time>2020-08-06T09:56:47Z</time>
      </trkpt>
      <trkpt lat="47.89735" lon="-3.22872">
        <ele>40.9</ele>
        <time>2020-08-06T09:56:58Z</time>
      </trkpt>
      <trkpt lat="47.89734" lon="-3.22824">
        <ele>40.2</ele>
        <time>2020-08-06T09:57:08Z</time>
      </trkpt>
      <trkpt lat="47.89742" lon="-3.22766">
        <ele>39.09</ele>
        <time>2020-08-06T09:57:20Z</time>
      </trkpt>
      <trkpt lat="47.89746" lon="-3.22739">
        <ele>38.67</ele>
        <time>2020-08-06T09:57:26Z</time>
      </trkpt>
      <trkpt lat="47.89753" lon="-3.22671">
        <ele>37.11</ele>
        <time>2020-08-06T09:57:41Z</time>
      </trkpt>
      <trkpt lat="47.89755" lon="-3.22613">
        <ele>35.89</ele>
        <time>2020-08-06T09:57:53Z</time>
      </trkpt>
      <trkpt lat="47.89759" lon="-3.22564">
        <ele>34.36</ele>
        <time>2020-08-06T09:58:03Z</time>
      </trkpt>
      <trkpt lat="47.89755" lon="-3.22512">
        <ele>33.28</ele>
        <time>2020-08-06T09:58:13Z</time>
      </trkpt>
      <trkpt lat="47.89749" lon="-3.22453">
        <ele>32.61</ele>
        <time>2020-08-06T09:58:24Z</time>
      </trkpt>
      <trkpt lat="47.89733" lon="-3.22411">
        <ele>32.39</ele>
        <time>2020-08-06T09:58:35Z</time>
      </trkpt>
      <trkpt lat="47.89713" lon="-3.22371">
        <ele>31.85</ele>
        <time>2020-08-06T09:58:46Z</time>
      </trkpt>
      <trkpt lat="47.89689" lon="-3.22338">
        <ele>31.44</ele>
        <time>2020-08-06T09:58:57Z</time>
      </trkpt>
      <trkpt lat="47.89657" lon="-3.22311">
        <ele>31.3</ele>
        <time>2020-08-06T09:59:08Z</time>
      </trkpt>
      <trkpt lat="47.89622" lon="-3.22266">
        <ele>30.24</ele>
        <time>2020-08-06T09:59:20Z</time>
      </trkpt>
      <trkpt lat="47.89592" lon="-3.22228">
        <ele>29.41</ele>
        <time>2020-08-06T09:59:34Z</time>
      </trkpt>
      <trkpt lat="47.8959" lon="-3.22227">
        <ele>29.27</ele>
        <time>2020-08-06T09:59:37Z</time>
      </trkpt>
      <trkpt lat="47.89546" lon="-3.22176">
        <ele>29.89</ele>
        <time>2020-08-06T10:01:19Z</time>
      </trkpt>
      <trkpt lat="47.89541" lon="-3.2217">
        <ele>29.92</ele>
        <time>2020-08-06T10:01:23Z</time>
      </trkpt>
      <trkpt lat="47.89509" lon="-3.22136">
        <ele>29.93</ele>
        <time>2020-08-06T10:01:39Z</time>
      </trkpt>
      <trkpt lat="47.89468" lon="-3.22091">
        <ele>29.88</ele>
        <time>2020-08-06T10:01:54Z</time>
      </trkpt>
      <trkpt lat="47.89438" lon="-3.22055">
        <ele>28.7</ele>
        <time>2020-08-06T10:02:07Z</time>
      </trkpt>
      <trkpt lat="47.89438" lon="-3.22053">
        <ele>28.67</ele>
        <time>2020-08-06T10:02:08Z</time>
      </trkpt>
      <trkpt lat="47.89413" lon="-3.22026">
        <ele>29.01</ele>
        <time>2020-08-06T10:02:18Z</time>
      </trkpt>
      <trkpt lat="47.89399" lon="-3.22011">
        <ele>29.56</ele>
        <time>2020-08-06T10:02:28Z</time>
      </trkpt>
      <trkpt lat="47.89384" lon="-3.21994">
        <ele>29.16</ele>
        <time>2020-08-06T10:02:42Z</time>
      </trkpt>
      <trkpt lat="47.89369" lon="-3.21977">
        <ele>28.27</ele>
        <time>2020-08-06T10:02:55Z</time>
      </trkpt>
      <trkpt lat="47.89365" lon="-3.21973">
        <ele>28.13</ele>
        <time>2020-08-06T10:02:58Z</time>
      </trkpt>
      <trkpt lat="47.8936" lon="-3.21969">
        <ele>27.99</ele>
        <time>2020-08-06T10:03:02Z</time>
      </trkpt>
      <trkpt lat="47.89339" lon="-3.21944">
        <ele>27.64</ele>
        <time>2020-08-06T10:03:20Z</time>
      </trkpt>
      <trkpt lat="47.89329" lon="-3.21934">
        <ele>27.4</ele>
        <time>2020-08-06T10:03:32Z</time>
      </trkpt>
      <trkpt lat="47.89303" lon="-3.21907">
        <ele>26.91</ele>
        <time>2020-08-06T10:04:41Z</time>
      </trkpt>
      <trkpt lat="47.8929" lon="-3.21891">
        <ele>26.47</ele>
        <time>2020-08-06T10:04:51Z</time>
      </trkpt>
      <trkpt lat="47.89271" lon="-3.21857">
        <ele>25.94</ele>
        <time>2020-08-06T10:05:03Z</time>
      </trkpt>
      <trkpt lat="47.89248" lon="-3.21796">
        <ele>24.97</ele>
        <time>2020-08-06T10:05:16Z</time>
      </trkpt>
      <trkpt lat="47.89233" lon="-3.21743">
        <ele>24.3</ele>
        <time>2020-08-06T10:05:27Z</time>
      </trkpt>
      <trkpt lat="47.89222" lon="-3.21706">
        <ele>24.67</ele>
        <time>2020-08-06T10:05:40Z</time>
      </trkpt>
      <trkpt lat="47.89218" lon="-3.2169">
        <ele>24.7</ele>
        <time>2020-08-06T10:05:43Z</time>
      </trkpt>
      <trkpt lat="47.8921" lon="-3.21664">
        <ele>24.73</ele>
        <time>2020-08-06T10:05:47Z</time>
      </trkpt>
      <trkpt lat="47.89186" lon="-3.21576">
        <ele>23.44</ele>
        <time>2020-08-06T10:06:02Z</time>
      </trkpt>
      <trkpt lat="47.89168" lon="-3.21512">
        <ele>22.1</ele>
        <time>2020-08-06T10:06:14Z</time>
      </trkpt>
      <trkpt lat="47.89165" lon="-3.21505">
        <ele>22.08</ele>
        <time>2020-08-06T10:06:15Z</time>
      </trkpt>
      <trkpt lat="47.89131" lon="-3.21446">
        <ele>21.79</ele>
        <time>2020-08-06T10:06:26Z</time>
      </trkpt>
      <trkpt lat="47.89113" lon="-3.2143">
        <ele>21.87</ele>
        <time>2020-08-06T10:06:31Z</time>
      </trkpt>
      <trkpt lat="47.89097" lon="-3.21413">
        <ele>21.92</ele>
        <time>2020-08-06T10:06:35Z</time>
      </trkpt>
      <trkpt lat="47.89076" lon="-3.21395">
        <ele>21.96</ele>
        <time>2020-08-06T10:06:41Z</time>
      </trkpt>
      <trkpt lat="47.8906" lon="-3.21384">
        <ele>21.88</ele>
        <time>2020-08-06T10:06:51Z</time>
      </trkpt>
      <trkpt lat="47.89037" lon="-3.21377">
        <ele>21.9</ele>
        <time>2020-08-06T10:07:00Z</time>
      </trkpt>
      <trkpt lat="47.88993" lon="-3.21353">
        <ele>21.67</ele>
        <time>2020-08-06T10:07:09Z</time>
      </trkpt>
      <trkpt lat="47.8897" lon="-3.21337">
        <ele>21.87</ele>
        <time>2020-08-06T10:07:15Z</time>
      </trkpt>
      <trkpt lat="47.88957" lon="-3.2133">
        <ele>22</ele>
        <time>2020-08-06T10:07:19Z</time>
      </trkpt>
      <trkpt lat="47.88934" lon="-3.21325">
        <ele>21.88</ele>
        <time>2020-08-06T10:07:24Z</time>
      </trkpt>
      <trkpt lat="47.88894" lon="-3.21304">
        <ele>21.86</ele>
        <time>2020-08-06T10:07:35Z</time>
      </trkpt>
      <trkpt lat="47.88848" lon="-3.21251">
        <ele>20.85</ele>
        <time>2020-08-06T10:07:48Z</time>
      </trkpt>
      <trkpt lat="47.88845" lon="-3.21248">
        <ele>20.79</ele>
        <time>2020-08-06T10:07:49Z</time>
      </trkpt>
      <trkpt lat="47.88836" lon="-3.21234">
        <ele>20.66</ele>
        <time>2020-08-06T10:07:52Z</time>
      </trkpt>
      <trkpt lat="47.88799" lon="-3.21147">
        <ele>19.84</ele>
        <time>2020-08-06T10:08:04Z</time>
      </trkpt>
      <trkpt lat="47.88775" lon="-3.21052">
        <ele>19.84</ele>
        <time>2020-08-06T10:08:16Z</time>
      </trkpt>
      <trkpt lat="47.88757" lon="-3.20958">
        <ele>18.95</ele>
        <time>2020-08-06T10:08:28Z</time>
      </trkpt>
      <trkpt lat="47.88758" lon="-3.2088">
        <ele>18.15</ele>
        <time>2020-08-06T10:08:37Z</time>
      </trkpt>
      <trkpt lat="47.88757" lon="-3.2083">
        <ele>17.86</ele>
        <time>2020-08-06T10:08:43Z</time>
      </trkpt>
      <trkpt lat="47.88762" lon="-3.20792">
        <ele>17.97</ele>
        <time>2020-08-06T10:08:49Z</time>
      </trkpt>
      <trkpt lat="47.88764" lon="-3.20766">
        <ele>18.44</ele>
        <time>2020-08-06T10:08:53Z</time>
      </trkpt>
      <trkpt lat="47.88768" lon="-3.20717">
        <ele>18.92</ele>
        <time>2020-08-06T10:09:00Z</time>
      </trkpt>
      <trkpt lat="47.8877" lon="-3.20687">
        <ele>18.87</ele>
        <time>2020-08-06T10:09:04Z</time>
      </trkpt>
      <trkpt lat="47.88771" lon="-3.20664">
        <ele>18.66</ele>
        <time>2020-08-06T10:09:07Z</time>
      </trkpt>
      <trkpt lat="47.88773" lon="-3.20583">
        <ele>18.5</ele>
        <time>2020-08-06T10:09:17Z</time>
      </trkpt>
      <trkpt lat="47.88779" lon="-3.20503">
        <ele>18.53</ele>
        <time>2020-08-06T10:09:27Z</time>
      </trkpt>
      <trkpt lat="47.88784" lon="-3.20439">
        <ele>18.13</ele>
        <time>2020-08-06T10:09:40Z</time>
      </trkpt>
      <trkpt lat="47.88785" lon="-3.20431">
        <ele>18.04</ele>
        <time>2020-08-06T10:09:43Z</time>
      </trkpt>
      <trkpt lat="47.88784" lon="-3.20386">
        <ele>17.67</ele>
        <time>2020-08-06T10:09:58Z</time>
      </trkpt>
      <trkpt lat="47.88766" lon="-3.2037">
        <ele>17.07</ele>
        <time>2020-08-06T10:10:08Z</time>
      </trkpt>
      <trkpt lat="47.88763" lon="-3.20362">
        <ele>16.85</ele>
        <time>2020-08-06T10:10:12Z</time>
      </trkpt>
      <trkpt lat="47.88761" lon="-3.20309">
        <ele>16.41</ele>
        <time>2020-08-06T10:10:28Z</time>
      </trkpt>
      <trkpt lat="47.8878" lon="-3.2024">
        <ele>16.94</ele>
        <time>2020-08-06T10:10:43Z</time>
      </trkpt>
      <trkpt lat="47.88789" lon="-3.20196">
        <ele>17.98</ele>
        <time>2020-08-06T10:10:56Z</time>
      </trkpt>
      <trkpt lat="47.88796" lon="-3.20157">
        <ele>17.43</ele>
        <time>2020-08-06T10:11:12Z</time>
      </trkpt>
      <trkpt lat="47.88801" lon="-3.20126">
        <ele>17.26</ele>
        <time>2020-08-06T10:11:25Z</time>
      </trkpt>
      <trkpt lat="47.88806" lon="-3.20087">
        <ele>16.66</ele>
        <time>2020-08-06T10:11:39Z</time>
      </trkpt>
      <trkpt lat="47.88813" lon="-3.20057">
        <ele>16.4</ele>
        <time>2020-08-06T10:11:53Z</time>
      </trkpt>
      <trkpt lat="47.88827" lon="-3.20027">
        <ele>16.15</ele>
        <time>2020-08-06T10:12:06Z</time>
      </trkpt>
      <trkpt lat="47.88828" lon="-3.20021">
        <ele>16.21</ele>
        <time>2020-08-06T10:12:15Z</time>
      </trkpt>
      <trkpt lat="47.88815" lon="-3.1995">
        <ele>15.61</ele>
        <time>2020-08-06T10:18:22Z</time>
      </trkpt>
      <trkpt lat="47.88815" lon="-3.19945">
        <ele>15.63</ele>
        <time>2020-08-06T10:18:28Z</time>
      </trkpt>
      <trkpt lat="47.88818" lon="-3.19985">
        <ele>13.53</ele>
        <time>2020-08-06T12:12:39Z</time>
      </trkpt>
      <trkpt lat="47.88818" lon="-3.19983">
        <ele>13.53</ele>
        <time>2020-08-06T12:12:40Z</time>
      </trkpt>
      <trkpt lat="47.88817" lon="-3.19954">
        <ele>13.68</ele>
        <time>2020-08-06T12:12:55Z</time>
      </trkpt>
      <trkpt lat="47.88819" lon="-3.19928">
        <ele>13.45</ele>
        <time>2020-08-06T12:13:10Z</time>
      </trkpt>
      <trkpt lat="47.8882" lon="-3.19926">
        <ele>13.4</ele>
        <time>2020-08-06T12:13:11Z</time>
      </trkpt>
      <trkpt lat="47.8882" lon="-3.19925">
        <ele>13.37</ele>
        <time>2020-08-06T12:13:12Z</time>
      </trkpt>
      <trkpt lat="47.88822" lon="-3.199">
        <ele>13.43</ele>
        <time>2020-08-06T12:13:27Z</time>
      </trkpt>
      <trkpt lat="47.88824" lon="-3.19876">
        <ele>13.63</ele>
        <time>2020-08-06T12:13:41Z</time>
      </trkpt>
      <trkpt lat="47.88822" lon="-3.19846">
        <ele>13.6</ele>
        <time>2020-08-06T12:13:56Z</time>
      </trkpt>
      <trkpt lat="47.88822" lon="-3.19826">
        <ele>13.7</ele>
        <time>2020-08-06T12:14:07Z</time>
      </trkpt>
      <trkpt lat="47.88822" lon="-3.19824">
        <ele>13.71</ele>
        <time>2020-08-06T12:14:08Z</time>
      </trkpt>
      <trkpt lat="47.88822" lon="-3.1982">
        <ele>13.73</ele>
        <time>2020-08-06T12:14:10Z</time>
      </trkpt>
      <trkpt lat="47.88822" lon="-3.19819">
        <ele>13.72</ele>
        <time>2020-08-06T12:14:11Z</time>
      </trkpt>
      <trkpt lat="47.88822" lon="-3.19816">
        <ele>13.72</ele>
        <time>2020-08-06T12:14:12Z</time>
      </trkpt>
      <trkpt lat="47.88821" lon="-3.19814">
        <ele>13.68</ele>
        <time>2020-08-06T12:14:13Z</time>
      </trkpt>
      <trkpt lat="47.88822" lon="-3.19813">
        <ele>13.68</ele>
        <time>2020-08-06T12:14:14Z</time>
      </trkpt>
      <trkpt lat="47.88822" lon="-3.19811">
        <ele>13.66</ele>
        <time>2020-08-06T12:14:15Z</time>
      </trkpt>
      <trkpt lat="47.88821" lon="-3.19805">
        <ele>13.66</ele>
        <time>2020-08-06T12:14:18Z</time>
      </trkpt>
      <trkpt lat="47.88821" lon="-3.19804">
        <ele>13.68</ele>
        <time>2020-08-06T12:14:19Z</time>
      </trkpt>
      <trkpt lat="47.88821" lon="-3.19778">
        <ele>13.52</ele>
        <time>2020-08-06T12:14:33Z</time>
      </trkpt>
      <trkpt lat="47.88824" lon="-3.19748">
        <ele>13.69</ele>
        <time>2020-08-06T12:14:47Z</time>
      </trkpt>
      <trkpt lat="47.88824" lon="-3.19728">
        <ele>14.26</ele>
        <time>2020-08-06T12:15:01Z</time>
      </trkpt>
      <trkpt lat="47.88823" lon="-3.19724">
        <ele>14.25</ele>
        <time>2020-08-06T12:15:03Z</time>
      </trkpt>
      <trkpt lat="47.88823" lon="-3.19722">
        <ele>14.29</ele>
        <time>2020-08-06T12:15:04Z</time>
      </trkpt>
      <trkpt lat="47.88826" lon="-3.19703">
        <ele>14.86</ele>
        <time>2020-08-06T12:15:15Z</time>
      </trkpt>
      <trkpt lat="47.88826" lon="-3.197">
        <ele>14.9</ele>
        <time>2020-08-06T12:15:16Z</time>
      </trkpt>
      <trkpt lat="47.88823" lon="-3.19673">
        <ele>14.8</ele>
        <time>2020-08-06T12:15:28Z</time>
      </trkpt>
      <trkpt lat="47.88823" lon="-3.19664">
        <ele>14.89</ele>
        <time>2020-08-06T12:15:32Z</time>
      </trkpt>
      <trkpt lat="47.88823" lon="-3.19661">
        <ele>14.91</ele>
        <time>2020-08-06T12:15:33Z</time>
      </trkpt>
      <trkpt lat="47.88823" lon="-3.19653">
        <ele>14.84</ele>
        <time>2020-08-06T12:15:37Z</time>
      </trkpt>
      <trkpt lat="47.88825" lon="-3.19622">
        <ele>14.71</ele>
        <time>2020-08-06T12:15:52Z</time>
      </trkpt>
      <trkpt lat="47.88826" lon="-3.19592">
        <ele>14.63</ele>
        <time>2020-08-06T12:16:07Z</time>
      </trkpt>
      <trkpt lat="47.88825" lon="-3.19567">
        <ele>15.11</ele>
        <time>2020-08-06T12:16:20Z</time>
      </trkpt>
      <trkpt lat="47.88824" lon="-3.19555">
        <ele>15.24</ele>
        <time>2020-08-06T12:16:26Z</time>
      </trkpt>
      <trkpt lat="47.88828" lon="-3.19542">
        <ele>15.36</ele>
        <time>2020-08-06T12:16:34Z</time>
      </trkpt>
      <trkpt lat="47.88831" lon="-3.1952">
        <ele>15.4</ele>
        <time>2020-08-06T12:16:47Z</time>
      </trkpt>
      <trkpt lat="47.88834" lon="-3.19508">
        <ele>15.57</ele>
        <time>2020-08-06T12:16:55Z</time>
      </trkpt>
      <trkpt lat="47.88834" lon="-3.19506">
        <ele>15.6</ele>
        <time>2020-08-06T12:16:56Z</time>
      </trkpt>
      <trkpt lat="47.88834" lon="-3.19504">
        <ele>15.62</ele>
        <time>2020-08-06T12:16:57Z</time>
      </trkpt>
      <trkpt lat="47.88843" lon="-3.19479">
        <ele>15.7</ele>
        <time>2020-08-06T12:17:11Z</time>
      </trkpt>
      <trkpt lat="47.88862" lon="-3.19464">
        <ele>16.8</ele>
        <time>2020-08-06T12:17:28Z</time>
      </trkpt>
      <trkpt lat="47.88864" lon="-3.19462">
        <ele>17.28</ele>
        <time>2020-08-06T12:17:32Z</time>
      </trkpt>
      <trkpt lat="47.88891" lon="-3.19452">
        <ele>20.35</ele>
        <time>2020-08-06T12:19:00Z</time>
      </trkpt>
      <trkpt lat="47.88894" lon="-3.19452">
        <ele>20.63</ele>
        <time>2020-08-06T12:19:03Z</time>
      </trkpt>
      <trkpt lat="47.88913" lon="-3.19449">
        <ele>22.3</ele>
        <time>2020-08-06T12:19:19Z</time>
      </trkpt>
      <trkpt lat="47.88927" lon="-3.19449">
        <ele>23.97</ele>
        <time>2020-08-06T12:19:32Z</time>
      </trkpt>
      <trkpt lat="47.88933" lon="-3.1945">
        <ele>24.69</ele>
        <time>2020-08-06T12:19:36Z</time>
      </trkpt>
      <trkpt lat="47.88937" lon="-3.1945">
        <ele>25.44</ele>
        <time>2020-08-06T12:19:41Z</time>
      </trkpt>
      <trkpt lat="47.88941" lon="-3.1945">
        <ele>25.73</ele>
        <time>2020-08-06T12:19:44Z</time>
      </trkpt>
      <trkpt lat="47.88942" lon="-3.1945">
        <ele>25.83</ele>
        <time>2020-08-06T12:19:45Z</time>
      </trkpt>
      <trkpt lat="47.88943" lon="-3.1945">
        <ele>25.92</ele>
        <time>2020-08-06T12:19:46Z</time>
      </trkpt>
      <trkpt lat="47.88944" lon="-3.1945">
        <ele>26</ele>
        <time>2020-08-06T12:19:47Z</time>
      </trkpt>
      <trkpt lat="47.88945" lon="-3.1945">
        <ele>26.08</ele>
        <time>2020-08-06T12:19:48Z</time>
      </trkpt>
      <trkpt lat="47.88968" lon="-3.19452">
        <ele>28.27</ele>
        <time>2020-08-06T12:20:02Z</time>
      </trkpt>
      <trkpt lat="47.88987" lon="-3.1946">
        <ele>30.38</ele>
        <time>2020-08-06T12:20:15Z</time>
      </trkpt>
      <trkpt lat="47.89005" lon="-3.19471">
        <ele>32.88</ele>
        <time>2020-08-06T12:20:29Z</time>
      </trkpt>
      <trkpt lat="47.89021" lon="-3.19482">
        <ele>34.3</ele>
        <time>2020-08-06T12:20:41Z</time>
      </trkpt>
      <trkpt lat="47.8904" lon="-3.195">
        <ele>36.96</ele>
        <time>2020-08-06T12:20:56Z</time>
      </trkpt>
      <trkpt lat="47.89055" lon="-3.19511">
        <ele>38.69</ele>
        <time>2020-08-06T12:21:10Z</time>
      </trkpt>
      <trkpt lat="47.8906" lon="-3.19512">
        <ele>39.29</ele>
        <time>2020-08-06T12:21:14Z</time>
      </trkpt>
      <trkpt lat="47.89061" lon="-3.19512">
        <ele>39.57</ele>
        <time>2020-08-06T12:21:15Z</time>
      </trkpt>
      <trkpt lat="47.8907" lon="-3.19518">
        <ele>41.21</ele>
        <time>2020-08-06T12:21:24Z</time>
      </trkpt>
      <trkpt lat="47.89086" lon="-3.19539">
        <ele>43.04</ele>
        <time>2020-08-06T12:21:37Z</time>
      </trkpt>
      <trkpt lat="47.89104" lon="-3.19556">
        <ele>44.73</ele>
        <time>2020-08-06T12:21:52Z</time>
      </trkpt>
      <trkpt lat="47.89125" lon="-3.19572">
        <ele>46.4</ele>
        <time>2020-08-06T12:22:08Z</time>
      </trkpt>
      <trkpt lat="47.89143" lon="-3.19587">
        <ele>47.28</ele>
        <time>2020-08-06T12:22:23Z</time>
      </trkpt>
      <trkpt lat="47.89163" lon="-3.19602">
        <ele>48.65</ele>
        <time>2020-08-06T12:22:38Z</time>
      </trkpt>
      <trkpt lat="47.89181" lon="-3.19618">
        <ele>49.71</ele>
        <time>2020-08-06T12:22:53Z</time>
      </trkpt>
      <trkpt lat="47.89199" lon="-3.19637">
        <ele>50.47</ele>
        <time>2020-08-06T12:23:08Z</time>
      </trkpt>
      <trkpt lat="47.89216" lon="-3.1965">
        <ele>51.25</ele>
        <time>2020-08-06T12:23:22Z</time>
      </trkpt>
      <trkpt lat="47.89239" lon="-3.19674">
        <ele>52.27</ele>
        <time>2020-08-06T12:23:41Z</time>
      </trkpt>
      <trkpt lat="47.8926" lon="-3.19694">
        <ele>52.98</ele>
        <time>2020-08-06T12:23:56Z</time>
      </trkpt>
      <trkpt lat="47.89278" lon="-3.19694">
        <ele>53.26</ele>
        <time>2020-08-06T12:24:09Z</time>
      </trkpt>
      <trkpt lat="47.89293" lon="-3.19674">
        <ele>53.65</ele>
        <time>2020-08-06T12:24:25Z</time>
      </trkpt>
      <trkpt lat="47.89293" lon="-3.19674">
        <ele>53.81</ele>
        <time>2020-08-06T12:24:27Z</time>
      </trkpt>
      <trkpt lat="47.89305" lon="-3.19668">
        <ele>53.92</ele>
        <time>2020-08-06T12:24:49Z</time>
      </trkpt>
      <trkpt lat="47.89318" lon="-3.19679">
        <ele>53.09</ele>
        <time>2020-08-06T12:25:03Z</time>
      </trkpt>
      <trkpt lat="47.8932" lon="-3.19682">
        <ele>53.01</ele>
        <time>2020-08-06T12:25:09Z</time>
      </trkpt>
      <trkpt lat="47.89328" lon="-3.19684">
        <ele>53.16</ele>
        <time>2020-08-06T12:25:16Z</time>
      </trkpt>
      <trkpt lat="47.89334" lon="-3.1968">
        <ele>53.48</ele>
        <time>2020-08-06T12:25:23Z</time>
      </trkpt>
      <trkpt lat="47.89344" lon="-3.19663">
        <ele>54.77</ele>
        <time>2020-08-06T12:25:37Z</time>
      </trkpt>
      <trkpt lat="47.89365" lon="-3.19627">
        <ele>55.37</ele>
        <time>2020-08-06T12:26:01Z</time>
      </trkpt>
      <trkpt lat="47.8937" lon="-3.19619">
        <ele>55.48</ele>
        <time>2020-08-06T12:26:05Z</time>
      </trkpt>
      <trkpt lat="47.89374" lon="-3.19615">
        <ele>55.57</ele>
        <time>2020-08-06T12:26:08Z</time>
      </trkpt>
      <trkpt lat="47.89393" lon="-3.19613">
        <ele>56.18</ele>
        <time>2020-08-06T12:26:25Z</time>
      </trkpt>
      <trkpt lat="47.89397" lon="-3.19613">
        <ele>56.31</ele>
        <time>2020-08-06T12:26:27Z</time>
      </trkpt>
      <trkpt lat="47.89414" lon="-3.19618">
        <ele>57.26</ele>
        <time>2020-08-06T12:26:41Z</time>
      </trkpt>
      <trkpt lat="47.89438" lon="-3.19625">
        <ele>59.12</ele>
        <time>2020-08-06T12:26:57Z</time>
      </trkpt>
      <trkpt lat="47.89455" lon="-3.19632">
        <ele>60.44</ele>
        <time>2020-08-06T12:27:09Z</time>
      </trkpt>
      <trkpt lat="47.89697" lon="-3.19684">
        <ele>71</ele>
        <time>2020-08-06T12:30:36Z</time>
      </trkpt>
      <trkpt lat="47.89699" lon="-3.19701">
        <ele>71.61</ele>
        <time>2020-08-06T12:30:44Z</time>
      </trkpt>
      <trkpt lat="47.89704" lon="-3.19723">
        <ele>73.37</ele>
        <time>2020-08-06T12:30:58Z</time>
      </trkpt>
      <trkpt lat="47.89711" lon="-3.1974">
        <ele>74.1</ele>
        <time>2020-08-06T12:31:07Z</time>
      </trkpt>
      <trkpt lat="47.89712" lon="-3.19743">
        <ele>74.33</ele>
        <time>2020-08-06T12:31:09Z</time>
      </trkpt>
      <trkpt lat="47.89715" lon="-3.19757">
        <ele>74.91</ele>
        <time>2020-08-06T12:31:15Z</time>
      </trkpt>
      <trkpt lat="47.89721" lon="-3.19796">
        <ele>76.14</ele>
        <time>2020-08-06T12:31:30Z</time>
      </trkpt>
      <trkpt lat="47.89725" lon="-3.19833">
        <ele>77.27</ele>
        <time>2020-08-06T12:31:44Z</time>
      </trkpt>
      <trkpt lat="47.89738" lon="-3.19855">
        <ele>77.66</ele>
        <time>2020-08-06T12:31:57Z</time>
      </trkpt>
      <trkpt lat="47.89746" lon="-3.19884">
        <ele>78.73</ele>
        <time>2020-08-06T12:32:13Z</time>
      </trkpt>
      <trkpt lat="47.89761" lon="-3.19903">
        <ele>79.33</ele>
        <time>2020-08-06T12:32:28Z</time>
      </trkpt>
      <trkpt lat="47.89774" lon="-3.19914">
        <ele>79.77</ele>
        <time>2020-08-06T12:32:41Z</time>
      </trkpt>
      <trkpt lat="47.89795" lon="-3.19943">
        <ele>80.32</ele>
        <time>2020-08-06T12:32:59Z</time>
      </trkpt>
      <trkpt lat="47.89803" lon="-3.19952">
        <ele>80.57</ele>
        <time>2020-08-06T12:33:06Z</time>
      </trkpt>
      <trkpt lat="47.89821" lon="-3.19985">
        <ele>80.94</ele>
        <time>2020-08-06T12:33:25Z</time>
      </trkpt>
      <trkpt lat="47.89823" lon="-3.19985">
        <ele>80.96</ele>
        <time>2020-08-06T12:33:26Z</time>
      </trkpt>
      <trkpt lat="47.89856" lon="-3.19997">
        <ele>82.25</ele>
        <time>2020-08-06T12:33:46Z</time>
      </trkpt>
      <trkpt lat="47.89879" lon="-3.20006">
        <ele>83.22</ele>
        <time>2020-08-06T12:33:59Z</time>
      </trkpt>
      <trkpt lat="47.89894" lon="-3.20023">
        <ele>85.74</ele>
        <time>2020-08-06T12:34:17Z</time>
      </trkpt>
      <trkpt lat="47.89908" lon="-3.20044">
        <ele>87.17</ele>
        <time>2020-08-06T12:34:29Z</time>
      </trkpt>
      <trkpt lat="47.89916" lon="-3.20071">
        <ele>88.68</ele>
        <time>2020-08-06T12:34:41Z</time>
      </trkpt>
      <trkpt lat="47.89923" lon="-3.20086">
        <ele>89.91</ele>
        <time>2020-08-06T12:34:50Z</time>
      </trkpt>
      <trkpt lat="47.89928" lon="-3.20104">
        <ele>91.21</ele>
        <time>2020-08-06T12:35:00Z</time>
      </trkpt>
      <trkpt lat="47.89942" lon="-3.20129">
        <ele>93.22</ele>
        <time>2020-08-06T12:35:14Z</time>
      </trkpt>
      <trkpt lat="47.89946" lon="-3.20163">
        <ele>94.78</ele>
        <time>2020-08-06T12:35:30Z</time>
      </trkpt>
      <trkpt lat="47.89955" lon="-3.20182">
        <ele>95.88</ele>
        <time>2020-08-06T12:35:40Z</time>
      </trkpt>
      <trkpt lat="47.89959" lon="-3.20188">
        <ele>96.16</ele>
        <time>2020-08-06T12:35:43Z</time>
      </trkpt>
      <trkpt lat="47.8997" lon="-3.20211">
        <ele>96.91</ele>
        <time>2020-08-06T12:35:55Z</time>
      </trkpt>
      <trkpt lat="47.89979" lon="-3.2024">
        <ele>99.09</ele>
        <time>2020-08-06T12:36:12Z</time>
      </trkpt>
      <trkpt lat="47.89985" lon="-3.20265">
        <ele>99.97</ele>
        <time>2020-08-06T12:36:24Z</time>
      </trkpt>
      <trkpt lat="47.89997" lon="-3.20297">
        <ele>100.63</ele>
        <time>2020-08-06T12:36:43Z</time>
      </trkpt>
      <trkpt lat="47.9001" lon="-3.20295">
        <ele>101.77</ele>
        <time>2020-08-06T12:36:55Z</time>
      </trkpt>
      <trkpt lat="47.90014" lon="-3.20299">
        <ele>102.28</ele>
        <time>2020-08-06T12:37:01Z</time>
      </trkpt>
      <trkpt lat="47.90023" lon="-3.20302">
        <ele>102.21</ele>
        <time>2020-08-06T12:37:06Z</time>
      </trkpt>
      <trkpt lat="47.90034" lon="-3.20309">
        <ele>102.65</ele>
        <time>2020-08-06T12:37:14Z</time>
      </trkpt>
      <trkpt lat="47.90041" lon="-3.20318">
        <ele>102.96</ele>
        <time>2020-08-06T12:37:19Z</time>
      </trkpt>
      <trkpt lat="47.90061" lon="-3.20334">
        <ele>103.85</ele>
        <time>2020-08-06T12:37:33Z</time>
      </trkpt>
      <trkpt lat="47.90077" lon="-3.20342">
        <ele>104.44</ele>
        <time>2020-08-06T12:37:43Z</time>
      </trkpt>
      <trkpt lat="47.90093" lon="-3.20355">
        <ele>105.39</ele>
        <time>2020-08-06T12:37:58Z</time>
      </trkpt>
      <trkpt lat="47.90107" lon="-3.20368">
        <ele>105.96</ele>
        <time>2020-08-06T12:38:08Z</time>
      </trkpt>
      <trkpt lat="47.90123" lon="-3.20386">
        <ele>106.92</ele>
        <time>2020-08-06T12:38:22Z</time>
      </trkpt>
      <trkpt lat="47.90132" lon="-3.20412">
        <ele>107.65</ele>
        <time>2020-08-06T12:38:35Z</time>
      </trkpt>
      <trkpt lat="47.90143" lon="-3.2042">
        <ele>108.04</ele>
        <time>2020-08-06T12:38:43Z</time>
      </trkpt>
      <trkpt lat="47.90148" lon="-3.20431">
        <ele>108.29</ele>
        <time>2020-08-06T12:38:50Z</time>
      </trkpt>
      <trkpt lat="47.9016" lon="-3.20452">
        <ele>108.65</ele>
        <time>2020-08-06T12:39:04Z</time>
      </trkpt>
      <trkpt lat="47.90169" lon="-3.20479">
        <ele>109.09</ele>
        <time>2020-08-06T12:39:21Z</time>
      </trkpt>
      <trkpt lat="47.90178" lon="-3.20522">
        <ele>109.83</ele>
        <time>2020-08-06T12:39:32Z</time>
      </trkpt>
      <trkpt lat="47.90183" lon="-3.20552">
        <ele>109.57</ele>
        <time>2020-08-06T12:39:43Z</time>
      </trkpt>
      <trkpt lat="47.90194" lon="-3.20577">
        <ele>109.36</ele>
        <time>2020-08-06T12:39:54Z</time>
      </trkpt>
      <trkpt lat="47.90201" lon="-3.20587">
        <ele>108.93</ele>
        <time>2020-08-06T12:40:02Z</time>
      </trkpt>
      <trkpt lat="47.90215" lon="-3.20611">
        <ele>108.42</ele>
        <time>2020-08-06T12:40:18Z</time>
      </trkpt>
      <trkpt lat="47.9022" lon="-3.2063">
        <ele>108.18</ele>
        <time>2020-08-06T12:40:29Z</time>
      </trkpt>
      <trkpt lat="47.90228" lon="-3.20643">
        <ele>107.76</ele>
        <time>2020-08-06T12:40:41Z</time>
      </trkpt>
      <trkpt lat="47.90327" lon="-3.20705">
        <ele>103.81</ele>
        <time>2020-08-06T12:42:02Z</time>
      </trkpt>
      <trkpt lat="47.90334" lon="-3.20705">
        <ele>103.81</ele>
        <time>2020-08-06T12:42:06Z</time>
      </trkpt>
      <trkpt lat="47.90343" lon="-3.20705">
        <ele>103.75</ele>
        <time>2020-08-06T12:42:11Z</time>
      </trkpt>
      <trkpt lat="47.90508" lon="-3.20783">
        <ele>93.74</ele>
        <time>2020-08-06T12:44:36Z</time>
      </trkpt>
      <trkpt lat="47.90522" lon="-3.208">
        <ele>93.47</ele>
        <time>2020-08-06T12:44:46Z</time>
      </trkpt>
      <trkpt lat="47.90522" lon="-3.20805">
        <ele>93.49</ele>
        <time>2020-08-06T12:44:48Z</time>
      </trkpt>
      <trkpt lat="47.90542" lon="-3.20812">
        <ele>93.71</ele>
        <time>2020-08-06T12:45:01Z</time>
      </trkpt>
      <trkpt lat="47.90548" lon="-3.20806">
        <ele>93.2</ele>
        <time>2020-08-06T12:45:05Z</time>
      </trkpt>
      <trkpt lat="47.90553" lon="-3.20786">
        <ele>91.32</ele>
        <time>2020-08-06T12:45:18Z</time>
      </trkpt>
      <trkpt lat="47.90566" lon="-3.20745">
        <ele>89.96</ele>
        <time>2020-08-06T12:45:35Z</time>
      </trkpt>
      <trkpt lat="47.90572" lon="-3.20732">
        <ele>90.23</ele>
        <time>2020-08-06T12:45:48Z</time>
      </trkpt>
      <trkpt lat="47.90585" lon="-3.20727">
        <ele>91.84</ele>
        <time>2020-08-06T12:46:02Z</time>
      </trkpt>
      <trkpt lat="47.90667" lon="-3.20718">
        <ele>84.34</ele>
        <time>2020-08-06T12:47:03Z</time>
      </trkpt>
      <trkpt lat="47.90689" lon="-3.20725">
        <ele>81.12</ele>
        <time>2020-08-06T12:47:19Z</time>
      </trkpt>
      <trkpt lat="47.90697" lon="-3.20726">
        <ele>79.92</ele>
        <time>2020-08-06T12:47:25Z</time>
      </trkpt>
      <trkpt lat="47.90714" lon="-3.2072">
        <ele>77.76</ele>
        <time>2020-08-06T12:47:41Z</time>
      </trkpt>
      <trkpt lat="47.90717" lon="-3.20719">
        <ele>77.55</ele>
        <time>2020-08-06T12:47:44Z</time>
      </trkpt>
      <trkpt lat="47.90719" lon="-3.2072">
        <ele>77.4</ele>
        <time>2020-08-06T12:47:46Z</time>
      </trkpt>
      <trkpt lat="47.90726" lon="-3.20722">
        <ele>77.18</ele>
        <time>2020-08-06T12:47:50Z</time>
      </trkpt>
      <trkpt lat="47.9073" lon="-3.20724">
        <ele>77.03</ele>
        <time>2020-08-06T12:47:52Z</time>
      </trkpt>
      <trkpt lat="47.90749" lon="-3.20728">
        <ele>75.69</ele>
        <time>2020-08-06T12:48:04Z</time>
      </trkpt>
      <trkpt lat="47.90788" lon="-3.20763">
        <ele>71.41</ele>
        <time>2020-08-06T12:48:41Z</time>
      </trkpt>
      <trkpt lat="47.90793" lon="-3.20798">
        <ele>69.06</ele>
        <time>2020-08-06T12:49:00Z</time>
      </trkpt>
      <trkpt lat="47.90794" lon="-3.20802">
        <ele>68.8</ele>
        <time>2020-08-06T12:49:04Z</time>
      </trkpt>
      <trkpt lat="47.90796" lon="-3.20808">
        <ele>67.94</ele>
        <time>2020-08-06T12:49:10Z</time>
      </trkpt>
      <trkpt lat="47.91043" lon="-3.20739">
        <ele>40.43</ele>
        <time>2020-08-06T12:57:31Z</time>
      </trkpt>
      <trkpt lat="47.91043" lon="-3.20736">
        <ele>40.51</ele>
        <time>2020-08-06T12:57:32Z</time>
      </trkpt>
      <trkpt lat="47.91044" lon="-3.20725">
        <ele>40.79</ele>
        <time>2020-08-06T12:57:38Z</time>
      </trkpt>
      <trkpt lat="47.91044" lon="-3.207">
        <ele>41.33</ele>
        <time>2020-08-06T12:57:51Z</time>
      </trkpt>
      <trkpt lat="47.91044" lon="-3.20698">
        <ele>41.35</ele>
        <time>2020-08-06T12:57:52Z</time>
      </trkpt>
      <trkpt lat="47.91046" lon="-3.20688">
        <ele>41.88</ele>
        <time>2020-08-06T12:57:58Z</time>
      </trkpt>
      <trkpt lat="47.91046" lon="-3.20682">
        <ele>42.17</ele>
        <time>2020-08-06T12:58:02Z</time>
      </trkpt>
      <trkpt lat="47.91045" lon="-3.20671">
        <ele>42.31</ele>
        <time>2020-08-06T12:58:06Z</time>
      </trkpt>
      <trkpt lat="47.91049" lon="-3.20654">
        <ele>42.42</ele>
        <time>2020-08-06T12:58:11Z</time>
      </trkpt>
      <trkpt lat="47.91055" lon="-3.20632">
        <ele>42.83</ele>
        <time>2020-08-06T12:58:23Z</time>
      </trkpt>
      <trkpt lat="47.91062" lon="-3.20615">
        <ele>43.4</ele>
        <time>2020-08-06T12:58:32Z</time>
      </trkpt>
      <trkpt lat="47.91079" lon="-3.20595">
        <ele>43.8</ele>
        <time>2020-08-06T12:58:44Z</time>
      </trkpt>
      <trkpt lat="47.91081" lon="-3.20592">
        <ele>43.78</ele>
        <time>2020-08-06T12:58:46Z</time>
      </trkpt>
      <trkpt lat="47.91097" lon="-3.20558">
        <ele>44.43</ele>
        <time>2020-08-06T12:58:59Z</time>
      </trkpt>
      <trkpt lat="47.91099" lon="-3.20552">
        <ele>44.57</ele>
        <time>2020-08-06T12:59:02Z</time>
      </trkpt>
      <trkpt lat="47.911" lon="-3.2055">
        <ele>44.62</ele>
        <time>2020-08-06T12:59:03Z</time>
      </trkpt>
      <trkpt lat="47.91101" lon="-3.20549">
        <ele>44.69</ele>
        <time>2020-08-06T12:59:04Z</time>
      </trkpt>
      <trkpt lat="47.91102" lon="-3.20548">
        <ele>44.76</ele>
        <time>2020-08-06T12:59:05Z</time>
      </trkpt>
      <trkpt lat="47.91113" lon="-3.20528">
        <ele>45.75</ele>
        <time>2020-08-06T12:59:17Z</time>
      </trkpt>
      <trkpt lat="47.91118" lon="-3.20524">
        <ele>46.24</ele>
        <time>2020-08-06T12:59:21Z</time>
      </trkpt>
      <trkpt lat="47.91119" lon="-3.20522">
        <ele>46.31</ele>
        <time>2020-08-06T12:59:22Z</time>
      </trkpt>
      <trkpt lat="47.9112" lon="-3.20521">
        <ele>46.36</ele>
        <time>2020-08-06T12:59:23Z</time>
      </trkpt>
      <trkpt lat="47.91121" lon="-3.2052">
        <ele>46.44</ele>
        <time>2020-08-06T12:59:24Z</time>
      </trkpt>
      <trkpt lat="47.91123" lon="-3.20519">
        <ele>46.5</ele>
        <time>2020-08-06T12:59:25Z</time>
      </trkpt>
      <trkpt lat="47.91124" lon="-3.20517">
        <ele>46.55</ele>
        <time>2020-08-06T12:59:26Z</time>
      </trkpt>
      <trkpt lat="47.91125" lon="-3.20517">
        <ele>46.55</ele>
        <time>2020-08-06T12:59:27Z</time>
      </trkpt>
      <trkpt lat="47.91141" lon="-3.20498">
        <ele>47.75</ele>
        <time>2020-08-06T12:59:40Z</time>
      </trkpt>
      <trkpt lat="47.9115" lon="-3.20464">
        <ele>46.91</ele>
        <time>2020-08-06T12:59:54Z</time>
      </trkpt>
      <trkpt lat="47.91141" lon="-3.20436">
        <ele>46.33</ele>
        <time>2020-08-06T13:00:06Z</time>
      </trkpt>
      <trkpt lat="47.9113" lon="-3.20427">
        <ele>46.7</ele>
        <time>2020-08-06T13:00:14Z</time>
      </trkpt>
      <trkpt lat="47.91109" lon="-3.20424">
        <ele>47.2</ele>
        <time>2020-08-06T13:00:27Z</time>
      </trkpt>
      <trkpt lat="47.91094" lon="-3.20422">
        <ele>48.1</ele>
        <time>2020-08-06T13:00:36Z</time>
      </trkpt>
      <trkpt lat="47.91093" lon="-3.20421">
        <ele>48.25</ele>
        <time>2020-08-06T13:00:37Z</time>
      </trkpt>
      <trkpt lat="47.9108" lon="-3.20412">
        <ele>48.85</ele>
        <time>2020-08-06T13:00:46Z</time>
      </trkpt>
      <trkpt lat="47.91076" lon="-3.20406">
        <ele>49.16</ele>
        <time>2020-08-06T13:00:50Z</time>
      </trkpt>
      <trkpt lat="47.91074" lon="-3.20404">
        <ele>49.25</ele>
        <time>2020-08-06T13:00:51Z</time>
      </trkpt>
      <trkpt lat="47.91062" lon="-3.20386">
        <ele>50.46</ele>
        <time>2020-08-06T13:01:00Z</time>
      </trkpt>
      <trkpt lat="47.91061" lon="-3.20384">
        <ele>50.68</ele>
        <time>2020-08-06T13:01:01Z</time>
      </trkpt>
      <trkpt lat="47.91057" lon="-3.20374">
        <ele>51.42</ele>
        <time>2020-08-06T13:01:07Z</time>
      </trkpt>
      <trkpt lat="47.91048" lon="-3.20357">
        <ele>52.48</ele>
        <time>2020-08-06T13:01:18Z</time>
      </trkpt>
      <trkpt lat="47.91048" lon="-3.20355">
        <ele>52.55</ele>
        <time>2020-08-06T13:01:19Z</time>
      </trkpt>
      <trkpt lat="47.91047" lon="-3.20353">
        <ele>52.64</ele>
        <time>2020-08-06T13:01:20Z</time>
      </trkpt>
      <trkpt lat="47.91046" lon="-3.20351">
        <ele>52.72</ele>
        <time>2020-08-06T13:01:21Z</time>
      </trkpt>
      <trkpt lat="47.91046" lon="-3.20348">
        <ele>52.82</ele>
        <time>2020-08-06T13:01:22Z</time>
      </trkpt>
      <trkpt lat="47.91045" lon="-3.20345">
        <ele>52.93</ele>
        <time>2020-08-06T13:01:23Z</time>
      </trkpt>
      <trkpt lat="47.91041" lon="-3.20324">
        <ele>54.12</ele>
        <time>2020-08-06T13:01:34Z</time>
      </trkpt>
      <trkpt lat="47.9104" lon="-3.20321">
        <ele>54.2</ele>
        <time>2020-08-06T13:01:35Z</time>
      </trkpt>
      <trkpt lat="47.9104" lon="-3.20318">
        <ele>54.3</ele>
        <time>2020-08-06T13:01:36Z</time>
      </trkpt>
      <trkpt lat="47.91038" lon="-3.20315">
        <ele>54.6</ele>
        <time>2020-08-06T13:01:38Z</time>
      </trkpt>
      <trkpt lat="47.91037" lon="-3.20309">
        <ele>54.87</ele>
        <time>2020-08-06T13:01:40Z</time>
      </trkpt>
      <trkpt lat="47.91036" lon="-3.20285">
        <ele>55.38</ele>
        <time>2020-08-06T13:01:47Z</time>
      </trkpt>
      <trkpt lat="47.91035" lon="-3.20277">
        <ele>55.69</ele>
        <time>2020-08-06T13:01:50Z</time>
      </trkpt>
      <trkpt lat="47.91035" lon="-3.20266">
        <ele>56.06</ele>
        <time>2020-08-06T13:01:54Z</time>
      </trkpt>
      <trkpt lat="47.91035" lon="-3.20263">
        <ele>56.19</ele>
        <time>2020-08-06T13:01:55Z</time>
      </trkpt>
      <trkpt lat="47.91035" lon="-3.2026">
        <ele>56.25</ele>
        <time>2020-08-06T13:01:56Z</time>
      </trkpt>
      <trkpt lat="47.91035" lon="-3.20257">
        <ele>56.33</ele>
        <time>2020-08-06T13:01:57Z</time>
      </trkpt>
      <trkpt lat="47.91034" lon="-3.20255">
        <ele>56.43</ele>
        <time>2020-08-06T13:01:58Z</time>
      </trkpt>
      <trkpt lat="47.91034" lon="-3.20253">
        <ele>56.52</ele>
        <time>2020-08-06T13:01:59Z</time>
      </trkpt>
      <trkpt lat="47.91033" lon="-3.20251">
        <ele>56.6</ele>
        <time>2020-08-06T13:02:00Z</time>
      </trkpt>
      <trkpt lat="47.91033" lon="-3.20243">
        <ele>57.01</ele>
        <time>2020-08-06T13:02:04Z</time>
      </trkpt>
      <trkpt lat="47.91026" lon="-3.20216">
        <ele>59.05</ele>
        <time>2020-08-06T13:02:20Z</time>
      </trkpt>
      <trkpt lat="47.91019" lon="-3.20168">
        <ele>61.31</ele>
        <time>2020-08-06T13:02:39Z</time>
      </trkpt>
      <trkpt lat="47.91011" lon="-3.20132">
        <ele>62.94</ele>
        <time>2020-08-06T13:02:54Z</time>
      </trkpt>
      <trkpt lat="47.91011" lon="-3.20102">
        <ele>63.6</ele>
        <time>2020-08-06T13:03:06Z</time>
      </trkpt>
      <trkpt lat="47.91011" lon="-3.20071">
        <ele>65.58</ele>
        <time>2020-08-06T13:03:19Z</time>
      </trkpt>
      <trkpt lat="47.9101" lon="-3.20041">
        <ele>66.49</ele>
        <time>2020-08-06T13:03:33Z</time>
      </trkpt>
      <trkpt lat="47.91011" lon="-3.20012">
        <ele>66.77</ele>
        <time>2020-08-06T13:03:47Z</time>
      </trkpt>
      <trkpt lat="47.91011" lon="-3.1998">
        <ele>66.67</ele>
        <time>2020-08-06T13:04:01Z</time>
      </trkpt>
      <trkpt lat="47.91014" lon="-3.1996">
        <ele>65.56</ele>
        <time>2020-08-06T13:04:16Z</time>
      </trkpt>
      <trkpt lat="47.91037" lon="-3.19956">
        <ele>67.51</ele>
        <time>2020-08-06T13:04:38Z</time>
      </trkpt>
      <trkpt lat="47.91048" lon="-3.19961">
        <ele>67.83</ele>
        <time>2020-08-06T13:04:45Z</time>
      </trkpt>
      <trkpt lat="47.91065" lon="-3.19968">
        <ele>67.9</ele>
        <time>2020-08-06T13:04:55Z</time>
      </trkpt>
      <trkpt lat="47.91075" lon="-3.1997">
        <ele>68.09</ele>
        <time>2020-08-06T13:05:00Z</time>
      </trkpt>
      <trkpt lat="47.9108" lon="-3.19972">
        <ele>68.56</ele>
        <time>2020-08-06T13:05:06Z</time>
      </trkpt>
      <trkpt lat="47.91116" lon="-3.19845">
        <ele>71.24</ele>
        <time>2020-08-06T13:06:45Z</time>
      </trkpt>
      <trkpt lat="47.91112" lon="-3.19837">
        <ele>70.75</ele>
        <time>2020-08-06T13:06:49Z</time>
      </trkpt>
      <trkpt lat="47.91102" lon="-3.1982">
        <ele>70.13</ele>
        <time>2020-08-06T13:06:57Z</time>
      </trkpt>
      <trkpt lat="47.91099" lon="-3.19812">
        <ele>69.92</ele>
        <time>2020-08-06T13:07:00Z</time>
      </trkpt>
      <trkpt lat="47.91092" lon="-3.19795">
        <ele>69.41</ele>
        <time>2020-08-06T13:07:08Z</time>
      </trkpt>
      <trkpt lat="47.91087" lon="-3.19781">
        <ele>69.29</ele>
        <time>2020-08-06T13:07:14Z</time>
      </trkpt>
      <trkpt lat="47.91076" lon="-3.19766">
        <ele>68.83</ele>
        <time>2020-08-06T13:07:25Z</time>
      </trkpt>
      <trkpt lat="47.91068" lon="-3.1975">
        <ele>68.53</ele>
        <time>2020-08-06T13:07:30Z</time>
      </trkpt>
      <trkpt lat="47.91063" lon="-3.19739">
        <ele>68.38</ele>
        <time>2020-08-06T13:07:36Z</time>
      </trkpt>
      <trkpt lat="47.9105" lon="-3.197">
        <ele>68.34</ele>
        <time>2020-08-06T13:07:53Z</time>
      </trkpt>
      <trkpt lat="47.91038" lon="-3.19661">
        <ele>68.84</ele>
        <time>2020-08-06T13:08:14Z</time>
      </trkpt>
      <trkpt lat="47.91036" lon="-3.19657">
        <ele>68.9</ele>
        <time>2020-08-06T13:08:16Z</time>
      </trkpt>
      <trkpt lat="47.91023" lon="-3.19625">
        <ele>68.23</ele>
        <time>2020-08-06T13:08:32Z</time>
      </trkpt>
      <trkpt lat="47.9101" lon="-3.1958">
        <ele>67.41</ele>
        <time>2020-08-06T13:08:46Z</time>
      </trkpt>
      <trkpt lat="47.91009" lon="-3.19572">
        <ele>67.27</ele>
        <time>2020-08-06T13:08:49Z</time>
      </trkpt>
      <trkpt lat="47.91008" lon="-3.19563">
        <ele>67.24</ele>
        <time>2020-08-06T13:08:53Z</time>
      </trkpt>
      <trkpt lat="47.91001" lon="-3.19533">
        <ele>67.25</ele>
        <time>2020-08-06T13:09:05Z</time>
      </trkpt>
      <trkpt lat="47.91001" lon="-3.19531">
        <ele>67.27</ele>
        <time>2020-08-06T13:09:06Z</time>
      </trkpt>
      <trkpt lat="47.91001" lon="-3.19501">
        <ele>67.28</ele>
        <time>2020-08-06T13:09:18Z</time>
      </trkpt>
      <trkpt lat="47.91009" lon="-3.19494">
        <ele>69.37</ele>
        <time>2020-08-06T13:09:30Z</time>
      </trkpt>
      <trkpt lat="47.91011" lon="-3.19491">
        <ele>70.5</ele>
        <time>2020-08-06T13:09:33Z</time>
      </trkpt>
      <trkpt lat="47.91036" lon="-3.19418">
        <ele>73.57</ele>
        <time>2020-08-06T13:10:19Z</time>
      </trkpt>
      <trkpt lat="47.91036" lon="-3.19409">
        <ele>73.52</ele>
        <time>2020-08-06T13:10:22Z</time>
      </trkpt>
      <trkpt lat="47.91034" lon="-3.19395">
        <ele>73.46</ele>
        <time>2020-08-06T13:10:26Z</time>
      </trkpt>
      <trkpt lat="47.91033" lon="-3.19382">
        <ele>73.46</ele>
        <time>2020-08-06T13:10:31Z</time>
      </trkpt>
      <trkpt lat="47.91034" lon="-3.19338">
        <ele>74.07</ele>
        <time>2020-08-06T13:10:43Z</time>
      </trkpt>
      <trkpt lat="47.91028" lon="-3.19293">
        <ele>73.54</ele>
        <time>2020-08-06T13:11:00Z</time>
      </trkpt>
      <trkpt lat="47.91025" lon="-3.19271">
        <ele>70.99</ele>
        <time>2020-08-06T13:11:19Z</time>
      </trkpt>
      <trkpt lat="47.91036" lon="-3.1926">
        <ele>74.16</ele>
        <time>2020-08-06T13:11:46Z</time>
      </trkpt>
      <trkpt lat="47.91039" lon="-3.19253">
        <ele>74.35</ele>
        <time>2020-08-06T13:11:49Z</time>
      </trkpt>
      <trkpt lat="47.91039" lon="-3.19249">
        <ele>74.37</ele>
        <time>2020-08-06T13:11:51Z</time>
      </trkpt>
      <trkpt lat="47.91041" lon="-3.19244">
        <ele>74.35</ele>
        <time>2020-08-06T13:11:54Z</time>
      </trkpt>
      <trkpt lat="47.91042" lon="-3.1924">
        <ele>74.22</ele>
        <time>2020-08-06T13:11:56Z</time>
      </trkpt>
      <trkpt lat="47.91044" lon="-3.19232">
        <ele>73.79</ele>
        <time>2020-08-06T13:12:03Z</time>
      </trkpt>
      <trkpt lat="47.91044" lon="-3.19227">
        <ele>73.56</ele>
        <time>2020-08-06T13:12:06Z</time>
      </trkpt>
      <trkpt lat="47.91043" lon="-3.19214">
        <ele>72.82</ele>
        <time>2020-08-06T13:12:21Z</time>
      </trkpt>
      <trkpt lat="47.91042" lon="-3.19212">
        <ele>72.87</ele>
        <time>2020-08-06T13:12:27Z</time>
      </trkpt>
      <trkpt lat="47.91042" lon="-3.19206">
        <ele>72.78</ele>
        <time>2020-08-06T13:12:37Z</time>
      </trkpt>
      <trkpt lat="47.91041" lon="-3.19203">
        <ele>72.97</ele>
        <time>2020-08-06T13:12:43Z</time>
      </trkpt>
      <trkpt lat="47.91071" lon="-3.19155">
        <ele>73.29</ele>
        <time>2020-08-06T13:14:01Z</time>
      </trkpt>
      <trkpt lat="47.91068" lon="-3.19151">
        <ele>73.51</ele>
        <time>2020-08-06T13:14:07Z</time>
      </trkpt>
      <trkpt lat="47.91001" lon="-3.19089">
        <ele>70.74</ele>
        <time>2020-08-06T13:15:02Z</time>
      </trkpt>
      <trkpt lat="47.90985" lon="-3.19077">
        <ele>69.93</ele>
        <time>2020-08-06T13:15:15Z</time>
      </trkpt>
      <trkpt lat="47.90972" lon="-3.19063">
        <ele>69.34</ele>
        <time>2020-08-06T13:15:27Z</time>
      </trkpt>
      <trkpt lat="47.9097" lon="-3.19058">
        <ele>69.24</ele>
        <time>2020-08-06T13:15:29Z</time>
      </trkpt>
      <trkpt lat="47.90967" lon="-3.19051">
        <ele>69.1</ele>
        <time>2020-08-06T13:15:33Z</time>
      </trkpt>
      <trkpt lat="47.90953" lon="-3.19012">
        <ele>68.75</ele>
        <time>2020-08-06T13:15:55Z</time>
      </trkpt>
      <trkpt lat="47.90944" lon="-3.18989">
        <ele>67.47</ele>
        <time>2020-08-06T13:16:07Z</time>
      </trkpt>
      <trkpt lat="47.90932" lon="-3.18953">
        <ele>64.54</ele>
        <time>2020-08-06T13:16:27Z</time>
      </trkpt>
      <trkpt lat="47.90931" lon="-3.18947">
        <ele>63.86</ele>
        <time>2020-08-06T13:16:30Z</time>
      </trkpt>
      <trkpt lat="47.90917" lon="-3.18913">
        <ele>60.53</ele>
        <time>2020-08-06T13:16:47Z</time>
      </trkpt>
      <trkpt lat="47.90907" lon="-3.18878">
        <ele>57.67</ele>
        <time>2020-08-06T13:17:06Z</time>
      </trkpt>
      <trkpt lat="47.90904" lon="-3.18872">
        <ele>57.13</ele>
        <time>2020-08-06T13:17:09Z</time>
      </trkpt>
      <trkpt lat="47.90899" lon="-3.18848">
        <ele>54.98</ele>
        <time>2020-08-06T13:17:20Z</time>
      </trkpt>
      <trkpt lat="47.90893" lon="-3.18824">
        <ele>53.2</ele>
        <time>2020-08-06T13:17:32Z</time>
      </trkpt>
      <trkpt lat="47.90885" lon="-3.18791">
        <ele>51.03</ele>
        <time>2020-08-06T13:17:46Z</time>
      </trkpt>
      <trkpt lat="47.90883" lon="-3.18766">
        <ele>50.26</ele>
        <time>2020-08-06T13:17:55Z</time>
      </trkpt>
      <trkpt lat="47.90881" lon="-3.18733">
        <ele>51.75</ele>
        <time>2020-08-06T13:18:09Z</time>
      </trkpt>
      <trkpt lat="47.9088" lon="-3.18591">
        <ele>60.44</ele>
        <time>2020-08-06T13:19:16Z</time>
      </trkpt>
      <trkpt lat="47.90883" lon="-3.18586">
        <ele>60.88</ele>
        <time>2020-08-06T13:19:19Z</time>
      </trkpt>
      <trkpt lat="47.90898" lon="-3.18567">
        <ele>63.18</ele>
        <time>2020-08-06T13:19:33Z</time>
      </trkpt>
      <trkpt lat="47.90913" lon="-3.18554">
        <ele>65.76</ele>
        <time>2020-08-06T13:19:46Z</time>
      </trkpt>
      <trkpt lat="47.90926" lon="-3.18545">
        <ele>66.32</ele>
        <time>2020-08-06T13:19:55Z</time>
      </trkpt>
      <trkpt lat="47.90939" lon="-3.18533">
        <ele>65.52</ele>
        <time>2020-08-06T13:20:06Z</time>
      </trkpt>
      <trkpt lat="47.9094" lon="-3.18529">
        <ele>65.24</ele>
        <time>2020-08-06T13:20:08Z</time>
      </trkpt>
      <trkpt lat="47.90937" lon="-3.18498">
        <ele>62.86</ele>
        <time>2020-08-06T13:20:19Z</time>
      </trkpt>
      <trkpt lat="47.9091" lon="-3.18474">
        <ele>61.06</ele>
        <time>2020-08-06T13:20:35Z</time>
      </trkpt>
      <trkpt lat="47.90909" lon="-3.18473">
        <ele>60.95</ele>
        <time>2020-08-06T13:20:36Z</time>
      </trkpt>
      <trkpt lat="47.909" lon="-3.18465">
        <ele>60.47</ele>
        <time>2020-08-06T13:20:40Z</time>
      </trkpt>
      <trkpt lat="47.90886" lon="-3.18464">
        <ele>60.16</ele>
        <time>2020-08-06T13:20:46Z</time>
      </trkpt>
      <trkpt lat="47.90879" lon="-3.18461">
        <ele>60.05</ele>
        <time>2020-08-06T13:20:50Z</time>
      </trkpt>
      <trkpt lat="47.90871" lon="-3.1845">
        <ele>60.22</ele>
        <time>2020-08-06T13:20:59Z</time>
      </trkpt>
      <trkpt lat="47.90867" lon="-3.18433">
        <ele>60.91</ele>
        <time>2020-08-06T13:21:08Z</time>
      </trkpt>
      <trkpt lat="47.9086" lon="-3.18401">
        <ele>62.73</ele>
        <time>2020-08-06T13:21:24Z</time>
      </trkpt>
      <trkpt lat="47.90849" lon="-3.18362">
        <ele>64.17</ele>
        <time>2020-08-06T13:21:37Z</time>
      </trkpt>
      <trkpt lat="47.90843" lon="-3.18338">
        <ele>65.44</ele>
        <time>2020-08-06T13:21:49Z</time>
      </trkpt>
      <trkpt lat="47.90841" lon="-3.18321">
        <ele>65.93</ele>
        <time>2020-08-06T13:21:59Z</time>
      </trkpt>
      <trkpt lat="47.90826" lon="-3.18304">
        <ele>65.1</ele>
        <time>2020-08-06T13:22:13Z</time>
      </trkpt>
      <trkpt lat="47.90823" lon="-3.18298">
        <ele>64.47</ele>
        <time>2020-08-06T13:22:17Z</time>
      </trkpt>
      <trkpt lat="47.90809" lon="-3.1829">
        <ele>62.87</ele>
        <time>2020-08-06T13:22:28Z</time>
      </trkpt>
      <trkpt lat="47.90792" lon="-3.1829">
        <ele>59.94</ele>
        <time>2020-08-06T13:22:44Z</time>
      </trkpt>
      <trkpt lat="47.90772" lon="-3.18293">
        <ele>56.85</ele>
        <time>2020-08-06T13:23:01Z</time>
      </trkpt>
      <trkpt lat="47.90757" lon="-3.18302">
        <ele>54.21</ele>
        <time>2020-08-06T13:23:12Z</time>
      </trkpt>
      <trkpt lat="47.90746" lon="-3.18308">
        <ele>52.3</ele>
        <time>2020-08-06T13:23:21Z</time>
      </trkpt>
      <trkpt lat="47.90741" lon="-3.1831">
        <ele>51.44</ele>
        <time>2020-08-06T13:23:25Z</time>
      </trkpt>
      <trkpt lat="47.90735" lon="-3.18315">
        <ele>50.41</ele>
        <time>2020-08-06T13:23:31Z</time>
      </trkpt>
      <trkpt lat="47.90733" lon="-3.18351">
        <ele>48.02</ele>
        <time>2020-08-06T13:23:46Z</time>
      </trkpt>
      <trkpt lat="47.90732" lon="-3.1838">
        <ele>46.47</ele>
        <time>2020-08-06T13:23:58Z</time>
      </trkpt>
      <trkpt lat="47.90733" lon="-3.1841">
        <ele>44.69</ele>
        <time>2020-08-06T13:24:10Z</time>
      </trkpt>
      <trkpt lat="47.90733" lon="-3.18451">
        <ele>43.07</ele>
        <time>2020-08-06T13:24:22Z</time>
      </trkpt>
      <trkpt lat="47.90734" lon="-3.18481">
        <ele>41.29</ele>
        <time>2020-08-06T13:24:34Z</time>
      </trkpt>
      <trkpt lat="47.90735" lon="-3.18511">
        <ele>40.71</ele>
        <time>2020-08-06T13:24:44Z</time>
      </trkpt>
      <trkpt lat="47.90737" lon="-3.18538">
        <ele>40.47</ele>
        <time>2020-08-06T13:24:57Z</time>
      </trkpt>
      <trkpt lat="47.90737" lon="-3.1855">
        <ele>40.56</ele>
        <time>2020-08-06T13:25:01Z</time>
      </trkpt>
      <trkpt lat="47.90737" lon="-3.18554">
        <ele>40.64</ele>
        <time>2020-08-06T13:25:02Z</time>
      </trkpt>
      <trkpt lat="47.90736" lon="-3.18558">
        <ele>40.81</ele>
        <time>2020-08-06T13:25:03Z</time>
      </trkpt>
      <trkpt lat="47.90736" lon="-3.18561">
        <ele>40.86</ele>
        <time>2020-08-06T13:25:04Z</time>
      </trkpt>
      <trkpt lat="47.90735" lon="-3.18563">
        <ele>40.93</ele>
        <time>2020-08-06T13:25:05Z</time>
      </trkpt>
      <trkpt lat="47.90735" lon="-3.18575">
        <ele>41.61</ele>
        <time>2020-08-06T13:25:12Z</time>
      </trkpt>
      <trkpt lat="47.90736" lon="-3.18578">
        <ele>41.72</ele>
        <time>2020-08-06T13:25:13Z</time>
      </trkpt>
      <trkpt lat="47.90736" lon="-3.18581">
        <ele>41.82</ele>
        <time>2020-08-06T13:25:14Z</time>
      </trkpt>
      <trkpt lat="47.90736" lon="-3.18599">
        <ele>42.4</ele>
        <time>2020-08-06T13:25:24Z</time>
      </trkpt>
      <trkpt lat="47.90735" lon="-3.18602">
        <ele>42.51</ele>
        <time>2020-08-06T13:25:25Z</time>
      </trkpt>
      <trkpt lat="47.9073" lon="-3.18651">
        <ele>44.19</ele>
        <time>2020-08-06T13:25:41Z</time>
      </trkpt>
      <trkpt lat="47.90723" lon="-3.18675">
        <ele>45.28</ele>
        <time>2020-08-06T13:25:52Z</time>
      </trkpt>
      <trkpt lat="47.90718" lon="-3.18697">
        <ele>46.19</ele>
        <time>2020-08-06T13:26:02Z</time>
      </trkpt>
      <trkpt lat="47.90718" lon="-3.187">
        <ele>46.31</ele>
        <time>2020-08-06T13:26:03Z</time>
      </trkpt>
      <trkpt lat="47.90717" lon="-3.18701">
        <ele>46.44</ele>
        <time>2020-08-06T13:26:04Z</time>
      </trkpt>
      <trkpt lat="47.90703" lon="-3.18738">
        <ele>47.32</ele>
        <time>2020-08-06T13:26:16Z</time>
      </trkpt>
      <trkpt lat="47.90693" lon="-3.18769">
        <ele>48.89</ele>
        <time>2020-08-06T13:26:28Z</time>
      </trkpt>
      <trkpt lat="47.90685" lon="-3.18797">
        <ele>50.04</ele>
        <time>2020-08-06T13:26:41Z</time>
      </trkpt>
      <trkpt lat="47.90675" lon="-3.18835">
        <ele>51.92</ele>
        <time>2020-08-06T13:26:55Z</time>
      </trkpt>
      <trkpt lat="47.90665" lon="-3.18865">
        <ele>54.3</ele>
        <time>2020-08-06T13:27:10Z</time>
      </trkpt>
      <trkpt lat="47.90659" lon="-3.18887">
        <ele>56.04</ele>
        <time>2020-08-06T13:27:22Z</time>
      </trkpt>
      <trkpt lat="47.90658" lon="-3.18889">
        <ele>56.12</ele>
        <time>2020-08-06T13:27:23Z</time>
      </trkpt>
      <trkpt lat="47.90657" lon="-3.18892">
        <ele>56.21</ele>
        <time>2020-08-06T13:27:24Z</time>
      </trkpt>
      <trkpt lat="47.90656" lon="-3.18895">
        <ele>56.33</ele>
        <time>2020-08-06T13:27:25Z</time>
      </trkpt>
      <trkpt lat="47.90656" lon="-3.18898">
        <ele>56.5</ele>
        <time>2020-08-06T13:27:26Z</time>
      </trkpt>
      <trkpt lat="47.90655" lon="-3.18902">
        <ele>56.72</ele>
        <time>2020-08-06T13:27:27Z</time>
      </trkpt>
      <trkpt lat="47.90654" lon="-3.18905">
        <ele>56.94</ele>
        <time>2020-08-06T13:27:28Z</time>
      </trkpt>
      <trkpt lat="47.90654" lon="-3.18908">
        <ele>57.15</ele>
        <time>2020-08-06T13:27:29Z</time>
      </trkpt>
      <trkpt lat="47.90653" lon="-3.1891">
        <ele>57.32</ele>
        <time>2020-08-06T13:27:30Z</time>
      </trkpt>
      <trkpt lat="47.90653" lon="-3.18912">
        <ele>57.48</ele>
        <time>2020-08-06T13:27:31Z</time>
      </trkpt>
      <trkpt lat="47.90644" lon="-3.18941">
        <ele>59.57</ele>
        <time>2020-08-06T13:27:46Z</time>
      </trkpt>
      <trkpt lat="47.90636" lon="-3.18939">
        <ele>60.88</ele>
        <time>2020-08-06T13:27:58Z</time>
      </trkpt>
      <trkpt lat="47.90635" lon="-3.18936">
        <ele>61.07</ele>
        <time>2020-08-06T13:28:00Z</time>
      </trkpt>
      <trkpt lat="47.90624" lon="-3.1889">
        <ele>62.27</ele>
        <time>2020-08-06T13:28:19Z</time>
      </trkpt>
      <trkpt lat="47.90615" lon="-3.18875">
        <ele>62.68</ele>
        <time>2020-08-06T13:28:28Z</time>
      </trkpt>
      <trkpt lat="47.9061" lon="-3.18875">
        <ele>62.69</ele>
        <time>2020-08-06T13:28:32Z</time>
      </trkpt>
      <trkpt lat="47.90606" lon="-3.18897">
        <ele>63.71</ele>
        <time>2020-08-06T13:28:47Z</time>
      </trkpt>
      <trkpt lat="47.90598" lon="-3.18899">
        <ele>63.74</ele>
        <time>2020-08-06T13:29:06Z</time>
      </trkpt>
      <trkpt lat="47.90585" lon="-3.18898">
        <ele>65.5</ele>
        <time>2020-08-06T13:29:16Z</time>
      </trkpt>
      <trkpt lat="47.90583" lon="-3.18895">
        <ele>66.05</ele>
        <time>2020-08-06T13:29:19Z</time>
      </trkpt>
      <trkpt lat="47.90583" lon="-3.18868">
        <ele>67.65</ele>
        <time>2020-08-06T13:29:32Z</time>
      </trkpt>
      <trkpt lat="47.90569" lon="-3.1885">
        <ele>69.04</ele>
        <time>2020-08-06T13:29:42Z</time>
      </trkpt>
      <trkpt lat="47.90563" lon="-3.18848">
        <ele>69.78</ele>
        <time>2020-08-06T13:29:47Z</time>
      </trkpt>
      <trkpt lat="47.9056" lon="-3.18846">
        <ele>70.19</ele>
        <time>2020-08-06T13:29:50Z</time>
      </trkpt>
      <trkpt lat="47.90549" lon="-3.18849">
        <ele>71.25</ele>
        <time>2020-08-06T13:29:58Z</time>
      </trkpt>
      <trkpt lat="47.90541" lon="-3.18846">
        <ele>71.7</ele>
        <time>2020-08-06T13:30:02Z</time>
      </trkpt>
      <trkpt lat="47.90539" lon="-3.18846">
        <ele>71.7</ele>
        <time>2020-08-06T13:30:03Z</time>
      </trkpt>
      <trkpt lat="47.90536" lon="-3.18846">
        <ele>71.75</ele>
        <time>2020-08-06T13:30:06Z</time>
      </trkpt>
      <trkpt lat="47.90533" lon="-3.18845">
        <ele>71.82</ele>
        <time>2020-08-06T13:30:09Z</time>
      </trkpt>
      <trkpt lat="47.90524" lon="-3.18839">
        <ele>73.04</ele>
        <time>2020-08-06T13:30:15Z</time>
      </trkpt>
      <trkpt lat="47.90518" lon="-3.18846">
        <ele>74.43</ele>
        <time>2020-08-06T13:30:21Z</time>
      </trkpt>
      <trkpt lat="47.90506" lon="-3.18841">
        <ele>77.61</ele>
        <time>2020-08-06T13:30:34Z</time>
      </trkpt>
      <trkpt lat="47.90502" lon="-3.18848">
        <ele>79.99</ele>
        <time>2020-08-06T13:30:46Z</time>
      </trkpt>
      <trkpt lat="47.90483" lon="-3.18991">
        <ele>90.74</ele>
        <time>2020-08-06T13:31:55Z</time>
      </trkpt>
      <trkpt lat="47.90485" lon="-3.19009">
        <ele>93.09</ele>
        <time>2020-08-06T13:32:07Z</time>
      </trkpt>
      <trkpt lat="47.90487" lon="-3.19025">
        <ele>94.75</ele>
        <time>2020-08-06T13:32:18Z</time>
      </trkpt>
      <trkpt lat="47.9048" lon="-3.19068">
        <ele>97.38</ele>
        <time>2020-08-06T13:32:33Z</time>
      </trkpt>
      <trkpt lat="47.9048" lon="-3.19095">
        <ele>98.36</ele>
        <time>2020-08-06T13:32:41Z</time>
      </trkpt>
      <trkpt lat="47.90478" lon="-3.19103">
        <ele>98.63</ele>
        <time>2020-08-06T13:32:44Z</time>
      </trkpt>
      <trkpt lat="47.90473" lon="-3.19114">
        <ele>98.86</ele>
        <time>2020-08-06T13:32:48Z</time>
      </trkpt>
      <trkpt lat="47.90466" lon="-3.19124">
        <ele>99.6</ele>
        <time>2020-08-06T13:32:53Z</time>
      </trkpt>
      <trkpt lat="47.90453" lon="-3.19138">
        <ele>101.51</ele>
        <time>2020-08-06T13:33:07Z</time>
      </trkpt>
      <trkpt lat="47.90439" lon="-3.19158">
        <ele>103.64</ele>
        <time>2020-08-06T13:33:23Z</time>
      </trkpt>
      <trkpt lat="47.90423" lon="-3.19172">
        <ele>103.87</ele>
        <time>2020-08-06T13:33:33Z</time>
      </trkpt>
      <trkpt lat="47.90399" lon="-3.19188">
        <ele>102.85</ele>
        <time>2020-08-06T13:33:48Z</time>
      </trkpt>
      <trkpt lat="47.90383" lon="-3.1919">
        <ele>102.41</ele>
        <time>2020-08-06T13:33:59Z</time>
      </trkpt>
      <trkpt lat="47.90365" lon="-3.19189">
        <ele>101.67</ele>
        <time>2020-08-06T13:34:13Z</time>
      </trkpt>
      <trkpt lat="47.90357" lon="-3.19193">
        <ele>101.48</ele>
        <time>2020-08-06T13:34:16Z</time>
      </trkpt>
      <trkpt lat="47.90352" lon="-3.19192">
        <ele>101.33</ele>
        <time>2020-08-06T13:34:19Z</time>
      </trkpt>
      <trkpt lat="47.90332" lon="-3.19188">
        <ele>100.58</ele>
        <time>2020-08-06T13:34:32Z</time>
      </trkpt>
      <trkpt lat="47.90321" lon="-3.19188">
        <ele>99.95</ele>
        <time>2020-08-06T13:34:40Z</time>
      </trkpt>
      <trkpt lat="47.90311" lon="-3.19184">
        <ele>99.58</ele>
        <time>2020-08-06T13:34:46Z</time>
      </trkpt>
      <trkpt lat="47.90286" lon="-3.19173">
        <ele>98.84</ele>
        <time>2020-08-06T13:35:00Z</time>
      </trkpt>
      <trkpt lat="47.90273" lon="-3.19158">
        <ele>98.66</ele>
        <time>2020-08-06T13:35:15Z</time>
      </trkpt>
      <trkpt lat="47.90265" lon="-3.19142">
        <ele>99.4</ele>
        <time>2020-08-06T13:35:26Z</time>
      </trkpt>
      <trkpt lat="47.90263" lon="-3.19139">
        <ele>99.41</ele>
        <time>2020-08-06T13:35:28Z</time>
      </trkpt>
      <trkpt lat="47.90257" lon="-3.19131">
        <ele>99.57</ele>
        <time>2020-08-06T13:35:33Z</time>
      </trkpt>
      <trkpt lat="47.90238" lon="-3.19108">
        <ele>99.91</ele>
        <time>2020-08-06T13:35:49Z</time>
      </trkpt>
      <trkpt lat="47.90216" lon="-3.19092">
        <ele>99.71</ele>
        <time>2020-08-06T13:36:05Z</time>
      </trkpt>
      <trkpt lat="47.90215" lon="-3.19092">
        <ele>99.68</ele>
        <time>2020-08-06T13:36:06Z</time>
      </trkpt>
      <trkpt lat="47.90214" lon="-3.19091">
        <ele>99.65</ele>
        <time>2020-08-06T13:36:07Z</time>
      </trkpt>
      <trkpt lat="47.90212" lon="-3.1909">
        <ele>99.6</ele>
        <time>2020-08-06T13:36:08Z</time>
      </trkpt>
      <trkpt lat="47.90211" lon="-3.19089">
        <ele>99.55</ele>
        <time>2020-08-06T13:36:09Z</time>
      </trkpt>
      <trkpt lat="47.9021" lon="-3.19088">
        <ele>99.53</ele>
        <time>2020-08-06T13:36:10Z</time>
      </trkpt>
      <trkpt lat="47.90208" lon="-3.19087">
        <ele>99.5</ele>
        <time>2020-08-06T13:36:11Z</time>
      </trkpt>
      <trkpt lat="47.90207" lon="-3.19086">
        <ele>99.47</ele>
        <time>2020-08-06T13:36:12Z</time>
      </trkpt>
      <trkpt lat="47.90206" lon="-3.19085">
        <ele>99.45</ele>
        <time>2020-08-06T13:36:13Z</time>
      </trkpt>
      <trkpt lat="47.90183" lon="-3.19067">
        <ele>99.11</ele>
        <time>2020-08-06T13:36:31Z</time>
      </trkpt>
      <trkpt lat="47.90175" lon="-3.1903">
        <ele>98.49</ele>
        <time>2020-08-06T13:36:42Z</time>
      </trkpt>
      <trkpt lat="47.90176" lon="-3.18998">
        <ele>97.88</ele>
        <time>2020-08-06T13:36:52Z</time>
      </trkpt>
      <trkpt lat="47.90178" lon="-3.18967">
        <ele>97.86</ele>
        <time>2020-08-06T13:37:06Z</time>
      </trkpt>
      <trkpt lat="47.90178" lon="-3.18966">
        <ele>97.92</ele>
        <time>2020-08-06T13:37:08Z</time>
      </trkpt>
      <trkpt lat="47.90176" lon="-3.18957">
        <ele>98.28</ele>
        <time>2020-08-06T13:37:47Z</time>
      </trkpt>
      <trkpt lat="47.90176" lon="-3.18956">
        <ele>98.3</ele>
        <time>2020-08-06T13:37:48Z</time>
      </trkpt>
      <trkpt lat="47.90174" lon="-3.18953">
        <ele>98.42</ele>
        <time>2020-08-06T13:37:52Z</time>
      </trkpt>
      <trkpt lat="47.90173" lon="-3.18951">
        <ele>98.45</ele>
        <time>2020-08-06T13:37:53Z</time>
      </trkpt>
      <trkpt lat="47.90172" lon="-3.18948">
        <ele>98.6</ele>
        <time>2020-08-06T13:37:55Z</time>
      </trkpt>
      <trkpt lat="47.90165" lon="-3.18911">
        <ele>99.64</ele>
        <time>2020-08-06T13:38:12Z</time>
      </trkpt>
      <trkpt lat="47.9015" lon="-3.18878">
        <ele>99.99</ele>
        <time>2020-08-06T13:38:25Z</time>
      </trkpt>
      <trkpt lat="47.90137" lon="-3.18856">
        <ele>99.85</ele>
        <time>2020-08-06T13:38:39Z</time>
      </trkpt>
      <trkpt lat="47.90134" lon="-3.18849">
        <ele>100.09</ele>
        <time>2020-08-06T13:38:47Z</time>
      </trkpt>
      <trkpt lat="47.90127" lon="-3.18834">
        <ele>100.11</ele>
        <time>2020-08-06T13:39:19Z</time>
      </trkpt>
      <trkpt lat="47.90126" lon="-3.18829">
        <ele>100.15</ele>
        <time>2020-08-06T13:39:20Z</time>
      </trkpt>
      <trkpt lat="47.90125" lon="-3.18826">
        <ele>100.23</ele>
        <time>2020-08-06T13:39:21Z</time>
      </trkpt>
      <trkpt lat="47.90124" lon="-3.18823">
        <ele>100.34</ele>
        <time>2020-08-06T13:39:22Z</time>
      </trkpt>
      <trkpt lat="47.90124" lon="-3.18822">
        <ele>100.41</ele>
        <time>2020-08-06T13:39:23Z</time>
      </trkpt>
      <trkpt lat="47.90123" lon="-3.1882">
        <ele>100.48</ele>
        <time>2020-08-06T13:39:24Z</time>
      </trkpt>
      <trkpt lat="47.90121" lon="-3.18809">
        <ele>101.02</ele>
        <time>2020-08-06T13:39:32Z</time>
      </trkpt>
      <trkpt lat="47.90121" lon="-3.18807">
        <ele>101.06</ele>
        <time>2020-08-06T13:39:33Z</time>
      </trkpt>
      <trkpt lat="47.9012" lon="-3.18804">
        <ele>101.13</ele>
        <time>2020-08-06T13:39:35Z</time>
      </trkpt>
      <trkpt lat="47.90116" lon="-3.18779">
        <ele>101.71</ele>
        <time>2020-08-06T13:39:48Z</time>
      </trkpt>
      <trkpt lat="47.90109" lon="-3.18741">
        <ele>102.3</ele>
        <time>2020-08-06T13:40:05Z</time>
      </trkpt>
      <trkpt lat="47.90108" lon="-3.18739">
        <ele>102.33</ele>
        <time>2020-08-06T13:40:06Z</time>
      </trkpt>
      <trkpt lat="47.90107" lon="-3.18739">
        <ele>102.4</ele>
        <time>2020-08-06T13:40:07Z</time>
      </trkpt>
      <trkpt lat="47.90106" lon="-3.18739">
        <ele>102.46</ele>
        <time>2020-08-06T13:40:08Z</time>
      </trkpt>
      <trkpt lat="47.90105" lon="-3.18744">
        <ele>102.53</ele>
        <time>2020-08-06T13:40:10Z</time>
      </trkpt>
      <trkpt lat="47.90106" lon="-3.18748">
        <ele>102.56</ele>
        <time>2020-08-06T13:40:11Z</time>
      </trkpt>
      <trkpt lat="47.90107" lon="-3.18753">
        <ele>102.55</ele>
        <time>2020-08-06T13:40:12Z</time>
      </trkpt>
      <trkpt lat="47.90108" lon="-3.18784">
        <ele>101.99</ele>
        <time>2020-08-06T13:40:22Z</time>
      </trkpt>
      <trkpt lat="47.90109" lon="-3.18802">
        <ele>101.05</ele>
        <time>2020-08-06T13:40:31Z</time>
      </trkpt>
      <trkpt lat="47.90118" lon="-3.18836">
        <ele>100.33</ele>
        <time>2020-08-06T13:40:46Z</time>
      </trkpt>
      <trkpt lat="47.9012" lon="-3.18847">
        <ele>100.2</ele>
        <time>2020-08-06T13:40:52Z</time>
      </trkpt>
      <trkpt lat="47.90123" lon="-3.18868">
        <ele>99.5</ele>
        <time>2020-08-06T13:41:04Z</time>
      </trkpt>
      <trkpt lat="47.90124" lon="-3.18872">
        <ele>99.31</ele>
        <time>2020-08-06T13:41:06Z</time>
      </trkpt>
      <trkpt lat="47.90125" lon="-3.18874">
        <ele>99.24</ele>
        <time>2020-08-06T13:41:07Z</time>
      </trkpt>
      <trkpt lat="47.90125" lon="-3.18876">
        <ele>99.16</ele>
        <time>2020-08-06T13:41:08Z</time>
      </trkpt>
      <trkpt lat="47.90126" lon="-3.18878">
        <ele>99.09</ele>
        <time>2020-08-06T13:41:09Z</time>
      </trkpt>
      <trkpt lat="47.90128" lon="-3.18888">
        <ele>98.43</ele>
        <time>2020-08-06T13:41:15Z</time>
      </trkpt>
      <trkpt lat="47.90123" lon="-3.18913">
        <ele>98.76</ele>
        <time>2020-08-06T13:41:26Z</time>
      </trkpt>
      <trkpt lat="47.90107" lon="-3.18935">
        <ele>97.1</ele>
        <time>2020-08-06T13:41:39Z</time>
      </trkpt>
      <trkpt lat="47.9009" lon="-3.18967">
        <ele>95.91</ele>
        <time>2020-08-06T13:41:51Z</time>
      </trkpt>
      <trkpt lat="47.90085" lon="-3.19005">
        <ele>96.26</ele>
        <time>2020-08-06T13:42:03Z</time>
      </trkpt>
      <trkpt lat="47.9008" lon="-3.1903">
        <ele>97.7</ele>
        <time>2020-08-06T13:42:18Z</time>
      </trkpt>
      <trkpt lat="47.90068" lon="-3.19044">
        <ele>98</ele>
        <time>2020-08-06T13:42:28Z</time>
      </trkpt>
      <trkpt lat="47.90067" lon="-3.19045">
        <ele>97.99</ele>
        <time>2020-08-06T13:42:29Z</time>
      </trkpt>
      <trkpt lat="47.90062" lon="-3.19051">
        <ele>97.86</ele>
        <time>2020-08-06T13:42:34Z</time>
      </trkpt>
      <trkpt lat="47.90045" lon="-3.19066">
        <ele>97.44</ele>
        <time>2020-08-06T13:42:48Z</time>
      </trkpt>
      <trkpt lat="47.90044" lon="-3.19069">
        <ele>97.44</ele>
        <time>2020-08-06T13:42:50Z</time>
      </trkpt>
      <trkpt lat="47.90041" lon="-3.19082">
        <ele>97.19</ele>
        <time>2020-08-06T13:42:59Z</time>
      </trkpt>
      <trkpt lat="47.90037" lon="-3.19092">
        <ele>96.94</ele>
        <time>2020-08-06T13:43:05Z</time>
      </trkpt>
      <trkpt lat="47.90016" lon="-3.19117">
        <ele>94.87</ele>
        <time>2020-08-06T13:43:26Z</time>
      </trkpt>
      <trkpt lat="47.89993" lon="-3.19116">
        <ele>93.74</ele>
        <time>2020-08-06T13:43:43Z</time>
      </trkpt>
      <trkpt lat="47.8998" lon="-3.19109">
        <ele>92.5</ele>
        <time>2020-08-06T13:43:55Z</time>
      </trkpt>
      <trkpt lat="47.89949" lon="-3.19104">
        <ele>90.13</ele>
        <time>2020-08-06T13:44:14Z</time>
      </trkpt>
      <trkpt lat="47.89945" lon="-3.19102">
        <ele>89.88</ele>
        <time>2020-08-06T13:44:17Z</time>
      </trkpt>
      <trkpt lat="47.89933" lon="-3.19094">
        <ele>88.71</ele>
        <time>2020-08-06T13:44:25Z</time>
      </trkpt>
      <trkpt lat="47.89924" lon="-3.19081">
        <ele>87.9</ele>
        <time>2020-08-06T13:44:31Z</time>
      </trkpt>
      <trkpt lat="47.89919" lon="-3.1907">
        <ele>87</ele>
        <time>2020-08-06T13:44:37Z</time>
      </trkpt>
      <trkpt lat="47.89912" lon="-3.19043">
        <ele>84.75</ele>
        <time>2020-08-06T13:44:52Z</time>
      </trkpt>
      <trkpt lat="47.89914" lon="-3.1904">
        <ele>84.2</ele>
        <time>2020-08-06T13:44:56Z</time>
      </trkpt>
      <trkpt lat="47.89914" lon="-3.19035">
        <ele>84.04</ele>
        <time>2020-08-06T13:44:58Z</time>
      </trkpt>
      <trkpt lat="47.89915" lon="-3.19031">
        <ele>83.82</ele>
        <time>2020-08-06T13:45:01Z</time>
      </trkpt>
      <trkpt lat="47.89918" lon="-3.19002">
        <ele>83.18</ele>
        <time>2020-08-06T13:45:11Z</time>
      </trkpt>
      <trkpt lat="47.89912" lon="-3.18984">
        <ele>82.82</ele>
        <time>2020-08-06T13:45:20Z</time>
      </trkpt>
      <trkpt lat="47.89904" lon="-3.18971">
        <ele>82.55</ele>
        <time>2020-08-06T13:45:27Z</time>
      </trkpt>
      <trkpt lat="47.89899" lon="-3.18961">
        <ele>82.74</ele>
        <time>2020-08-06T13:45:32Z</time>
      </trkpt>
      <trkpt lat="47.89895" lon="-3.18955">
        <ele>82.9</ele>
        <time>2020-08-06T13:45:36Z</time>
      </trkpt>
      <trkpt lat="47.89891" lon="-3.18935">
        <ele>83.97</ele>
        <time>2020-08-06T13:45:49Z</time>
      </trkpt>
      <trkpt lat="47.89889" lon="-3.18915">
        <ele>85.81</ele>
        <time>2020-08-06T13:46:01Z</time>
      </trkpt>
      <trkpt lat="47.89886" lon="-3.18885">
        <ele>87.54</ele>
        <time>2020-08-06T13:46:16Z</time>
      </trkpt>
      <trkpt lat="47.89882" lon="-3.18857">
        <ele>88.88</ele>
        <time>2020-08-06T13:46:31Z</time>
      </trkpt>
      <trkpt lat="47.89871" lon="-3.18812">
        <ele>89.75</ele>
        <time>2020-08-06T13:46:51Z</time>
      </trkpt>
      <trkpt lat="47.89865" lon="-3.18797">
        <ele>89.48</ele>
        <time>2020-08-06T13:47:00Z</time>
      </trkpt>
      <trkpt lat="47.89851" lon="-3.18776">
        <ele>89.91</ele>
        <time>2020-08-06T13:47:07Z</time>
      </trkpt>
      <trkpt lat="47.89838" lon="-3.18772">
        <ele>88.4</ele>
        <time>2020-08-06T13:47:17Z</time>
      </trkpt>
      <trkpt lat="47.89823" lon="-3.18767">
        <ele>87.24</ele>
        <time>2020-08-06T13:47:31Z</time>
      </trkpt>
      <trkpt lat="47.89815" lon="-3.18754">
        <ele>87.38</ele>
        <time>2020-08-06T13:47:42Z</time>
      </trkpt>
      <trkpt lat="47.89812" lon="-3.18751">
        <ele>87.59</ele>
        <time>2020-08-06T13:47:45Z</time>
      </trkpt>
      <trkpt lat="47.89802" lon="-3.1873">
        <ele>88.13</ele>
        <time>2020-08-06T13:47:57Z</time>
      </trkpt>
      <trkpt lat="47.89791" lon="-3.18703">
        <ele>89.09</ele>
        <time>2020-08-06T13:48:09Z</time>
      </trkpt>
      <trkpt lat="47.89782" lon="-3.18689">
        <ele>89.28</ele>
        <time>2020-08-06T13:48:14Z</time>
      </trkpt>
      <trkpt lat="47.89779" lon="-3.18685">
        <ele>89.4</ele>
        <time>2020-08-06T13:48:18Z</time>
      </trkpt>
      <trkpt lat="47.89772" lon="-3.18672">
        <ele>89.92</ele>
        <time>2020-08-06T13:48:27Z</time>
      </trkpt>
      <trkpt lat="47.89763" lon="-3.18651">
        <ele>90.05</ele>
        <time>2020-08-06T13:48:36Z</time>
      </trkpt>
      <trkpt lat="47.89758" lon="-3.18645">
        <ele>90.16</ele>
        <time>2020-08-06T13:48:40Z</time>
      </trkpt>
      <trkpt lat="47.89754" lon="-3.18629">
        <ele>89.69</ele>
        <time>2020-08-06T13:48:50Z</time>
      </trkpt>
      <trkpt lat="47.89752" lon="-3.18606">
        <ele>89.29</ele>
        <time>2020-08-06T13:48:59Z</time>
      </trkpt>
      <trkpt lat="47.8975" lon="-3.18588">
        <ele>88.91</ele>
        <time>2020-08-06T13:49:08Z</time>
      </trkpt>
      <trkpt lat="47.89747" lon="-3.18563">
        <ele>87.75</ele>
        <time>2020-08-06T13:49:20Z</time>
      </trkpt>
      <trkpt lat="47.89745" lon="-3.18544">
        <ele>86.43</ele>
        <time>2020-08-06T13:49:34Z</time>
      </trkpt>
      <trkpt lat="47.89742" lon="-3.18529">
        <ele>85.92</ele>
        <time>2020-08-06T13:49:41Z</time>
      </trkpt>
      <trkpt lat="47.89741" lon="-3.18505">
        <ele>85.86</ele>
        <time>2020-08-06T13:49:49Z</time>
      </trkpt>
      <trkpt lat="47.89749" lon="-3.18477">
        <ele>86.18</ele>
        <time>2020-08-06T13:49:58Z</time>
      </trkpt>
      <trkpt lat="47.8975" lon="-3.18474">
        <ele>86.14</ele>
        <time>2020-08-06T13:49:59Z</time>
      </trkpt>
      <trkpt lat="47.89758" lon="-3.1846">
        <ele>86.99</ele>
        <time>2020-08-06T13:50:09Z</time>
      </trkpt>
      <trkpt lat="47.89778" lon="-3.18427">
        <ele>85.92</ele>
        <time>2020-08-06T13:50:33Z</time>
      </trkpt>
      <trkpt lat="47.89779" lon="-3.18425">
        <ele>85.87</ele>
        <time>2020-08-06T13:50:34Z</time>
      </trkpt>
      <trkpt lat="47.89797" lon="-3.18377">
        <ele>84.41</ele>
        <time>2020-08-06T13:50:55Z</time>
      </trkpt>
      <trkpt lat="47.89783" lon="-3.18297">
        <ele>82.63</ele>
        <time>2020-08-06T13:53:08Z</time>
      </trkpt>
      <trkpt lat="47.89775" lon="-3.18305">
        <ele>82.57</ele>
        <time>2020-08-06T13:53:13Z</time>
      </trkpt>
      <trkpt lat="47.89771" lon="-3.18309">
        <ele>82.82</ele>
        <time>2020-08-06T13:53:17Z</time>
      </trkpt>
      <trkpt lat="47.89765" lon="-3.18317">
        <ele>82.85</ele>
        <time>2020-08-06T13:53:23Z</time>
      </trkpt>
      <trkpt lat="47.8975" lon="-3.18334">
        <ele>83.14</ele>
        <time>2020-08-06T13:53:36Z</time>
      </trkpt>
      <trkpt lat="47.89739" lon="-3.1834">
        <ele>84.02</ele>
        <time>2020-08-06T13:53:50Z</time>
      </trkpt>
      <trkpt lat="47.89728" lon="-3.18346">
        <ele>84.1</ele>
        <time>2020-08-06T13:53:58Z</time>
      </trkpt>
      <trkpt lat="47.89714" lon="-3.18351">
        <ele>84.82</ele>
        <time>2020-08-06T13:54:08Z</time>
      </trkpt>
      <trkpt lat="47.89693" lon="-3.1836">
        <ele>87.85</ele>
        <time>2020-08-06T13:54:26Z</time>
      </trkpt>
      <trkpt lat="47.89658" lon="-3.18365">
        <ele>88.68</ele>
        <time>2020-08-06T13:54:43Z</time>
      </trkpt>
      <trkpt lat="47.89642" lon="-3.18364">
        <ele>88.09</ele>
        <time>2020-08-06T13:54:52Z</time>
      </trkpt>
      <trkpt lat="47.89632" lon="-3.18357">
        <ele>87.48</ele>
        <time>2020-08-06T13:55:01Z</time>
      </trkpt>
      <trkpt lat="47.89604" lon="-3.18346">
        <ele>87.45</ele>
        <time>2020-08-06T13:55:16Z</time>
      </trkpt>
      <trkpt lat="47.89598" lon="-3.18344">
        <ele>87.29</ele>
        <time>2020-08-06T13:55:19Z</time>
      </trkpt>
      <trkpt lat="47.89596" lon="-3.18343">
        <ele>87.25</ele>
        <time>2020-08-06T13:55:20Z</time>
      </trkpt>
      <trkpt lat="47.89594" lon="-3.18342">
        <ele>87.21</ele>
        <time>2020-08-06T13:55:21Z</time>
      </trkpt>
      <trkpt lat="47.89591" lon="-3.18341">
        <ele>87.19</ele>
        <time>2020-08-06T13:55:22Z</time>
      </trkpt>
      <trkpt lat="47.89589" lon="-3.18341">
        <ele>87.17</ele>
        <time>2020-08-06T13:55:23Z</time>
      </trkpt>
      <trkpt lat="47.89567" lon="-3.18336">
        <ele>87.37</ele>
        <time>2020-08-06T13:55:37Z</time>
      </trkpt>
      <trkpt lat="47.89562" lon="-3.18331">
        <ele>87.4</ele>
        <time>2020-08-06T13:55:42Z</time>
      </trkpt>
      <trkpt lat="47.89562" lon="-3.1833">
        <ele>87.41</ele>
        <time>2020-08-06T13:55:43Z</time>
      </trkpt>
      <trkpt lat="47.89561" lon="-3.18327">
        <ele>87.41</ele>
        <time>2020-08-06T13:55:44Z</time>
      </trkpt>
      <trkpt lat="47.89562" lon="-3.18317">
        <ele>87.5</ele>
        <time>2020-08-06T13:55:54Z</time>
      </trkpt>
      <trkpt lat="47.89562" lon="-3.1831">
        <ele>87.63</ele>
        <time>2020-08-06T13:55:59Z</time>
      </trkpt>
      <trkpt lat="47.89562" lon="-3.18307">
        <ele>87.73</ele>
        <time>2020-08-06T13:56:01Z</time>
      </trkpt>
      <trkpt lat="47.89563" lon="-3.18291">
        <ele>87.82</ele>
        <time>2020-08-06T13:56:14Z</time>
      </trkpt>
      <trkpt lat="47.89563" lon="-3.18265">
        <ele>88.14</ele>
        <time>2020-08-06T13:56:27Z</time>
      </trkpt>
      <trkpt lat="47.8957" lon="-3.18227">
        <ele>88.51</ele>
        <time>2020-08-06T13:56:42Z</time>
      </trkpt>
      <trkpt lat="47.89571" lon="-3.18218">
        <ele>88.79</ele>
        <time>2020-08-06T13:56:48Z</time>
      </trkpt>
      <trkpt lat="47.89574" lon="-3.18194">
        <ele>89.43</ele>
        <time>2020-08-06T13:57:00Z</time>
      </trkpt>
      <trkpt lat="47.8958" lon="-3.18168">
        <ele>89.87</ele>
        <time>2020-08-06T13:57:13Z</time>
      </trkpt>
      <trkpt lat="47.89582" lon="-3.18156">
        <ele>89.99</ele>
        <time>2020-08-06T13:57:17Z</time>
      </trkpt>
      <trkpt lat="47.89586" lon="-3.18135">
        <ele>90.11</ele>
        <time>2020-08-06T13:57:27Z</time>
      </trkpt>
      <trkpt lat="47.89588" lon="-3.18129">
        <ele>90.32</ele>
        <time>2020-08-06T13:57:33Z</time>
      </trkpt>
      <trkpt lat="47.89588" lon="-3.18127">
        <ele>90.43</ele>
        <time>2020-08-06T13:57:35Z</time>
      </trkpt>
      <trkpt lat="47.89579" lon="-3.18096">
        <ele>90.95</ele>
        <time>2020-08-06T13:57:48Z</time>
      </trkpt>
      <trkpt lat="47.89564" lon="-3.18075">
        <ele>91.01</ele>
        <time>2020-08-06T13:58:01Z</time>
      </trkpt>
      <trkpt lat="47.89556" lon="-3.18063">
        <ele>91.11</ele>
        <time>2020-08-06T13:58:11Z</time>
      </trkpt>
      <trkpt lat="47.89553" lon="-3.1806">
        <ele>91.04</ele>
        <time>2020-08-06T13:58:14Z</time>
      </trkpt>
      <trkpt lat="47.89545" lon="-3.18049">
        <ele>91.26</ele>
        <time>2020-08-06T13:58:22Z</time>
      </trkpt>
      <trkpt lat="47.89534" lon="-3.1803">
        <ele>91.51</ele>
        <time>2020-08-06T13:58:33Z</time>
      </trkpt>
      <trkpt lat="47.89526" lon="-3.18019">
        <ele>91.84</ele>
        <time>2020-08-06T13:58:42Z</time>
      </trkpt>
      <trkpt lat="47.89522" lon="-3.18016">
        <ele>91.97</ele>
        <time>2020-08-06T13:58:46Z</time>
      </trkpt>
      <trkpt lat="47.89509" lon="-3.18001">
        <ele>92.21</ele>
        <time>2020-08-06T13:58:58Z</time>
      </trkpt>
      <trkpt lat="47.89511" lon="-3.17987">
        <ele>92.35</ele>
        <time>2020-08-06T13:59:04Z</time>
      </trkpt>
      <trkpt lat="47.89515" lon="-3.17969">
        <ele>92.5</ele>
        <time>2020-08-06T13:59:09Z</time>
      </trkpt>
      <trkpt lat="47.89523" lon="-3.17932">
        <ele>92.59</ele>
        <time>2020-08-06T13:59:25Z</time>
      </trkpt>
      <trkpt lat="47.89525" lon="-3.17925">
        <ele>92.49</ele>
        <time>2020-08-06T13:59:31Z</time>
      </trkpt>
      <trkpt lat="47.89531" lon="-3.17911">
        <ele>92.84</ele>
        <time>2020-08-06T13:59:41Z</time>
      </trkpt>
      <trkpt lat="47.89535" lon="-3.17896">
        <ele>93.05</ele>
        <time>2020-08-06T13:59:47Z</time>
      </trkpt>
      <trkpt lat="47.89543" lon="-3.17872">
        <ele>93.31</ele>
        <time>2020-08-06T14:00:00Z</time>
      </trkpt>
      <trkpt lat="47.89552" lon="-3.17841">
        <ele>93.87</ele>
        <time>2020-08-06T14:00:13Z</time>
      </trkpt>
      <trkpt lat="47.89566" lon="-3.17809">
        <ele>94.08</ele>
        <time>2020-08-06T14:00:28Z</time>
      </trkpt>
      <trkpt lat="47.89577" lon="-3.17786">
        <ele>94.7</ele>
        <time>2020-08-06T14:00:40Z</time>
      </trkpt>
      <trkpt lat="47.89592" lon="-3.17766">
        <ele>95.24</ele>
        <time>2020-08-06T14:00:53Z</time>
      </trkpt>
      <trkpt lat="47.89595" lon="-3.17761">
        <ele>95.57</ele>
        <time>2020-08-06T14:00:56Z</time>
      </trkpt>
      <trkpt lat="47.89596" lon="-3.1776">
        <ele>95.65</ele>
        <time>2020-08-06T14:00:57Z</time>
      </trkpt>
      <trkpt lat="47.89596" lon="-3.17758">
        <ele>95.77</ele>
        <time>2020-08-06T14:00:58Z</time>
      </trkpt>
      <trkpt lat="47.89597" lon="-3.17757">
        <ele>95.91</ele>
        <time>2020-08-06T14:00:59Z</time>
      </trkpt>
      <trkpt lat="47.89597" lon="-3.17756">
        <ele>96.02</ele>
        <time>2020-08-06T14:01:00Z</time>
      </trkpt>
      <trkpt lat="47.89598" lon="-3.17754">
        <ele>96.1</ele>
        <time>2020-08-06T14:01:01Z</time>
      </trkpt>
      <trkpt lat="47.89599" lon="-3.17752">
        <ele>96.18</ele>
        <time>2020-08-06T14:01:03Z</time>
      </trkpt>
      <trkpt lat="47.89601" lon="-3.1775">
        <ele>96.23</ele>
        <time>2020-08-06T14:01:04Z</time>
      </trkpt>
      <trkpt lat="47.89601" lon="-3.17749">
        <ele>96.3</ele>
        <time>2020-08-06T14:01:05Z</time>
      </trkpt>
      <trkpt lat="47.89603" lon="-3.17746">
        <ele>96.35</ele>
        <time>2020-08-06T14:01:06Z</time>
      </trkpt>
      <trkpt lat="47.89604" lon="-3.17744">
        <ele>96.44</ele>
        <time>2020-08-06T14:01:07Z</time>
      </trkpt>
      <trkpt lat="47.89618" lon="-3.17713">
        <ele>97.24</ele>
        <time>2020-08-06T14:01:22Z</time>
      </trkpt>
      <trkpt lat="47.89627" lon="-3.17696">
        <ele>98.04</ele>
        <time>2020-08-06T14:01:35Z</time>
      </trkpt>
      <trkpt lat="47.89628" lon="-3.17695">
        <ele>98.16</ele>
        <time>2020-08-06T14:01:36Z</time>
      </trkpt>
      <trkpt lat="47.89626" lon="-3.17687">
        <ele>98.59</ele>
        <time>2020-08-06T14:01:42Z</time>
      </trkpt>
      <trkpt lat="47.89625" lon="-3.17685">
        <ele>98.71</ele>
        <time>2020-08-06T14:01:44Z</time>
      </trkpt>
      <trkpt lat="47.89624" lon="-3.17684">
        <ele>98.79</ele>
        <time>2020-08-06T14:01:45Z</time>
      </trkpt>
      <trkpt lat="47.89613" lon="-3.17668">
        <ele>99.67</ele>
        <time>2020-08-06T14:01:56Z</time>
      </trkpt>
      <trkpt lat="47.896" lon="-3.17645">
        <ele>100.47</ele>
        <time>2020-08-06T14:02:08Z</time>
      </trkpt>
      <trkpt lat="47.8959" lon="-3.1762">
        <ele>101.25</ele>
        <time>2020-08-06T14:02:25Z</time>
      </trkpt>
      <trkpt lat="47.89589" lon="-3.17614">
        <ele>101.93</ele>
        <time>2020-08-06T14:02:32Z</time>
      </trkpt>
      <trkpt lat="47.89601" lon="-3.17528">
        <ele>105.13</ele>
        <time>2020-08-06T14:03:16Z</time>
      </trkpt>
      <trkpt lat="47.8961" lon="-3.17505">
        <ele>106.18</ele>
        <time>2020-08-06T14:03:29Z</time>
      </trkpt>
      <trkpt lat="47.89611" lon="-3.175">
        <ele>106.36</ele>
        <time>2020-08-06T14:03:34Z</time>
      </trkpt>
      <trkpt lat="47.89573" lon="-3.17392">
        <ele>104.44</ele>
        <time>2020-08-06T14:04:35Z</time>
      </trkpt>
      <trkpt lat="47.89565" lon="-3.17375">
        <ele>103.89</ele>
        <time>2020-08-06T14:04:43Z</time>
      </trkpt>
      <trkpt lat="47.8955" lon="-3.17362">
        <ele>103.02</ele>
        <time>2020-08-06T14:04:54Z</time>
      </trkpt>
      <trkpt lat="47.89545" lon="-3.17359">
        <ele>102.61</ele>
        <time>2020-08-06T14:04:59Z</time>
      </trkpt>
      <trkpt lat="47.89541" lon="-3.17361">
        <ele>102.32</ele>
        <time>2020-08-06T14:05:03Z</time>
      </trkpt>
      <trkpt lat="47.89532" lon="-3.17351">
        <ele>100.85</ele>
        <time>2020-08-06T14:05:18Z</time>
      </trkpt>
      <trkpt lat="47.8953" lon="-3.17343">
        <ele>100.45</ele>
        <time>2020-08-06T14:05:24Z</time>
      </trkpt>
      <trkpt lat="47.89511" lon="-3.17308">
        <ele>99.35</ele>
        <time>2020-08-06T14:05:43Z</time>
      </trkpt>
      <trkpt lat="47.89505" lon="-3.17288">
        <ele>98.19</ele>
        <time>2020-08-06T14:05:54Z</time>
      </trkpt>
      <trkpt lat="47.89499" lon="-3.17257">
        <ele>95.07</ele>
        <time>2020-08-06T14:06:14Z</time>
      </trkpt>
      <trkpt lat="47.89501" lon="-3.17236">
        <ele>92.02</ele>
        <time>2020-08-06T14:06:24Z</time>
      </trkpt>
      <trkpt lat="47.89492" lon="-3.1723">
        <ele>91.05</ele>
        <time>2020-08-06T14:06:34Z</time>
      </trkpt>
      <trkpt lat="47.89469" lon="-3.17223">
        <ele>88.67</ele>
        <time>2020-08-06T14:06:58Z</time>
      </trkpt>
      <trkpt lat="47.89448" lon="-3.17227">
        <ele>86.62</ele>
        <time>2020-08-06T14:07:16Z</time>
      </trkpt>
      <trkpt lat="47.89446" lon="-3.17227">
        <ele>86.41</ele>
        <time>2020-08-06T14:07:18Z</time>
      </trkpt>
      <trkpt lat="47.89395" lon="-3.17235">
        <ele>83.21</ele>
        <time>2020-08-06T14:07:55Z</time>
      </trkpt>
      <trkpt lat="47.89373" lon="-3.17234">
        <ele>80.67</ele>
        <time>2020-08-06T14:08:14Z</time>
      </trkpt>
      <trkpt lat="47.89343" lon="-3.17233">
        <ele>78.27</ele>
        <time>2020-08-06T14:08:33Z</time>
      </trkpt>
      <trkpt lat="47.89323" lon="-3.17235">
        <ele>76.65</ele>
        <time>2020-08-06T14:08:48Z</time>
      </trkpt>
      <trkpt lat="47.89306" lon="-3.17232">
        <ele>74.2</ele>
        <time>2020-08-06T14:09:04Z</time>
      </trkpt>
      <trkpt lat="47.89277" lon="-3.17226">
        <ele>71.21</ele>
        <time>2020-08-06T14:09:26Z</time>
      </trkpt>
      <trkpt lat="47.89251" lon="-3.17235">
        <ele>70.36</ele>
        <time>2020-08-06T14:09:38Z</time>
      </trkpt>
      <trkpt lat="47.89249" lon="-3.1724">
        <ele>69.69</ele>
        <time>2020-08-06T14:09:43Z</time>
      </trkpt>
      <trkpt lat="47.89248" lon="-3.17244">
        <ele>69.45</ele>
        <time>2020-08-06T14:09:45Z</time>
      </trkpt>
      <trkpt lat="47.89228" lon="-3.1728">
        <ele>67.75</ele>
        <time>2020-08-06T14:10:00Z</time>
      </trkpt>
      <trkpt lat="47.89216" lon="-3.17296">
        <ele>66.58</ele>
        <time>2020-08-06T14:10:11Z</time>
      </trkpt>
      <trkpt lat="47.89215" lon="-3.17297">
        <ele>66.43</ele>
        <time>2020-08-06T14:10:12Z</time>
      </trkpt>
      <trkpt lat="47.89212" lon="-3.17302">
        <ele>66.19</ele>
        <time>2020-08-06T14:10:15Z</time>
      </trkpt>
      <trkpt lat="47.89208" lon="-3.17306">
        <ele>65.77</ele>
        <time>2020-08-06T14:10:19Z</time>
      </trkpt>
      <trkpt lat="47.89206" lon="-3.17309">
        <ele>65.49</ele>
        <time>2020-08-06T14:10:21Z</time>
      </trkpt>
      <trkpt lat="47.89185" lon="-3.17319">
        <ele>63.48</ele>
        <time>2020-08-06T14:10:36Z</time>
      </trkpt>
      <trkpt lat="47.89169" lon="-3.17323">
        <ele>60.87</ele>
        <time>2020-08-06T14:10:50Z</time>
      </trkpt>
      <trkpt lat="47.8915" lon="-3.17321">
        <ele>57.7</ele>
        <time>2020-08-06T14:11:07Z</time>
      </trkpt>
      <trkpt lat="47.89126" lon="-3.17319">
        <ele>54.63</ele>
        <time>2020-08-06T14:11:23Z</time>
      </trkpt>
      <trkpt lat="47.89123" lon="-3.17319">
        <ele>54.04</ele>
        <time>2020-08-06T14:11:26Z</time>
      </trkpt>
      <trkpt lat="47.89108" lon="-3.1732">
        <ele>51.15</ele>
        <time>2020-08-06T14:11:40Z</time>
      </trkpt>
      <trkpt lat="47.891" lon="-3.17321">
        <ele>49.79</ele>
        <time>2020-08-06T14:11:47Z</time>
      </trkpt>
      <trkpt lat="47.89094" lon="-3.17319">
        <ele>49</ele>
        <time>2020-08-06T14:11:51Z</time>
      </trkpt>
      <trkpt lat="47.89071" lon="-3.17319">
        <ele>45.33</ele>
        <time>2020-08-06T14:12:05Z</time>
      </trkpt>
      <trkpt lat="47.89067" lon="-3.17318">
        <ele>44.96</ele>
        <time>2020-08-06T14:12:07Z</time>
      </trkpt>
      <trkpt lat="47.89056" lon="-3.17321">
        <ele>43.82</ele>
        <time>2020-08-06T14:12:14Z</time>
      </trkpt>
      <trkpt lat="47.89042" lon="-3.17325">
        <ele>41.58</ele>
        <time>2020-08-06T14:12:24Z</time>
      </trkpt>
      <trkpt lat="47.89039" lon="-3.17326">
        <ele>41.18</ele>
        <time>2020-08-06T14:12:26Z</time>
      </trkpt>
      <trkpt lat="47.89025" lon="-3.17325">
        <ele>39.1</ele>
        <time>2020-08-06T14:12:37Z</time>
      </trkpt>
      <trkpt lat="47.88998" lon="-3.17323">
        <ele>36.69</ele>
        <time>2020-08-06T14:12:53Z</time>
      </trkpt>
      <trkpt lat="47.8899" lon="-3.17324">
        <ele>35.95</ele>
        <time>2020-08-06T14:12:59Z</time>
      </trkpt>
      <trkpt lat="47.88966" lon="-3.17321">
        <ele>33.68</ele>
        <time>2020-08-06T14:13:16Z</time>
      </trkpt>
      <trkpt lat="47.88958" lon="-3.17322">
        <ele>32.95</ele>
        <time>2020-08-06T14:13:21Z</time>
      </trkpt>
      <trkpt lat="47.88943" lon="-3.17317">
        <ele>30.74</ele>
        <time>2020-08-06T14:13:34Z</time>
      </trkpt>
      <trkpt lat="47.88922" lon="-3.17314">
        <ele>28.73</ele>
        <time>2020-08-06T14:13:49Z</time>
      </trkpt>
      <trkpt lat="47.88912" lon="-3.17315">
        <ele>27.72</ele>
        <time>2020-08-06T14:13:56Z</time>
      </trkpt>
      <trkpt lat="47.88905" lon="-3.17312">
        <ele>27.23</ele>
        <time>2020-08-06T14:14:00Z</time>
      </trkpt>
      <trkpt lat="47.88894" lon="-3.17308">
        <ele>25.93</ele>
        <time>2020-08-06T14:14:09Z</time>
      </trkpt>
      <trkpt lat="47.88897" lon="-3.1728">
        <ele>24.91</ele>
        <time>2020-08-06T14:14:27Z</time>
      </trkpt>
      <trkpt lat="47.88899" lon="-3.17271">
        <ele>25.14</ele>
        <time>2020-08-06T14:14:33Z</time>
      </trkpt>
      <trkpt lat="47.889" lon="-3.17268">
        <ele>25.25</ele>
        <time>2020-08-06T14:14:35Z</time>
      </trkpt>
      <trkpt lat="47.88905" lon="-3.1725">
        <ele>25.23</ele>
        <time>2020-08-06T14:14:47Z</time>
      </trkpt>
      <trkpt lat="47.88907" lon="-3.17237">
        <ele>25.41</ele>
        <time>2020-08-06T14:14:52Z</time>
      </trkpt>
      <trkpt lat="47.88908" lon="-3.17229">
        <ele>25.45</ele>
        <time>2020-08-06T14:14:56Z</time>
      </trkpt>
      <trkpt lat="47.88909" lon="-3.17222">
        <ele>25.73</ele>
        <time>2020-08-06T14:14:59Z</time>
      </trkpt>
      <trkpt lat="47.88909" lon="-3.17219">
        <ele>25.8</ele>
        <time>2020-08-06T14:15:01Z</time>
      </trkpt>
      <trkpt lat="47.88911" lon="-3.17211">
        <ele>25.59</ele>
        <time>2020-08-06T14:15:07Z</time>
      </trkpt>
      <trkpt lat="47.88913" lon="-3.17174">
        <ele>25.79</ele>
        <time>2020-08-06T14:15:24Z</time>
      </trkpt>
      <trkpt lat="47.88917" lon="-3.17142">
        <ele>26.85</ele>
        <time>2020-08-06T14:15:39Z</time>
      </trkpt>
      <trkpt lat="47.88924" lon="-3.17119">
        <ele>27.6</ele>
        <time>2020-08-06T14:15:51Z</time>
      </trkpt>
      <trkpt lat="47.88925" lon="-3.17116">
        <ele>27.76</ele>
        <time>2020-08-06T14:15:53Z</time>
      </trkpt>
      <trkpt lat="47.88928" lon="-3.17094">
        <ele>28.1</ele>
        <time>2020-08-06T14:16:02Z</time>
      </trkpt>
      <trkpt lat="47.88929" lon="-3.17087">
        <ele>28.19</ele>
        <time>2020-08-06T14:16:04Z</time>
      </trkpt>
      <trkpt lat="47.88931" lon="-3.17073">
        <ele>28.56</ele>
        <time>2020-08-06T14:16:10Z</time>
      </trkpt>
      <trkpt lat="47.88933" lon="-3.1705">
        <ele>29.52</ele>
        <time>2020-08-06T14:16:24Z</time>
      </trkpt>
      <trkpt lat="47.88935" lon="-3.17025">
        <ele>30.59</ele>
        <time>2020-08-06T14:16:36Z</time>
      </trkpt>
      <trkpt lat="47.88941" lon="-3.16989">
        <ele>30.38</ele>
        <time>2020-08-06T14:16:51Z</time>
      </trkpt>
      <trkpt lat="47.88942" lon="-3.1698">
        <ele>30.55</ele>
        <time>2020-08-06T14:16:55Z</time>
      </trkpt>
      <trkpt lat="47.88943" lon="-3.16955">
        <ele>31.24</ele>
        <time>2020-08-06T14:17:08Z</time>
      </trkpt>
      <trkpt lat="47.88944" lon="-3.16916">
        <ele>31.86</ele>
        <time>2020-08-06T14:17:27Z</time>
      </trkpt>
      <trkpt lat="47.88947" lon="-3.16889">
        <ele>32.29</ele>
        <time>2020-08-06T14:17:40Z</time>
      </trkpt>
      <trkpt lat="47.8895" lon="-3.16874">
        <ele>32.56</ele>
        <time>2020-08-06T14:17:50Z</time>
      </trkpt>
      <trkpt lat="47.88957" lon="-3.16836">
        <ele>33.81</ele>
        <time>2020-08-06T14:18:06Z</time>
      </trkpt>
      <trkpt lat="47.88956" lon="-3.16834">
        <ele>33.9</ele>
        <time>2020-08-06T14:18:08Z</time>
      </trkpt>
      <trkpt lat="47.88949" lon="-3.16824">
        <ele>33.29</ele>
        <time>2020-08-06T14:18:18Z</time>
      </trkpt>
      <trkpt lat="47.88937" lon="-3.16796">
        <ele>31.7</ele>
        <time>2020-08-06T14:18:37Z</time>
      </trkpt>
      <trkpt lat="47.88939" lon="-3.16776">
        <ele>31.92</ele>
        <time>2020-08-06T14:18:51Z</time>
      </trkpt>
      <trkpt lat="47.88938" lon="-3.16764">
        <ele>31.67</ele>
        <time>2020-08-06T14:18:59Z</time>
      </trkpt>
      <trkpt lat="47.88924" lon="-3.16746">
        <ele>30.52</ele>
        <time>2020-08-06T14:19:11Z</time>
      </trkpt>
      <trkpt lat="47.88917" lon="-3.16736">
        <ele>28</ele>
        <time>2020-08-06T14:19:24Z</time>
      </trkpt>
      <trkpt lat="47.88885" lon="-3.16607">
        <ele>23.14</ele>
        <time>2020-08-06T14:20:31Z</time>
      </trkpt>
      <trkpt lat="47.88887" lon="-3.16596">
        <ele>22.44</ele>
        <time>2020-08-06T14:20:39Z</time>
      </trkpt>
      <trkpt lat="47.8889" lon="-3.16573">
        <ele>21.5</ele>
        <time>2020-08-06T14:20:53Z</time>
      </trkpt>
      <trkpt lat="47.88895" lon="-3.16533">
        <ele>20.99</ele>
        <time>2020-08-06T14:21:14Z</time>
      </trkpt>
      <trkpt lat="47.88955" lon="-3.16208">
        <ele>22.4</ele>
        <time>2020-08-06T14:24:14Z</time>
      </trkpt>
      <trkpt lat="47.88956" lon="-3.16205">
        <ele>23.08</ele>
        <time>2020-08-06T14:24:16Z</time>
      </trkpt>
      <trkpt lat="47.88956" lon="-3.16198">
        <ele>24.12</ele>
        <time>2020-08-06T14:24:21Z</time>
      </trkpt>
      <trkpt lat="47.8896" lon="-3.16148">
        <ele>21.38</ele>
        <time>2020-08-06T14:24:47Z</time>
      </trkpt>
      <trkpt lat="47.88956" lon="-3.16113">
        <ele>20.18</ele>
        <time>2020-08-06T14:25:00Z</time>
      </trkpt>
      <trkpt lat="47.88957" lon="-3.16105">
        <ele>20.2</ele>
        <time>2020-08-06T14:25:03Z</time>
      </trkpt>
      <trkpt lat="47.88958" lon="-3.16102">
        <ele>20.21</ele>
        <time>2020-08-06T14:25:04Z</time>
      </trkpt>
      <trkpt lat="47.88958" lon="-3.16099">
        <ele>20.21</ele>
        <time>2020-08-06T14:25:05Z</time>
      </trkpt>
      <trkpt lat="47.88959" lon="-3.16096">
        <ele>20.19</ele>
        <time>2020-08-06T14:25:06Z</time>
      </trkpt>
      <trkpt lat="47.88959" lon="-3.16093">
        <ele>20.15</ele>
        <time>2020-08-06T14:25:07Z</time>
      </trkpt>
      <trkpt lat="47.88961" lon="-3.16085">
        <ele>20.08</ele>
        <time>2020-08-06T14:25:11Z</time>
      </trkpt>
      <trkpt lat="47.88962" lon="-3.16083">
        <ele>20.07</ele>
        <time>2020-08-06T14:25:12Z</time>
      </trkpt>
      <trkpt lat="47.88962" lon="-3.1608">
        <ele>20.07</ele>
        <time>2020-08-06T14:25:13Z</time>
      </trkpt>
      <trkpt lat="47.88962" lon="-3.16077">
        <ele>20.07</ele>
        <time>2020-08-06T14:25:14Z</time>
      </trkpt>
      <trkpt lat="47.88963" lon="-3.16074">
        <ele>20.04</ele>
        <time>2020-08-06T14:25:15Z</time>
      </trkpt>
      <trkpt lat="47.88963" lon="-3.16071">
        <ele>20.02</ele>
        <time>2020-08-06T14:25:16Z</time>
      </trkpt>
      <trkpt lat="47.88964" lon="-3.16069">
        <ele>19.98</ele>
        <time>2020-08-06T14:25:17Z</time>
      </trkpt>
      <trkpt lat="47.88964" lon="-3.16067">
        <ele>19.97</ele>
        <time>2020-08-06T14:25:18Z</time>
      </trkpt>
      <trkpt lat="47.88964" lon="-3.16064">
        <ele>19.96</ele>
        <time>2020-08-06T14:25:19Z</time>
      </trkpt>
      <trkpt lat="47.88964" lon="-3.16062">
        <ele>19.93</ele>
        <time>2020-08-06T14:25:20Z</time>
      </trkpt>
      <trkpt lat="47.88966" lon="-3.16041">
        <ele>20.04</ele>
        <time>2020-08-06T14:25:28Z</time>
      </trkpt>
      <trkpt lat="47.88966" lon="-3.16035">
        <ele>20.08</ele>
        <time>2020-08-06T14:25:30Z</time>
      </trkpt>
      <trkpt lat="47.88967" lon="-3.16029">
        <ele>20.09</ele>
        <time>2020-08-06T14:25:31Z</time>
      </trkpt>
      <trkpt lat="47.88967" lon="-3.16025">
        <ele>20.1</ele>
        <time>2020-08-06T14:25:32Z</time>
      </trkpt>
      <trkpt lat="47.88967" lon="-3.16023">
        <ele>20.09</ele>
        <time>2020-08-06T14:25:33Z</time>
      </trkpt>
      <trkpt lat="47.88968" lon="-3.1602">
        <ele>20.11</ele>
        <time>2020-08-06T14:25:34Z</time>
      </trkpt>
      <trkpt lat="47.88968" lon="-3.16018">
        <ele>20.11</ele>
        <time>2020-08-06T14:25:35Z</time>
      </trkpt>
      <trkpt lat="47.88967" lon="-3.16015">
        <ele>20.09</ele>
        <time>2020-08-06T14:25:36Z</time>
      </trkpt>
      <trkpt lat="47.88972" lon="-3.15987">
        <ele>19.94</ele>
        <time>2020-08-06T14:25:49Z</time>
      </trkpt>
      <trkpt lat="47.88974" lon="-3.15956">
        <ele>19.93</ele>
        <time>2020-08-06T14:26:02Z</time>
      </trkpt>
      <trkpt lat="47.88975" lon="-3.15954">
        <ele>19.93</ele>
        <time>2020-08-06T14:26:03Z</time>
      </trkpt>
      <trkpt lat="47.88976" lon="-3.15953">
        <ele>19.93</ele>
        <time>2020-08-06T14:26:04Z</time>
      </trkpt>
      <trkpt lat="47.88978" lon="-3.15934">
        <ele>19.77</ele>
        <time>2020-08-06T14:26:12Z</time>
      </trkpt>
      <trkpt lat="47.88978" lon="-3.15933">
        <ele>19.76</ele>
        <time>2020-08-06T14:26:13Z</time>
      </trkpt>
      <trkpt lat="47.88979" lon="-3.15927">
        <ele>19.72</ele>
        <time>2020-08-06T14:26:16Z</time>
      </trkpt>
      <trkpt lat="47.8898" lon="-3.15925">
        <ele>19.7</ele>
        <time>2020-08-06T14:26:17Z</time>
      </trkpt>
      <trkpt lat="47.8898" lon="-3.15924">
        <ele>19.68</ele>
        <time>2020-08-06T14:26:18Z</time>
      </trkpt>
      <trkpt lat="47.88984" lon="-3.15888">
        <ele>19.66</ele>
        <time>2020-08-06T14:26:32Z</time>
      </trkpt>
      <trkpt lat="47.88986" lon="-3.15854">
        <ele>19.23</ele>
        <time>2020-08-06T14:26:46Z</time>
      </trkpt>
      <trkpt lat="47.88988" lon="-3.15825">
        <ele>19.15</ele>
        <time>2020-08-06T14:26:58Z</time>
      </trkpt>
      <trkpt lat="47.8899" lon="-3.15798">
        <ele>19.47</ele>
        <time>2020-08-06T14:27:09Z</time>
      </trkpt>
      <trkpt lat="47.8899" lon="-3.15795">
        <ele>19.5</ele>
        <time>2020-08-06T14:27:10Z</time>
      </trkpt>
      <trkpt lat="47.8899" lon="-3.15792">
        <ele>19.51</ele>
        <time>2020-08-06T14:27:11Z</time>
      </trkpt>
      <trkpt lat="47.8899" lon="-3.1579">
        <ele>19.53</ele>
        <time>2020-08-06T14:27:12Z</time>
      </trkpt>
      <trkpt lat="47.88991" lon="-3.15788">
        <ele>19.55</ele>
        <time>2020-08-06T14:27:13Z</time>
      </trkpt>
      <trkpt lat="47.88991" lon="-3.15786">
        <ele>19.57</ele>
        <time>2020-08-06T14:27:14Z</time>
      </trkpt>
      <trkpt lat="47.88991" lon="-3.15784">
        <ele>19.58</ele>
        <time>2020-08-06T14:27:15Z</time>
      </trkpt>
      <trkpt lat="47.88992" lon="-3.15782">
        <ele>19.6</ele>
        <time>2020-08-06T14:27:16Z</time>
      </trkpt>
      <trkpt lat="47.88992" lon="-3.1578">
        <ele>19.61</ele>
        <time>2020-08-06T14:27:17Z</time>
      </trkpt>
      <trkpt lat="47.88992" lon="-3.15777">
        <ele>19.61</ele>
        <time>2020-08-06T14:27:18Z</time>
      </trkpt>
      <trkpt lat="47.88994" lon="-3.15759">
        <ele>19.5</ele>
        <time>2020-08-06T14:27:27Z</time>
      </trkpt>
      <trkpt lat="47.88994" lon="-3.15756">
        <ele>19.48</ele>
        <time>2020-08-06T14:27:28Z</time>
      </trkpt>
      <trkpt lat="47.88995" lon="-3.15754">
        <ele>19.47</ele>
        <time>2020-08-06T14:27:29Z</time>
      </trkpt>
      <trkpt lat="47.88995" lon="-3.15752">
        <ele>19.46</ele>
        <time>2020-08-06T14:27:30Z</time>
      </trkpt>
      <trkpt lat="47.88995" lon="-3.1575">
        <ele>19.46</ele>
        <time>2020-08-06T14:27:31Z</time>
      </trkpt>
      <trkpt lat="47.88995" lon="-3.15748">
        <ele>19.47</ele>
        <time>2020-08-06T14:27:32Z</time>
      </trkpt>
      <trkpt lat="47.88995" lon="-3.15746">
        <ele>19.48</ele>
        <time>2020-08-06T14:27:33Z</time>
      </trkpt>
      <trkpt lat="47.88995" lon="-3.15743">
        <ele>19.51</ele>
        <time>2020-08-06T14:27:34Z</time>
      </trkpt>
      <trkpt lat="47.88994" lon="-3.15741">
        <ele>19.53</ele>
        <time>2020-08-06T14:27:35Z</time>
      </trkpt>
      <trkpt lat="47.88994" lon="-3.15739">
        <ele>19.52</ele>
        <time>2020-08-06T14:27:36Z</time>
      </trkpt>
      <trkpt lat="47.88994" lon="-3.15735">
        <ele>19.52</ele>
        <time>2020-08-06T14:27:38Z</time>
      </trkpt>
      <trkpt lat="47.88995" lon="-3.15716">
        <ele>19.41</ele>
        <time>2020-08-06T14:27:47Z</time>
      </trkpt>
      <trkpt lat="47.88996" lon="-3.15713">
        <ele>19.45</ele>
        <time>2020-08-06T14:27:48Z</time>
      </trkpt>
      <trkpt lat="47.88996" lon="-3.1571">
        <ele>19.51</ele>
        <time>2020-08-06T14:27:49Z</time>
      </trkpt>
      <trkpt lat="47.88996" lon="-3.15707">
        <ele>19.54</ele>
        <time>2020-08-06T14:27:50Z</time>
      </trkpt>
      <trkpt lat="47.88996" lon="-3.15704">
        <ele>19.57</ele>
        <time>2020-08-06T14:27:51Z</time>
      </trkpt>
      <trkpt lat="47.88997" lon="-3.15667">
        <ele>19.62</ele>
        <time>2020-08-06T14:28:06Z</time>
      </trkpt>
      <trkpt lat="47.89" lon="-3.15635">
        <ele>19.65</ele>
        <time>2020-08-06T14:28:18Z</time>
      </trkpt>
      <trkpt lat="47.89" lon="-3.15597">
        <ele>19.7</ele>
        <time>2020-08-06T14:28:33Z</time>
      </trkpt>
      <trkpt lat="47.89" lon="-3.15595">
        <ele>19.7</ele>
        <time>2020-08-06T14:28:34Z</time>
      </trkpt>
      <trkpt lat="47.89001" lon="-3.1558">
        <ele>19.87</ele>
        <time>2020-08-06T14:28:41Z</time>
      </trkpt>
      <trkpt lat="47.89001" lon="-3.15578">
        <ele>19.9</ele>
        <time>2020-08-06T14:28:42Z</time>
      </trkpt>
      <trkpt lat="47.89002" lon="-3.15575">
        <ele>19.92</ele>
        <time>2020-08-06T14:28:43Z</time>
      </trkpt>
      <trkpt lat="47.89004" lon="-3.15545">
        <ele>19.95</ele>
        <time>2020-08-06T14:28:56Z</time>
      </trkpt>
      <trkpt lat="47.89006" lon="-3.15537">
        <ele>20.01</ele>
        <time>2020-08-06T14:28:59Z</time>
      </trkpt>
      <trkpt lat="47.89006" lon="-3.15535">
        <ele>20.02</ele>
        <time>2020-08-06T14:29:00Z</time>
      </trkpt>
      <trkpt lat="47.89006" lon="-3.15534">
        <ele>20</ele>
        <time>2020-08-06T14:29:01Z</time>
      </trkpt>
      <trkpt lat="47.89006" lon="-3.15532">
        <ele>19.96</ele>
        <time>2020-08-06T14:29:02Z</time>
      </trkpt>
      <trkpt lat="47.89007" lon="-3.15523">
        <ele>19.86</ele>
        <time>2020-08-06T14:29:06Z</time>
      </trkpt>
      <trkpt lat="47.89007" lon="-3.15518">
        <ele>19.94</ele>
        <time>2020-08-06T14:29:08Z</time>
      </trkpt>
      <trkpt lat="47.89008" lon="-3.15491">
        <ele>20.42</ele>
        <time>2020-08-06T14:29:20Z</time>
      </trkpt>
      <trkpt lat="47.89009" lon="-3.15487">
        <ele>20.46</ele>
        <time>2020-08-06T14:29:22Z</time>
      </trkpt>
      <trkpt lat="47.89008" lon="-3.15485">
        <ele>20.48</ele>
        <time>2020-08-06T14:29:23Z</time>
      </trkpt>
      <trkpt lat="47.89008" lon="-3.15483">
        <ele>20.49</ele>
        <time>2020-08-06T14:29:24Z</time>
      </trkpt>
      <trkpt lat="47.89008" lon="-3.15479">
        <ele>20.5</ele>
        <time>2020-08-06T14:29:25Z</time>
      </trkpt>
      <trkpt lat="47.89009" lon="-3.15477">
        <ele>20.5</ele>
        <time>2020-08-06T14:29:26Z</time>
      </trkpt>
      <trkpt lat="47.89009" lon="-3.15475">
        <ele>20.49</ele>
        <time>2020-08-06T14:29:27Z</time>
      </trkpt>
      <trkpt lat="47.8901" lon="-3.15472">
        <ele>20.46</ele>
        <time>2020-08-06T14:29:28Z</time>
      </trkpt>
      <trkpt lat="47.8901" lon="-3.15468">
        <ele>20.43</ele>
        <time>2020-08-06T14:29:29Z</time>
      </trkpt>
      <trkpt lat="47.8901" lon="-3.15465">
        <ele>20.41</ele>
        <time>2020-08-06T14:29:30Z</time>
      </trkpt>
      <trkpt lat="47.89013" lon="-3.15429">
        <ele>20.39</ele>
        <time>2020-08-06T14:29:44Z</time>
      </trkpt>
      <trkpt lat="47.89016" lon="-3.15395">
        <ele>20.44</ele>
        <time>2020-08-06T14:29:58Z</time>
      </trkpt>
      <trkpt lat="47.89017" lon="-3.15375">
        <ele>20.41</ele>
        <time>2020-08-06T14:30:07Z</time>
      </trkpt>
      <trkpt lat="47.89017" lon="-3.15362">
        <ele>20.51</ele>
        <time>2020-08-06T14:30:12Z</time>
      </trkpt>
      <trkpt lat="47.89017" lon="-3.15361">
        <ele>20.54</ele>
        <time>2020-08-06T14:30:13Z</time>
      </trkpt>
      <trkpt lat="47.89018" lon="-3.15359">
        <ele>20.56</ele>
        <time>2020-08-06T14:30:14Z</time>
      </trkpt>
      <trkpt lat="47.89023" lon="-3.15321">
        <ele>20.62</ele>
        <time>2020-08-06T14:30:28Z</time>
      </trkpt>
      <trkpt lat="47.89029" lon="-3.15283">
        <ele>20.51</ele>
        <time>2020-08-06T14:30:43Z</time>
      </trkpt>
      <trkpt lat="47.89029" lon="-3.15266">
        <ele>20.62</ele>
        <time>2020-08-06T14:30:50Z</time>
      </trkpt>
      <trkpt lat="47.89029" lon="-3.15264">
        <ele>20.65</ele>
        <time>2020-08-06T14:30:51Z</time>
      </trkpt>
      <trkpt lat="47.89029" lon="-3.15263">
        <ele>20.68</ele>
        <time>2020-08-06T14:30:52Z</time>
      </trkpt>
      <trkpt lat="47.89029" lon="-3.15261">
        <ele>20.7</ele>
        <time>2020-08-06T14:30:53Z</time>
      </trkpt>
      <trkpt lat="47.89029" lon="-3.15259">
        <ele>20.74</ele>
        <time>2020-08-06T14:30:54Z</time>
      </trkpt>
      <trkpt lat="47.89032" lon="-3.15227">
        <ele>20.99</ele>
        <time>2020-08-06T14:31:07Z</time>
      </trkpt>
      <trkpt lat="47.89033" lon="-3.15212">
        <ele>20.98</ele>
        <time>2020-08-06T14:31:14Z</time>
      </trkpt>
      <trkpt lat="47.89034" lon="-3.1521">
        <ele>20.98</ele>
        <time>2020-08-06T14:31:15Z</time>
      </trkpt>
      <trkpt lat="47.89034" lon="-3.15207">
        <ele>21</ele>
        <time>2020-08-06T14:31:16Z</time>
      </trkpt>
      <trkpt lat="47.89035" lon="-3.15204">
        <ele>21</ele>
        <time>2020-08-06T14:31:17Z</time>
      </trkpt>
      <trkpt lat="47.89035" lon="-3.15202">
        <ele>21</ele>
        <time>2020-08-06T14:31:18Z</time>
      </trkpt>
      <trkpt lat="47.89034" lon="-3.15199">
        <ele>20.99</ele>
        <time>2020-08-06T14:31:19Z</time>
      </trkpt>
      <trkpt lat="47.89035" lon="-3.15197">
        <ele>21</ele>
        <time>2020-08-06T14:31:20Z</time>
      </trkpt>
      <trkpt lat="47.89035" lon="-3.15194">
        <ele>21.03</ele>
        <time>2020-08-06T14:31:21Z</time>
      </trkpt>
      <trkpt lat="47.89035" lon="-3.15192">
        <ele>21.06</ele>
        <time>2020-08-06T14:31:22Z</time>
      </trkpt>
      <trkpt lat="47.89036" lon="-3.15176">
        <ele>21.13</ele>
        <time>2020-08-06T14:31:30Z</time>
      </trkpt>
      <trkpt lat="47.89036" lon="-3.15174">
        <ele>21.24</ele>
        <time>2020-08-06T14:31:31Z</time>
      </trkpt>
      <trkpt lat="47.89036" lon="-3.15171">
        <ele>21.3</ele>
        <time>2020-08-06T14:31:32Z</time>
      </trkpt>
      <trkpt lat="47.89037" lon="-3.15169">
        <ele>21.32</ele>
        <time>2020-08-06T14:31:33Z</time>
      </trkpt>
      <trkpt lat="47.89037" lon="-3.15167">
        <ele>21.47</ele>
        <time>2020-08-06T14:31:34Z</time>
      </trkpt>
      <trkpt lat="47.89039" lon="-3.15156">
        <ele>21.62</ele>
        <time>2020-08-06T14:31:37Z</time>
      </trkpt>
      <trkpt lat="47.8904" lon="-3.15153">
        <ele>21.6</ele>
        <time>2020-08-06T14:31:38Z</time>
      </trkpt>
      <trkpt lat="47.89045" lon="-3.15119">
        <ele>21.83</ele>
        <time>2020-08-06T14:31:51Z</time>
      </trkpt>
      <trkpt lat="47.8905" lon="-3.15084">
        <ele>21.99</ele>
        <time>2020-08-06T14:32:05Z</time>
      </trkpt>
      <trkpt lat="47.89052" lon="-3.15054">
        <ele>22.39</ele>
        <time>2020-08-06T14:32:18Z</time>
      </trkpt>
      <trkpt lat="47.89057" lon="-3.15023">
        <ele>22.88</ele>
        <time>2020-08-06T14:32:31Z</time>
      </trkpt>
      <trkpt lat="47.89057" lon="-3.15021">
        <ele>22.92</ele>
        <time>2020-08-06T14:32:32Z</time>
      </trkpt>
      <trkpt lat="47.89058" lon="-3.15019">
        <ele>22.92</ele>
        <time>2020-08-06T14:32:33Z</time>
      </trkpt>
      <trkpt lat="47.89058" lon="-3.15017">
        <ele>22.89</ele>
        <time>2020-08-06T14:32:34Z</time>
      </trkpt>
      <trkpt lat="47.89059" lon="-3.15015">
        <ele>22.89</ele>
        <time>2020-08-06T14:32:35Z</time>
      </trkpt>
      <trkpt lat="47.8906" lon="-3.15012">
        <ele>22.88</ele>
        <time>2020-08-06T14:32:36Z</time>
      </trkpt>
      <trkpt lat="47.8906" lon="-3.1501">
        <ele>22.87</ele>
        <time>2020-08-06T14:32:37Z</time>
      </trkpt>
      <trkpt lat="47.8906" lon="-3.15008">
        <ele>22.86</ele>
        <time>2020-08-06T14:32:38Z</time>
      </trkpt>
      <trkpt lat="47.89061" lon="-3.15006">
        <ele>22.88</ele>
        <time>2020-08-06T14:32:39Z</time>
      </trkpt>
      <trkpt lat="47.89061" lon="-3.15004">
        <ele>22.95</ele>
        <time>2020-08-06T14:32:40Z</time>
      </trkpt>
      <trkpt lat="47.89064" lon="-3.14962">
        <ele>23.07</ele>
        <time>2020-08-06T14:32:58Z</time>
      </trkpt>
      <trkpt lat="47.89066" lon="-3.14937">
        <ele>23.2</ele>
        <time>2020-08-06T14:33:11Z</time>
      </trkpt>
      <trkpt lat="47.89065" lon="-3.14935">
        <ele>23.15</ele>
        <time>2020-08-06T14:33:12Z</time>
      </trkpt>
      <trkpt lat="47.89065" lon="-3.14933">
        <ele>23.11</ele>
        <time>2020-08-06T14:33:13Z</time>
      </trkpt>
      <trkpt lat="47.89065" lon="-3.14931">
        <ele>23.06</ele>
        <time>2020-08-06T14:33:14Z</time>
      </trkpt>
      <trkpt lat="47.89066" lon="-3.14929">
        <ele>23.02</ele>
        <time>2020-08-06T14:33:15Z</time>
      </trkpt>
      <trkpt lat="47.89066" lon="-3.14926">
        <ele>23</ele>
        <time>2020-08-06T14:33:16Z</time>
      </trkpt>
      <trkpt lat="47.89068" lon="-3.14907">
        <ele>22.99</ele>
        <time>2020-08-06T14:33:26Z</time>
      </trkpt>
      <trkpt lat="47.89068" lon="-3.149">
        <ele>22.96</ele>
        <time>2020-08-06T14:33:30Z</time>
      </trkpt>
      <trkpt lat="47.89067" lon="-3.14898">
        <ele>22.95</ele>
        <time>2020-08-06T14:33:31Z</time>
      </trkpt>
      <trkpt lat="47.89065" lon="-3.14858">
        <ele>22.1</ele>
        <time>2020-08-06T14:33:49Z</time>
      </trkpt>
      <trkpt lat="47.89066" lon="-3.14838">
        <ele>22.2</ele>
        <time>2020-08-06T14:33:58Z</time>
      </trkpt>
      <trkpt lat="47.89066" lon="-3.14819">
        <ele>22.03</ele>
        <time>2020-08-06T14:34:06Z</time>
      </trkpt>
      <trkpt lat="47.89066" lon="-3.14817">
        <ele>21.99</ele>
        <time>2020-08-06T14:34:07Z</time>
      </trkpt>
      <trkpt lat="47.89066" lon="-3.14815">
        <ele>21.93</ele>
        <time>2020-08-06T14:34:08Z</time>
      </trkpt>
      <trkpt lat="47.89066" lon="-3.14814">
        <ele>21.89</ele>
        <time>2020-08-06T14:34:09Z</time>
      </trkpt>
      <trkpt lat="47.89067" lon="-3.14811">
        <ele>21.87</ele>
        <time>2020-08-06T14:34:10Z</time>
      </trkpt>
      <trkpt lat="47.89068" lon="-3.14779">
        <ele>21.68</ele>
        <time>2020-08-06T14:34:21Z</time>
      </trkpt>
      <trkpt lat="47.8907" lon="-3.14745">
        <ele>21.21</ele>
        <time>2020-08-06T14:34:34Z</time>
      </trkpt>
      <trkpt lat="47.89069" lon="-3.14744">
        <ele>21.18</ele>
        <time>2020-08-06T14:34:36Z</time>
      </trkpt>
      <trkpt lat="47.89069" lon="-3.14721">
        <ele>20.51</ele>
        <time>2020-08-06T14:34:59Z</time>
      </trkpt>
      <trkpt lat="47.89069" lon="-3.14719">
        <ele>20.45</ele>
        <time>2020-08-06T14:35:00Z</time>
      </trkpt>
      <trkpt lat="47.89069" lon="-3.14716">
        <ele>20.38</ele>
        <time>2020-08-06T14:35:01Z</time>
      </trkpt>
      <trkpt lat="47.8907" lon="-3.14705">
        <ele>20.2</ele>
        <time>2020-08-06T14:35:07Z</time>
      </trkpt>
      <trkpt lat="47.8907" lon="-3.14703">
        <ele>20.18</ele>
        <time>2020-08-06T14:35:08Z</time>
      </trkpt>
      <trkpt lat="47.8907" lon="-3.14701">
        <ele>20.15</ele>
        <time>2020-08-06T14:35:09Z</time>
      </trkpt>
      <trkpt lat="47.8907" lon="-3.14698">
        <ele>20.13</ele>
        <time>2020-08-06T14:35:10Z</time>
      </trkpt>
      <trkpt lat="47.8907" lon="-3.14695">
        <ele>20.11</ele>
        <time>2020-08-06T14:35:11Z</time>
      </trkpt>
      <trkpt lat="47.8907" lon="-3.14693">
        <ele>20.09</ele>
        <time>2020-08-06T14:35:12Z</time>
      </trkpt>
      <trkpt lat="47.8907" lon="-3.1469">
        <ele>20.08</ele>
        <time>2020-08-06T14:35:13Z</time>
      </trkpt>
      <trkpt lat="47.8907" lon="-3.14687">
        <ele>20.08</ele>
        <time>2020-08-06T14:35:14Z</time>
      </trkpt>
      <trkpt lat="47.8907" lon="-3.14684">
        <ele>20.07</ele>
        <time>2020-08-06T14:35:15Z</time>
      </trkpt>
      <trkpt lat="47.8907" lon="-3.14681">
        <ele>20.07</ele>
        <time>2020-08-06T14:35:16Z</time>
      </trkpt>
      <trkpt lat="47.89071" lon="-3.14647">
        <ele>19.88</ele>
        <time>2020-08-06T14:35:29Z</time>
      </trkpt>
      <trkpt lat="47.89069" lon="-3.14605">
        <ele>19.89</ele>
        <time>2020-08-06T14:35:45Z</time>
      </trkpt>
      <trkpt lat="47.89069" lon="-3.14571">
        <ele>20.04</ele>
        <time>2020-08-06T14:35:58Z</time>
      </trkpt>
      <trkpt lat="47.89069" lon="-3.14566">
        <ele>20.03</ele>
        <time>2020-08-06T14:36:00Z</time>
      </trkpt>
      <trkpt lat="47.89069" lon="-3.14564">
        <ele>20.02</ele>
        <time>2020-08-06T14:36:01Z</time>
      </trkpt>
      <trkpt lat="47.89069" lon="-3.14531">
        <ele>19.65</ele>
        <time>2020-08-06T14:36:13Z</time>
      </trkpt>
      <trkpt lat="47.8907" lon="-3.14494">
        <ele>19.87</ele>
        <time>2020-08-06T14:36:28Z</time>
      </trkpt>
      <trkpt lat="47.8907" lon="-3.14457">
        <ele>20.14</ele>
        <time>2020-08-06T14:36:44Z</time>
      </trkpt>
      <trkpt lat="47.89071" lon="-3.14424">
        <ele>20.17</ele>
        <time>2020-08-06T14:36:57Z</time>
      </trkpt>
      <trkpt lat="47.89072" lon="-3.14381">
        <ele>20.45</ele>
        <time>2020-08-06T14:37:08Z</time>
      </trkpt>
      <trkpt lat="47.89073" lon="-3.14351">
        <ele>20.72</ele>
        <time>2020-08-06T14:37:17Z</time>
      </trkpt>
      <trkpt lat="47.8908" lon="-3.14315">
        <ele>21.32</ele>
        <time>2020-08-06T14:37:33Z</time>
      </trkpt>
      <trkpt lat="47.89081" lon="-3.14304">
        <ele>22.02</ele>
        <time>2020-08-06T14:37:39Z</time>
      </trkpt>
      <trkpt lat="47.89082" lon="-3.14301">
        <ele>22.11</ele>
        <time>2020-08-06T14:37:40Z</time>
      </trkpt>
      <trkpt lat="47.89082" lon="-3.14298">
        <ele>22.25</ele>
        <time>2020-08-06T14:37:41Z</time>
      </trkpt>
      <trkpt lat="47.89083" lon="-3.14295">
        <ele>22.31</ele>
        <time>2020-08-06T14:37:42Z</time>
      </trkpt>
      <trkpt lat="47.89082" lon="-3.14292">
        <ele>22.37</ele>
        <time>2020-08-06T14:37:43Z</time>
      </trkpt>
      <trkpt lat="47.89082" lon="-3.14289">
        <ele>22.44</ele>
        <time>2020-08-06T14:37:44Z</time>
      </trkpt>
      <trkpt lat="47.89083" lon="-3.14283">
        <ele>22.61</ele>
        <time>2020-08-06T14:37:46Z</time>
      </trkpt>
      <trkpt lat="47.89083" lon="-3.1428">
        <ele>22.72</ele>
        <time>2020-08-06T14:37:47Z</time>
      </trkpt>
      <trkpt lat="47.89083" lon="-3.14276">
        <ele>23.04</ele>
        <time>2020-08-06T14:37:50Z</time>
      </trkpt>
      <trkpt lat="47.89084" lon="-3.14274">
        <ele>23.15</ele>
        <time>2020-08-06T14:37:51Z</time>
      </trkpt>
      <trkpt lat="47.89084" lon="-3.14271">
        <ele>23.25</ele>
        <time>2020-08-06T14:37:52Z</time>
      </trkpt>
      <trkpt lat="47.89084" lon="-3.14269">
        <ele>23.31</ele>
        <time>2020-08-06T14:37:53Z</time>
      </trkpt>
      <trkpt lat="47.89086" lon="-3.14263">
        <ele>23.48</ele>
        <time>2020-08-06T14:37:56Z</time>
      </trkpt>
      <trkpt lat="47.89087" lon="-3.14254">
        <ele>23.75</ele>
        <time>2020-08-06T14:38:00Z</time>
      </trkpt>
      <trkpt lat="47.89088" lon="-3.14252">
        <ele>23.81</ele>
        <time>2020-08-06T14:38:01Z</time>
      </trkpt>
      <trkpt lat="47.89088" lon="-3.14249">
        <ele>23.86</ele>
        <time>2020-08-06T14:38:02Z</time>
      </trkpt>
      <trkpt lat="47.8909" lon="-3.14225">
        <ele>25.28</ele>
        <time>2020-08-06T14:38:14Z</time>
      </trkpt>
      <trkpt lat="47.8909" lon="-3.14222">
        <ele>25.42</ele>
        <time>2020-08-06T14:38:15Z</time>
      </trkpt>
      <trkpt lat="47.89094" lon="-3.14197">
        <ele>27.05</ele>
        <time>2020-08-06T14:38:27Z</time>
      </trkpt>
      <trkpt lat="47.89095" lon="-3.14188">
        <ele>27.71</ele>
        <time>2020-08-06T14:38:31Z</time>
      </trkpt>
      <trkpt lat="47.89098" lon="-3.14162">
        <ele>28.97</ele>
        <time>2020-08-06T14:38:41Z</time>
      </trkpt>
      <trkpt lat="47.89102" lon="-3.14142">
        <ele>30.29</ele>
        <time>2020-08-06T14:38:48Z</time>
      </trkpt>
      <trkpt lat="47.89102" lon="-3.1414">
        <ele>30.45</ele>
        <time>2020-08-06T14:38:49Z</time>
      </trkpt>
      <trkpt lat="47.89107" lon="-3.14121">
        <ele>32.43</ele>
        <time>2020-08-06T14:38:58Z</time>
      </trkpt>
      <trkpt lat="47.89114" lon="-3.14096">
        <ele>35.47</ele>
        <time>2020-08-06T14:39:10Z</time>
      </trkpt>
      <trkpt lat="47.89115" lon="-3.14093">
        <ele>35.92</ele>
        <time>2020-08-06T14:39:12Z</time>
      </trkpt>
      <trkpt lat="47.89125" lon="-3.14071">
        <ele>39.17</ele>
        <time>2020-08-06T14:39:26Z</time>
      </trkpt>
      <trkpt lat="47.89128" lon="-3.14075">
        <ele>40.59</ele>
        <time>2020-08-06T14:39:36Z</time>
      </trkpt>
      <trkpt lat="47.89134" lon="-3.14083">
        <ele>40.96</ele>
        <time>2020-08-06T14:39:44Z</time>
      </trkpt>
      <trkpt lat="47.89149" lon="-3.14099">
        <ele>43.66</ele>
        <time>2020-08-06T14:40:04Z</time>
      </trkpt>
      <trkpt lat="47.89162" lon="-3.14115">
        <ele>46.67</ele>
        <time>2020-08-06T14:40:20Z</time>
      </trkpt>
      <trkpt lat="47.89164" lon="-3.14117">
        <ele>47.26</ele>
        <time>2020-08-06T14:40:23Z</time>
      </trkpt>
      <trkpt lat="47.89174" lon="-3.14126">
        <ele>48.3</ele>
        <time>2020-08-06T14:40:29Z</time>
      </trkpt>
      <trkpt lat="47.89193" lon="-3.14135">
        <ele>51.46</ele>
        <time>2020-08-06T14:40:44Z</time>
      </trkpt>
      <trkpt lat="47.89209" lon="-3.14139">
        <ele>53.69</ele>
        <time>2020-08-06T14:40:59Z</time>
      </trkpt>
      <trkpt lat="47.89244" lon="-3.14171">
        <ele>55.87</ele>
        <time>2020-08-06T14:41:23Z</time>
      </trkpt>
      <trkpt lat="47.89241" lon="-3.14181">
        <ele>56.6</ele>
        <time>2020-08-06T14:41:29Z</time>
      </trkpt>
      <trkpt lat="47.89225" lon="-3.14196">
        <ele>57.58</ele>
        <time>2020-08-06T14:41:42Z</time>
      </trkpt>
      <trkpt lat="47.89205" lon="-3.14206">
        <ele>60.71</ele>
        <time>2020-08-06T14:42:01Z</time>
      </trkpt>
      <trkpt lat="47.89198" lon="-3.14213">
        <ele>62.59</ele>
        <time>2020-08-06T14:42:16Z</time>
      </trkpt>
      <trkpt lat="47.89198" lon="-3.14214">
        <ele>63.05</ele>
        <time>2020-08-06T14:42:23Z</time>
      </trkpt>
      <trkpt lat="47.89177" lon="-3.14217">
        <ele>61.56</ele>
        <time>2020-08-06T14:44:48Z</time>
      </trkpt>
      <trkpt lat="47.89178" lon="-3.14213">
        <ele>61.47</ele>
        <time>2020-08-06T14:44:50Z</time>
      </trkpt>
      <trkpt lat="47.89185" lon="-3.14184">
        <ele>60.87</ele>
        <time>2020-08-06T14:45:04Z</time>
      </trkpt>
      <trkpt lat="47.89187" lon="-3.14183">
        <ele>60.75</ele>
        <time>2020-08-06T14:45:06Z</time>
      </trkpt>
      <trkpt lat="47.8919" lon="-3.14181">
        <ele>60.46</ele>
        <time>2020-08-06T14:45:12Z</time>
      </trkpt>
      <trkpt lat="47.89216" lon="-3.14154">
        <ele>57.48</ele>
        <time>2020-08-06T14:45:36Z</time>
      </trkpt>
      <trkpt lat="47.89233" lon="-3.14151">
        <ele>56.24</ele>
        <time>2020-08-06T14:45:46Z</time>
      </trkpt>
      <trkpt lat="47.8924" lon="-3.14154">
        <ele>55.81</ele>
        <time>2020-08-06T14:45:50Z</time>
      </trkpt>
      <trkpt lat="47.89246" lon="-3.14156">
        <ele>55.46</ele>
        <time>2020-08-06T14:45:54Z</time>
      </trkpt>
      <trkpt lat="47.89251" lon="-3.14154">
        <ele>54.93</ele>
        <time>2020-08-06T14:45:58Z</time>
      </trkpt>
      <trkpt lat="47.89261" lon="-3.14147">
        <ele>54.68</ele>
        <time>2020-08-06T14:46:04Z</time>
      </trkpt>
      <trkpt lat="47.89279" lon="-3.14124">
        <ele>54.3</ele>
        <time>2020-08-06T14:46:17Z</time>
      </trkpt>
      <trkpt lat="47.89291" lon="-3.14109">
        <ele>53.93</ele>
        <time>2020-08-06T14:46:27Z</time>
      </trkpt>
      <trkpt lat="47.89295" lon="-3.14107">
        <ele>53.29</ele>
        <time>2020-08-06T14:46:30Z</time>
      </trkpt>
      <trkpt lat="47.89313" lon="-3.14103">
        <ele>51.22</ele>
        <time>2020-08-06T14:46:42Z</time>
      </trkpt>
      <trkpt lat="47.89335" lon="-3.14107">
        <ele>49.81</ele>
        <time>2020-08-06T14:46:52Z</time>
      </trkpt>
      <trkpt lat="47.89348" lon="-3.14104">
        <ele>49.06</ele>
        <time>2020-08-06T14:47:03Z</time>
      </trkpt>
      <trkpt lat="47.89377" lon="-3.14091">
        <ele>46.33</ele>
        <time>2020-08-06T14:47:23Z</time>
      </trkpt>
      <trkpt lat="47.89385" lon="-3.14086">
        <ele>44.84</ele>
        <time>2020-08-06T14:47:29Z</time>
      </trkpt>
      <trkpt lat="47.89399" lon="-3.14084">
        <ele>42.11</ele>
        <time>2020-08-06T14:47:42Z</time>
      </trkpt>
      <trkpt lat="47.89401" lon="-3.1408">
        <ele>41.39</ele>
        <time>2020-08-06T14:47:54Z</time>
      </trkpt>
      <trkpt lat="47.89465" lon="-3.14077">
        <ele>37.62</ele>
        <time>2020-08-06T14:50:04Z</time>
      </trkpt>
      <trkpt lat="47.89466" lon="-3.14078">
        <ele>37.69</ele>
        <time>2020-08-06T14:50:05Z</time>
      </trkpt>
      <trkpt lat="47.89469" lon="-3.14081">
        <ele>37.9</ele>
        <time>2020-08-06T14:50:08Z</time>
      </trkpt>
      <trkpt lat="47.89498" lon="-3.14098">
        <ele>38.16</ele>
        <time>2020-08-06T14:50:26Z</time>
      </trkpt>
      <trkpt lat="47.89516" lon="-3.14078">
        <ele>36.37</ele>
        <time>2020-08-06T14:50:44Z</time>
      </trkpt>
      <trkpt lat="47.89518" lon="-3.14075">
        <ele>36.11</ele>
        <time>2020-08-06T14:50:46Z</time>
      </trkpt>
      <trkpt lat="47.89524" lon="-3.14063">
        <ele>36.51</ele>
        <time>2020-08-06T14:50:58Z</time>
      </trkpt>
      <trkpt lat="47.89524" lon="-3.14059">
        <ele>36.94</ele>
        <time>2020-08-06T14:51:01Z</time>
      </trkpt>
      <trkpt lat="47.89523" lon="-3.1405">
        <ele>37.34</ele>
        <time>2020-08-06T14:51:04Z</time>
      </trkpt>
      <trkpt lat="47.89522" lon="-3.14045">
        <ele>37.77</ele>
        <time>2020-08-06T14:51:07Z</time>
      </trkpt>
      <trkpt lat="47.89519" lon="-3.14036">
        <ele>38.43</ele>
        <time>2020-08-06T14:51:13Z</time>
      </trkpt>
      <trkpt lat="47.89515" lon="-3.14027">
        <ele>39.31</ele>
        <time>2020-08-06T14:51:19Z</time>
      </trkpt>
      <trkpt lat="47.89511" lon="-3.1402">
        <ele>39.82</ele>
        <time>2020-08-06T14:51:24Z</time>
      </trkpt>
      <trkpt lat="47.89504" lon="-3.14012">
        <ele>40.58</ele>
        <time>2020-08-06T14:51:29Z</time>
      </trkpt>
      <trkpt lat="47.89498" lon="-3.13993">
        <ele>42.53</ele>
        <time>2020-08-06T14:51:39Z</time>
      </trkpt>
      <trkpt lat="47.89482" lon="-3.13967">
        <ele>43.81</ele>
        <time>2020-08-06T14:51:56Z</time>
      </trkpt>
      <trkpt lat="47.89473" lon="-3.13952">
        <ele>45.05</ele>
        <time>2020-08-06T14:52:05Z</time>
      </trkpt>
      <trkpt lat="47.8946" lon="-3.13941">
        <ele>46.41</ele>
        <time>2020-08-06T14:52:14Z</time>
      </trkpt>
      <trkpt lat="47.89457" lon="-3.13941">
        <ele>46.66</ele>
        <time>2020-08-06T14:52:17Z</time>
      </trkpt>
      <trkpt lat="47.89452" lon="-3.13942">
        <ele>47.38</ele>
        <time>2020-08-06T14:52:21Z</time>
      </trkpt>
      <trkpt lat="47.8945" lon="-3.13939">
        <ele>47.67</ele>
        <time>2020-08-06T14:52:23Z</time>
      </trkpt>
      <trkpt lat="47.8945" lon="-3.13935">
        <ele>47.94</ele>
        <time>2020-08-06T14:52:26Z</time>
      </trkpt>
      <trkpt lat="47.89452" lon="-3.13932">
        <ele>48.36</ele>
        <time>2020-08-06T14:52:29Z</time>
      </trkpt>
      <trkpt lat="47.89458" lon="-3.1393">
        <ele>50.13</ele>
        <time>2020-08-06T14:52:35Z</time>
      </trkpt>
      <trkpt lat="47.8946" lon="-3.13932">
        <ele>50.7</ele>
        <time>2020-08-06T14:52:37Z</time>
      </trkpt>
      <trkpt lat="47.89463" lon="-3.13933">
        <ele>51.51</ele>
        <time>2020-08-06T14:52:40Z</time>
      </trkpt>
      <trkpt lat="47.89464" lon="-3.13934">
        <ele>52.03</ele>
        <time>2020-08-06T14:52:42Z</time>
      </trkpt>
      <trkpt lat="47.89473" lon="-3.13932">
        <ele>54.13</ele>
        <time>2020-08-06T14:52:53Z</time>
      </trkpt>
      <trkpt lat="47.89489" lon="-3.13893">
        <ele>56.23</ele>
        <time>2020-08-06T14:53:17Z</time>
      </trkpt>
      <trkpt lat="47.89475" lon="-3.13886">
        <ele>56.74</ele>
        <time>2020-08-06T14:53:29Z</time>
      </trkpt>
      <trkpt lat="47.89461" lon="-3.13879">
        <ele>57.25</ele>
        <time>2020-08-06T14:53:42Z</time>
      </trkpt>
      <trkpt lat="47.8946" lon="-3.13879">
        <ele>57.29</ele>
        <time>2020-08-06T14:53:43Z</time>
      </trkpt>
      <trkpt lat="47.89454" lon="-3.13876">
        <ele>57.42</ele>
        <time>2020-08-06T14:53:48Z</time>
      </trkpt>
      <trkpt lat="47.89449" lon="-3.13872">
        <ele>57.38</ele>
        <time>2020-08-06T14:53:51Z</time>
      </trkpt>
      <trkpt lat="47.89431" lon="-3.13868">
        <ele>57.45</ele>
        <time>2020-08-06T14:54:03Z</time>
      </trkpt>
      <trkpt lat="47.89425" lon="-3.13867">
        <ele>57.47</ele>
        <time>2020-08-06T14:54:06Z</time>
      </trkpt>
      <trkpt lat="47.89418" lon="-3.13863">
        <ele>57.29</ele>
        <time>2020-08-06T14:54:11Z</time>
      </trkpt>
      <trkpt lat="47.89416" lon="-3.13861">
        <ele>57.18</ele>
        <time>2020-08-06T14:54:12Z</time>
      </trkpt>
      <trkpt lat="47.89414" lon="-3.13857">
        <ele>57.03</ele>
        <time>2020-08-06T14:54:13Z</time>
      </trkpt>
      <trkpt lat="47.89386" lon="-3.1384">
        <ele>56.87</ele>
        <time>2020-08-06T14:54:23Z</time>
      </trkpt>
      <trkpt lat="47.89382" lon="-3.13837">
        <ele>57.07</ele>
        <time>2020-08-06T14:54:24Z</time>
      </trkpt>
      <trkpt lat="47.89379" lon="-3.13834">
        <ele>57.27</ele>
        <time>2020-08-06T14:54:25Z</time>
      </trkpt>
      <trkpt lat="47.89375" lon="-3.13831">
        <ele>57.45</ele>
        <time>2020-08-06T14:54:26Z</time>
      </trkpt>
      <trkpt lat="47.89371" lon="-3.13827">
        <ele>57.67</ele>
        <time>2020-08-06T14:54:27Z</time>
      </trkpt>
      <trkpt lat="47.89368" lon="-3.13822">
        <ele>57.91</ele>
        <time>2020-08-06T14:54:28Z</time>
      </trkpt>
      <trkpt lat="47.89364" lon="-3.13818">
        <ele>58.14</ele>
        <time>2020-08-06T14:54:29Z</time>
      </trkpt>
      <trkpt lat="47.8936" lon="-3.13813">
        <ele>58.37</ele>
        <time>2020-08-06T14:54:30Z</time>
      </trkpt>
      <trkpt lat="47.8935" lon="-3.13805">
        <ele>58.9</ele>
        <time>2020-08-06T14:54:32Z</time>
      </trkpt>
      <trkpt lat="47.89345" lon="-3.13802">
        <ele>59.18</ele>
        <time>2020-08-06T14:54:33Z</time>
      </trkpt>
      <trkpt lat="47.8934" lon="-3.138">
        <ele>59.47</ele>
        <time>2020-08-06T14:54:34Z</time>
      </trkpt>
      <trkpt lat="47.89324" lon="-3.13794">
        <ele>60.68</ele>
        <time>2020-08-06T14:54:37Z</time>
      </trkpt>
      <trkpt lat="47.8932" lon="-3.13792">
        <ele>61.18</ele>
        <time>2020-08-06T14:54:38Z</time>
      </trkpt>
      <trkpt lat="47.89317" lon="-3.13789">
        <ele>62.13</ele>
        <time>2020-08-06T14:54:39Z</time>
      </trkpt>
      <trkpt lat="47.89314" lon="-3.13785">
        <ele>62.63</ele>
        <time>2020-08-06T14:54:40Z</time>
      </trkpt>
      <trkpt lat="47.89311" lon="-3.13778">
        <ele>63.16</ele>
        <time>2020-08-06T14:54:41Z</time>
      </trkpt>
      <trkpt lat="47.8931" lon="-3.13772">
        <ele>63.67</ele>
        <time>2020-08-06T14:54:42Z</time>
      </trkpt>
      <trkpt lat="47.8931" lon="-3.13765">
        <ele>64.14</ele>
        <time>2020-08-06T14:54:43Z</time>
      </trkpt>
      <trkpt lat="47.8931" lon="-3.13757">
        <ele>64.6</ele>
        <time>2020-08-06T14:54:44Z</time>
      </trkpt>
      <trkpt lat="47.8931" lon="-3.13751">
        <ele>65.05</ele>
        <time>2020-08-06T14:54:45Z</time>
      </trkpt>
      <trkpt lat="47.8931" lon="-3.13745">
        <ele>65.47</ele>
        <time>2020-08-06T14:54:46Z</time>
      </trkpt>
      <trkpt lat="47.89305" lon="-3.13729">
        <ele>67.12</ele>
        <time>2020-08-06T14:54:50Z</time>
      </trkpt>
      <trkpt lat="47.89302" lon="-3.13725">
        <ele>67.47</ele>
        <time>2020-08-06T14:54:51Z</time>
      </trkpt>
      <trkpt lat="47.89299" lon="-3.13722">
        <ele>67.79</ele>
        <time>2020-08-06T14:54:52Z</time>
      </trkpt>
      <trkpt lat="47.89296" lon="-3.1372">
        <ele>68.1</ele>
        <time>2020-08-06T14:54:53Z</time>
      </trkpt>
      <trkpt lat="47.89293" lon="-3.13719">
        <ele>68.34</ele>
        <time>2020-08-06T14:54:54Z</time>
      </trkpt>
      <trkpt lat="47.8929" lon="-3.13717">
        <ele>68.53</ele>
        <time>2020-08-06T14:54:55Z</time>
      </trkpt>
      <trkpt lat="47.89287" lon="-3.13715">
        <ele>68.68</ele>
        <time>2020-08-06T14:54:56Z</time>
      </trkpt>
      <trkpt lat="47.89284" lon="-3.13714">
        <ele>68.77</ele>
        <time>2020-08-06T14:54:57Z</time>
      </trkpt>
      <trkpt lat="47.89281" lon="-3.13714">
        <ele>68.83</ele>
        <time>2020-08-06T14:54:58Z</time>
      </trkpt>
      <trkpt lat="47.89278" lon="-3.13712">
        <ele>68.83</ele>
        <time>2020-08-06T14:54:59Z</time>
      </trkpt>
      <trkpt lat="47.89274" lon="-3.13709">
        <ele>68.78</ele>
        <time>2020-08-06T14:55:00Z</time>
      </trkpt>
      <trkpt lat="47.8927" lon="-3.13706">
        <ele>68.72</ele>
        <time>2020-08-06T14:55:01Z</time>
      </trkpt>
      <trkpt lat="47.89266" lon="-3.13701">
        <ele>68.63</ele>
        <time>2020-08-06T14:55:02Z</time>
      </trkpt>
      <trkpt lat="47.89263" lon="-3.13695">
        <ele>68.51</ele>
        <time>2020-08-06T14:55:03Z</time>
      </trkpt>
      <trkpt lat="47.8926" lon="-3.13688">
        <ele>68.38</ele>
        <time>2020-08-06T14:55:04Z</time>
      </trkpt>
      <trkpt lat="47.89258" lon="-3.13679">
        <ele>68.25</ele>
        <time>2020-08-06T14:55:05Z</time>
      </trkpt>
      <trkpt lat="47.89255" lon="-3.1367">
        <ele>68.13</ele>
        <time>2020-08-06T14:55:06Z</time>
      </trkpt>
      <trkpt lat="47.89252" lon="-3.13661">
        <ele>67.98</ele>
        <time>2020-08-06T14:55:07Z</time>
      </trkpt>
      <trkpt lat="47.89229" lon="-3.13592">
        <ele>68.14</ele>
        <time>2020-08-06T14:55:16Z</time>
      </trkpt>
      <trkpt lat="47.89224" lon="-3.1357">
        <ele>68.5</ele>
        <time>2020-08-06T14:55:19Z</time>
      </trkpt>
      <trkpt lat="47.89224" lon="-3.13563">
        <ele>68.67</ele>
        <time>2020-08-06T14:55:20Z</time>
      </trkpt>
      <trkpt lat="47.89224" lon="-3.13556">
        <ele>68.84</ele>
        <time>2020-08-06T14:55:21Z</time>
      </trkpt>
      <trkpt lat="47.89227" lon="-3.13551">
        <ele>69.03</ele>
        <time>2020-08-06T14:55:22Z</time>
      </trkpt>
      <trkpt lat="47.8923" lon="-3.13545">
        <ele>69.24</ele>
        <time>2020-08-06T14:55:23Z</time>
      </trkpt>
      <trkpt lat="47.89233" lon="-3.13541">
        <ele>69.44</ele>
        <time>2020-08-06T14:55:24Z</time>
      </trkpt>
      <trkpt lat="47.89236" lon="-3.13536">
        <ele>69.7</ele>
        <time>2020-08-06T14:55:25Z</time>
      </trkpt>
      <trkpt lat="47.89238" lon="-3.13529">
        <ele>70</ele>
        <time>2020-08-06T14:55:26Z</time>
      </trkpt>
      <trkpt lat="47.89238" lon="-3.13521">
        <ele>70.32</ele>
        <time>2020-08-06T14:55:27Z</time>
      </trkpt>
      <trkpt lat="47.89237" lon="-3.13514">
        <ele>70.65</ele>
        <time>2020-08-06T14:55:28Z</time>
      </trkpt>
      <trkpt lat="47.89235" lon="-3.13506">
        <ele>71.01</ele>
        <time>2020-08-06T14:55:29Z</time>
      </trkpt>
      <trkpt lat="47.89232" lon="-3.13497">
        <ele>71.41</ele>
        <time>2020-08-06T14:55:30Z</time>
      </trkpt>
      <trkpt lat="47.89227" lon="-3.13483">
        <ele>72.23</ele>
        <time>2020-08-06T14:55:32Z</time>
      </trkpt>
      <trkpt lat="47.89213" lon="-3.13432">
        <ele>74.78</ele>
        <time>2020-08-06T14:55:40Z</time>
      </trkpt>
      <trkpt lat="47.89211" lon="-3.13418">
        <ele>75.2</ele>
        <time>2020-08-06T14:55:42Z</time>
      </trkpt>
      <trkpt lat="47.8921" lon="-3.13403">
        <ele>75.66</ele>
        <time>2020-08-06T14:55:44Z</time>
      </trkpt>
      <trkpt lat="47.8921" lon="-3.13395">
        <ele>75.86</ele>
        <time>2020-08-06T14:55:45Z</time>
      </trkpt>
      <trkpt lat="47.89211" lon="-3.13379">
        <ele>76.32</ele>
        <time>2020-08-06T14:55:47Z</time>
      </trkpt>
      <trkpt lat="47.89221" lon="-3.13351">
        <ele>77.14</ele>
        <time>2020-08-06T14:55:51Z</time>
      </trkpt>
      <trkpt lat="47.8924" lon="-3.13332">
        <ele>80.63</ele>
        <time>2020-08-06T14:56:00Z</time>
      </trkpt>
      <trkpt lat="47.89243" lon="-3.13327">
        <ele>81.26</ele>
        <time>2020-08-06T14:56:03Z</time>
      </trkpt>
      <trkpt lat="47.89244" lon="-3.13307">
        <ele>82.25</ele>
        <time>2020-08-06T14:56:12Z</time>
      </trkpt>
      <trkpt lat="47.89234" lon="-3.13275">
        <ele>82.72</ele>
        <time>2020-08-06T14:56:26Z</time>
      </trkpt>
      <trkpt lat="47.89231" lon="-3.13259">
        <ele>82.8</ele>
        <time>2020-08-06T14:56:34Z</time>
      </trkpt>
      <trkpt lat="47.89223" lon="-3.13229">
        <ele>83.02</ele>
        <time>2020-08-06T14:56:46Z</time>
      </trkpt>
      <trkpt lat="47.89214" lon="-3.13192">
        <ele>83.02</ele>
        <time>2020-08-06T14:57:01Z</time>
      </trkpt>
      <trkpt lat="47.89209" lon="-3.13164">
        <ele>83.05</ele>
        <time>2020-08-06T14:57:10Z</time>
      </trkpt>
      <trkpt lat="47.89205" lon="-3.13136">
        <ele>82.96</ele>
        <time>2020-08-06T14:57:24Z</time>
      </trkpt>
      <trkpt lat="47.89203" lon="-3.13103">
        <ele>82.71</ele>
        <time>2020-08-06T14:57:37Z</time>
      </trkpt>
      <trkpt lat="47.89202" lon="-3.13071">
        <ele>82.99</ele>
        <time>2020-08-06T14:57:50Z</time>
      </trkpt>
      <trkpt lat="47.89202" lon="-3.13031">
        <ele>82.49</ele>
        <time>2020-08-06T14:58:02Z</time>
      </trkpt>
      <trkpt lat="47.89203" lon="-3.13008">
        <ele>81.61</ele>
        <time>2020-08-06T14:58:10Z</time>
      </trkpt>
      <trkpt lat="47.89204" lon="-3.13006">
        <ele>81.55</ele>
        <time>2020-08-06T14:58:11Z</time>
      </trkpt>
      <trkpt lat="47.8921" lon="-3.12998">
        <ele>81.4</ele>
        <time>2020-08-06T14:58:18Z</time>
      </trkpt>
      <trkpt lat="47.89211" lon="-3.12999">
        <ele>81.41</ele>
        <time>2020-08-06T14:58:19Z</time>
      </trkpt>
      <trkpt lat="47.89215" lon="-3.12999">
        <ele>81.41</ele>
        <time>2020-08-06T14:58:22Z</time>
      </trkpt>
      <trkpt lat="47.89216" lon="-3.12998">
        <ele>81.41</ele>
        <time>2020-08-06T14:58:23Z</time>
      </trkpt>
      <trkpt lat="47.89234" lon="-3.12992">
        <ele>80.93</ele>
        <time>2020-08-06T14:58:37Z</time>
      </trkpt>
      <trkpt lat="47.89236" lon="-3.12991">
        <ele>80.91</ele>
        <time>2020-08-06T14:58:38Z</time>
      </trkpt>
      <trkpt lat="47.89239" lon="-3.1299">
        <ele>80.85</ele>
        <time>2020-08-06T14:58:40Z</time>
      </trkpt>
      <trkpt lat="47.89241" lon="-3.1299">
        <ele>80.84</ele>
        <time>2020-08-06T14:58:41Z</time>
      </trkpt>
      <trkpt lat="47.89261" lon="-3.12992">
        <ele>80.06</ele>
        <time>2020-08-06T14:58:53Z</time>
      </trkpt>
      <trkpt lat="47.89275" lon="-3.12994">
        <ele>78.72</ele>
        <time>2020-08-06T14:59:05Z</time>
      </trkpt>
      <trkpt lat="47.89286" lon="-3.13004">
        <ele>77.76</ele>
        <time>2020-08-06T14:59:14Z</time>
      </trkpt>
      <trkpt lat="47.89293" lon="-3.13013">
        <ele>77.61</ele>
        <time>2020-08-06T14:59:17Z</time>
      </trkpt>
      <trkpt lat="47.89304" lon="-3.13018">
        <ele>76.98</ele>
        <time>2020-08-06T14:59:24Z</time>
      </trkpt>
      <trkpt lat="47.89306" lon="-3.13018">
        <ele>76.81</ele>
        <time>2020-08-06T14:59:25Z</time>
      </trkpt>
      <trkpt lat="47.89327" lon="-3.13029">
        <ele>77.23</ele>
        <time>2020-08-06T14:59:34Z</time>
      </trkpt>
      <trkpt lat="47.8933" lon="-3.1303">
        <ele>77.09</ele>
        <time>2020-08-06T14:59:35Z</time>
      </trkpt>
      <trkpt lat="47.89345" lon="-3.13034">
        <ele>75.82</ele>
        <time>2020-08-06T14:59:41Z</time>
      </trkpt>
      <trkpt lat="47.8937" lon="-3.13038">
        <ele>74.2</ele>
        <time>2020-08-06T14:59:54Z</time>
      </trkpt>
      <trkpt lat="47.89374" lon="-3.1304">
        <ele>73.95</ele>
        <time>2020-08-06T14:59:56Z</time>
      </trkpt>
      <trkpt lat="47.89376" lon="-3.1304">
        <ele>73.83</ele>
        <time>2020-08-06T14:59:57Z</time>
      </trkpt>
      <trkpt lat="47.89388" lon="-3.1304">
        <ele>72.83</ele>
        <time>2020-08-06T15:00:06Z</time>
      </trkpt>
      <trkpt lat="47.89389" lon="-3.1304">
        <ele>72.72</ele>
        <time>2020-08-06T15:00:07Z</time>
      </trkpt>
      <trkpt lat="47.89392" lon="-3.1304">
        <ele>72.61</ele>
        <time>2020-08-06T15:00:08Z</time>
      </trkpt>
      <trkpt lat="47.89393" lon="-3.13041">
        <ele>72.5</ele>
        <time>2020-08-06T15:00:09Z</time>
      </trkpt>
      <trkpt lat="47.89395" lon="-3.13041">
        <ele>72.4</ele>
        <time>2020-08-06T15:00:10Z</time>
      </trkpt>
      <trkpt lat="47.89398" lon="-3.13042">
        <ele>72.31</ele>
        <time>2020-08-06T15:00:11Z</time>
      </trkpt>
      <trkpt lat="47.89399" lon="-3.13043">
        <ele>72.21</ele>
        <time>2020-08-06T15:00:12Z</time>
      </trkpt>
      <trkpt lat="47.89401" lon="-3.13044">
        <ele>72.11</ele>
        <time>2020-08-06T15:00:13Z</time>
      </trkpt>
      <trkpt lat="47.89403" lon="-3.13044">
        <ele>71.99</ele>
        <time>2020-08-06T15:00:14Z</time>
      </trkpt>
      <trkpt lat="47.89406" lon="-3.13044">
        <ele>71.87</ele>
        <time>2020-08-06T15:00:15Z</time>
      </trkpt>
      <trkpt lat="47.89408" lon="-3.13045">
        <ele>71.76</ele>
        <time>2020-08-06T15:00:16Z</time>
      </trkpt>
      <trkpt lat="47.8941" lon="-3.13046">
        <ele>71.65</ele>
        <time>2020-08-06T15:00:17Z</time>
      </trkpt>
      <trkpt lat="47.89412" lon="-3.13047">
        <ele>71.55</ele>
        <time>2020-08-06T15:00:18Z</time>
      </trkpt>
      <trkpt lat="47.89426" lon="-3.13051">
        <ele>70.54</ele>
        <time>2020-08-06T15:00:28Z</time>
      </trkpt>
      <trkpt lat="47.89432" lon="-3.13053">
        <ele>69.98</ele>
        <time>2020-08-06T15:00:33Z</time>
      </trkpt>
      <trkpt lat="47.89441" lon="-3.13057">
        <ele>69.34</ele>
        <time>2020-08-06T15:00:40Z</time>
      </trkpt>
      <trkpt lat="47.89459" lon="-3.13065">
        <ele>68.64</ele>
        <time>2020-08-06T15:00:48Z</time>
      </trkpt>
      <trkpt lat="47.89473" lon="-3.13068">
        <ele>68.07</ele>
        <time>2020-08-06T15:00:54Z</time>
      </trkpt>
      <trkpt lat="47.89475" lon="-3.13068">
        <ele>67.91</ele>
        <time>2020-08-06T15:00:55Z</time>
      </trkpt>
      <trkpt lat="47.89476" lon="-3.13068">
        <ele>67.75</ele>
        <time>2020-08-06T15:00:56Z</time>
      </trkpt>
      <trkpt lat="47.89477" lon="-3.13069">
        <ele>67.6</ele>
        <time>2020-08-06T15:00:57Z</time>
      </trkpt>
      <trkpt lat="47.89479" lon="-3.13069">
        <ele>67.47</ele>
        <time>2020-08-06T15:00:58Z</time>
      </trkpt>
      <trkpt lat="47.89481" lon="-3.13069">
        <ele>67.37</ele>
        <time>2020-08-06T15:00:59Z</time>
      </trkpt>
      <trkpt lat="47.89482" lon="-3.1307">
        <ele>67.28</ele>
        <time>2020-08-06T15:01:00Z</time>
      </trkpt>
      <trkpt lat="47.895" lon="-3.13074">
        <ele>66.24</ele>
        <time>2020-08-06T15:01:14Z</time>
      </trkpt>
      <trkpt lat="47.89527" lon="-3.13075">
        <ele>65.61</ele>
        <time>2020-08-06T15:01:26Z</time>
      </trkpt>
      <trkpt lat="47.89551" lon="-3.13072">
        <ele>65.08</ele>
        <time>2020-08-06T15:01:39Z</time>
      </trkpt>
      <trkpt lat="47.89573" lon="-3.13066">
        <ele>64.45</ele>
        <time>2020-08-06T15:01:53Z</time>
      </trkpt>
      <trkpt lat="47.89601" lon="-3.13067">
        <ele>64.7</ele>
        <time>2020-08-06T15:02:10Z</time>
      </trkpt>
      <trkpt lat="47.89618" lon="-3.13073">
        <ele>64.38</ele>
        <time>2020-08-06T15:02:22Z</time>
      </trkpt>
      <trkpt lat="47.89652" lon="-3.13078">
        <ele>64.81</ele>
        <time>2020-08-06T15:02:43Z</time>
      </trkpt>
      <trkpt lat="47.89675" lon="-3.13079">
        <ele>64.97</ele>
        <time>2020-08-06T15:02:58Z</time>
      </trkpt>
      <trkpt lat="47.89688" lon="-3.13083">
        <ele>65.19</ele>
        <time>2020-08-06T15:03:06Z</time>
      </trkpt>
      <trkpt lat="47.89689" lon="-3.13084">
        <ele>65.19</ele>
        <time>2020-08-06T15:03:07Z</time>
      </trkpt>
      <trkpt lat="47.8969" lon="-3.13084">
        <ele>65.19</ele>
        <time>2020-08-06T15:03:08Z</time>
      </trkpt>
      <trkpt lat="47.89692" lon="-3.13085">
        <ele>65.19</ele>
        <time>2020-08-06T15:03:09Z</time>
      </trkpt>
      <trkpt lat="47.89694" lon="-3.13086">
        <ele>65.15</ele>
        <time>2020-08-06T15:03:10Z</time>
      </trkpt>
      <trkpt lat="47.89695" lon="-3.13087">
        <ele>65.16</ele>
        <time>2020-08-06T15:03:11Z</time>
      </trkpt>
      <trkpt lat="47.89698" lon="-3.1309">
        <ele>65.15</ele>
        <time>2020-08-06T15:03:14Z</time>
      </trkpt>
      <trkpt lat="47.89699" lon="-3.13092">
        <ele>65.2</ele>
        <time>2020-08-06T15:03:15Z</time>
      </trkpt>
      <trkpt lat="47.897" lon="-3.13093">
        <ele>65.26</ele>
        <time>2020-08-06T15:03:16Z</time>
      </trkpt>
      <trkpt lat="47.89701" lon="-3.13095">
        <ele>65.36</ele>
        <time>2020-08-06T15:03:17Z</time>
      </trkpt>
      <trkpt lat="47.89701" lon="-3.13097">
        <ele>65.44</ele>
        <time>2020-08-06T15:03:18Z</time>
      </trkpt>
      <trkpt lat="47.89716" lon="-3.13111">
        <ele>65.74</ele>
        <time>2020-08-06T15:03:29Z</time>
      </trkpt>
      <trkpt lat="47.89723" lon="-3.13115">
        <ele>65.79</ele>
        <time>2020-08-06T15:03:33Z</time>
      </trkpt>
      <trkpt lat="47.89725" lon="-3.13116">
        <ele>65.78</ele>
        <time>2020-08-06T15:03:34Z</time>
      </trkpt>
      <trkpt lat="47.8973" lon="-3.13116">
        <ele>65.73</ele>
        <time>2020-08-06T15:03:40Z</time>
      </trkpt>
      <trkpt lat="47.89745" lon="-3.13124">
        <ele>65.38</ele>
        <time>2020-08-06T15:04:54Z</time>
      </trkpt>
      <trkpt lat="47.89756" lon="-3.13121">
        <ele>64.72</ele>
        <time>2020-08-06T15:05:05Z</time>
      </trkpt>
      <trkpt lat="47.89779" lon="-3.13118">
        <ele>62.97</ele>
        <time>2020-08-06T15:05:24Z</time>
      </trkpt>
      <trkpt lat="47.89791" lon="-3.13116">
        <ele>61.2</ele>
        <time>2020-08-06T15:05:38Z</time>
      </trkpt>
      <trkpt lat="47.89803" lon="-3.13121">
        <ele>60.31</ele>
        <time>2020-08-06T15:05:49Z</time>
      </trkpt>
      <trkpt lat="47.89811" lon="-3.13127">
        <ele>59.7</ele>
        <time>2020-08-06T15:05:57Z</time>
      </trkpt>
      <trkpt lat="47.89825" lon="-3.13139">
        <ele>58.89</ele>
        <time>2020-08-06T15:06:07Z</time>
      </trkpt>
      <trkpt lat="47.89841" lon="-3.13149">
        <ele>58.65</ele>
        <time>2020-08-06T15:06:16Z</time>
      </trkpt>
      <trkpt lat="47.89863" lon="-3.13177">
        <ele>57.78</ele>
        <time>2020-08-06T15:06:35Z</time>
      </trkpt>
      <trkpt lat="47.89868" lon="-3.13187">
        <ele>57.02</ele>
        <time>2020-08-06T15:06:41Z</time>
      </trkpt>
      <trkpt lat="47.89872" lon="-3.13195">
        <ele>56.47</ele>
        <time>2020-08-06T15:06:45Z</time>
      </trkpt>
      <trkpt lat="47.89876" lon="-3.132">
        <ele>55.95</ele>
        <time>2020-08-06T15:06:48Z</time>
      </trkpt>
      <trkpt lat="47.89881" lon="-3.13205">
        <ele>55.32</ele>
        <time>2020-08-06T15:06:51Z</time>
      </trkpt>
      <trkpt lat="47.89883" lon="-3.13206">
        <ele>55.14</ele>
        <time>2020-08-06T15:06:52Z</time>
      </trkpt>
      <trkpt lat="47.89885" lon="-3.13207">
        <ele>54.78</ele>
        <time>2020-08-06T15:06:53Z</time>
      </trkpt>
      <trkpt lat="47.89887" lon="-3.13208">
        <ele>54.59</ele>
        <time>2020-08-06T15:06:54Z</time>
      </trkpt>
      <trkpt lat="47.8991" lon="-3.13207">
        <ele>53.54</ele>
        <time>2020-08-06T15:07:05Z</time>
      </trkpt>
      <trkpt lat="47.89931" lon="-3.13194">
        <ele>53.9</ele>
        <time>2020-08-06T15:07:18Z</time>
      </trkpt>
      <trkpt lat="47.89935" lon="-3.1319">
        <ele>54.12</ele>
        <time>2020-08-06T15:07:21Z</time>
      </trkpt>
      <trkpt lat="47.89944" lon="-3.13183">
        <ele>54.45</ele>
        <time>2020-08-06T15:07:27Z</time>
      </trkpt>
      <trkpt lat="47.89964" lon="-3.13161">
        <ele>55.34</ele>
        <time>2020-08-06T15:07:41Z</time>
      </trkpt>
      <trkpt lat="47.89979" lon="-3.13149">
        <ele>57.86</ele>
        <time>2020-08-06T15:07:54Z</time>
      </trkpt>
      <trkpt lat="47.89986" lon="-3.13145">
        <ele>58.79</ele>
        <time>2020-08-06T15:08:00Z</time>
      </trkpt>
      <trkpt lat="47.89996" lon="-3.1314">
        <ele>60.82</ele>
        <time>2020-08-06T15:08:08Z</time>
      </trkpt>
      <trkpt lat="47.90004" lon="-3.13137">
        <ele>63.48</ele>
        <time>2020-08-06T15:08:16Z</time>
      </trkpt>
      <trkpt lat="47.90014" lon="-3.13129">
        <ele>66.4</ele>
        <time>2020-08-06T15:08:26Z</time>
      </trkpt>
      <trkpt lat="47.90024" lon="-3.13127">
        <ele>67.65</ele>
        <time>2020-08-06T15:08:32Z</time>
      </trkpt>
      <trkpt lat="47.90037" lon="-3.13117">
        <ele>70.92</ele>
        <time>2020-08-06T15:08:44Z</time>
      </trkpt>
      <trkpt lat="47.90039" lon="-3.13107">
        <ele>72.26</ele>
        <time>2020-08-06T15:08:50Z</time>
      </trkpt>
      <trkpt lat="47.9004" lon="-3.13074">
        <ele>74.24</ele>
        <time>2020-08-06T15:09:03Z</time>
      </trkpt>
      <trkpt lat="47.90044" lon="-3.13037">
        <ele>76.97</ele>
        <time>2020-08-06T15:09:21Z</time>
      </trkpt>
      <trkpt lat="47.90045" lon="-3.13032">
        <ele>77.36</ele>
        <time>2020-08-06T15:09:23Z</time>
      </trkpt>
      <trkpt lat="47.90047" lon="-3.13025">
        <ele>77.88</ele>
        <time>2020-08-06T15:09:26Z</time>
      </trkpt>
      <trkpt lat="47.90053" lon="-3.12997">
        <ele>80.15</ele>
        <time>2020-08-06T15:09:40Z</time>
      </trkpt>
      <trkpt lat="47.9006" lon="-3.12963">
        <ele>82.39</ele>
        <time>2020-08-06T15:09:55Z</time>
      </trkpt>
      <trkpt lat="47.90062" lon="-3.12961">
        <ele>83.15</ele>
        <time>2020-08-06T15:09:59Z</time>
      </trkpt>
      <trkpt lat="47.90068" lon="-3.12967">
        <ele>83.87</ele>
        <time>2020-08-06T15:10:06Z</time>
      </trkpt>
      <trkpt lat="47.90071" lon="-3.12971">
        <ele>83.92</ele>
        <time>2020-08-06T15:10:10Z</time>
      </trkpt>
      <trkpt lat="47.90086" lon="-3.12989">
        <ele>85.34</ele>
        <time>2020-08-06T15:10:22Z</time>
      </trkpt>
      <trkpt lat="47.90088" lon="-3.12989">
        <ele>85.42</ele>
        <time>2020-08-06T15:10:23Z</time>
      </trkpt>
      <trkpt lat="47.90106" lon="-3.13001">
        <ele>86.81</ele>
        <time>2020-08-06T15:10:34Z</time>
      </trkpt>
      <trkpt lat="47.90116" lon="-3.13011">
        <ele>88.29</ele>
        <time>2020-08-06T15:10:43Z</time>
      </trkpt>
      <trkpt lat="47.90127" lon="-3.13021">
        <ele>89.5</ele>
        <time>2020-08-06T15:10:51Z</time>
      </trkpt>
      <trkpt lat="47.90128" lon="-3.13026">
        <ele>89.74</ele>
        <time>2020-08-06T15:10:53Z</time>
      </trkpt>
      <trkpt lat="47.90134" lon="-3.13045">
        <ele>90.24</ele>
        <time>2020-08-06T15:11:00Z</time>
      </trkpt>
      <trkpt lat="47.90149" lon="-3.13072">
        <ele>91.02</ele>
        <time>2020-08-06T15:11:14Z</time>
      </trkpt>
      <trkpt lat="47.9016" lon="-3.13084">
        <ele>92.36</ele>
        <time>2020-08-06T15:11:25Z</time>
      </trkpt>
      <trkpt lat="47.90165" lon="-3.13087">
        <ele>92.93</ele>
        <time>2020-08-06T15:11:29Z</time>
      </trkpt>
      <trkpt lat="47.90188" lon="-3.131">
        <ele>95.42</ele>
        <time>2020-08-06T15:11:42Z</time>
      </trkpt>
      <trkpt lat="47.90208" lon="-3.13125">
        <ele>98.1</ele>
        <time>2020-08-06T15:11:57Z</time>
      </trkpt>
      <trkpt lat="47.90215" lon="-3.13134">
        <ele>98.94</ele>
        <time>2020-08-06T15:12:03Z</time>
      </trkpt>
      <trkpt lat="47.9023" lon="-3.13145">
        <ele>100.76</ele>
        <time>2020-08-06T15:12:16Z</time>
      </trkpt>
      <trkpt lat="47.90244" lon="-3.13155">
        <ele>102.06</ele>
        <time>2020-08-06T15:12:29Z</time>
      </trkpt>
      <trkpt lat="47.90263" lon="-3.13178">
        <ele>101.92</ele>
        <time>2020-08-06T15:12:46Z</time>
      </trkpt>
      <trkpt lat="47.90268" lon="-3.13181">
        <ele>101.73</ele>
        <time>2020-08-06T15:12:49Z</time>
      </trkpt>
      <trkpt lat="47.90271" lon="-3.13183">
        <ele>101.64</ele>
        <time>2020-08-06T15:12:51Z</time>
      </trkpt>
      <trkpt lat="47.90274" lon="-3.13185">
        <ele>101.51</ele>
        <time>2020-08-06T15:12:53Z</time>
      </trkpt>
      <trkpt lat="47.90286" lon="-3.13191">
        <ele>100.78</ele>
        <time>2020-08-06T15:12:59Z</time>
      </trkpt>
      <trkpt lat="47.903" lon="-3.13192">
        <ele>99.31</ele>
        <time>2020-08-06T15:13:10Z</time>
      </trkpt>
      <trkpt lat="47.90365" lon="-3.13191">
        <ele>91.14</ele>
        <time>2020-08-06T15:14:15Z</time>
      </trkpt>
      <trkpt lat="47.90364" lon="-3.13215">
        <ele>89.54</ele>
        <time>2020-08-06T15:14:28Z</time>
      </trkpt>
      <trkpt lat="47.90362" lon="-3.13225">
        <ele>89.3</ele>
        <time>2020-08-06T15:14:31Z</time>
      </trkpt>
      <trkpt lat="47.90363" lon="-3.13235">
        <ele>88.94</ele>
        <time>2020-08-06T15:14:35Z</time>
      </trkpt>
      <trkpt lat="47.90367" lon="-3.13242">
        <ele>88.88</ele>
        <time>2020-08-06T15:14:39Z</time>
      </trkpt>
      <trkpt lat="47.90372" lon="-3.1325">
        <ele>89.73</ele>
        <time>2020-08-06T15:14:46Z</time>
      </trkpt>
      <trkpt lat="47.90374" lon="-3.13252">
        <ele>90.14</ele>
        <time>2020-08-06T15:14:49Z</time>
      </trkpt>
      <trkpt lat="47.90384" lon="-3.13259">
        <ele>90.99</ele>
        <time>2020-08-06T15:14:55Z</time>
      </trkpt>
      <trkpt lat="47.90415" lon="-3.13268">
        <ele>93.76</ele>
        <time>2020-08-06T15:15:09Z</time>
      </trkpt>
      <trkpt lat="47.90426" lon="-3.13279">
        <ele>95.44</ele>
        <time>2020-08-06T15:15:20Z</time>
      </trkpt>
      <trkpt lat="47.90427" lon="-3.13281">
        <ele>95.5</ele>
        <time>2020-08-06T15:15:21Z</time>
      </trkpt>
      <trkpt lat="47.9043" lon="-3.13292">
        <ele>96.13</ele>
        <time>2020-08-06T15:15:27Z</time>
      </trkpt>
      <trkpt lat="47.9043" lon="-3.13298">
        <ele>96.35</ele>
        <time>2020-08-06T15:15:29Z</time>
      </trkpt>
      <trkpt lat="47.90429" lon="-3.13302">
        <ele>96.48</ele>
        <time>2020-08-06T15:15:30Z</time>
      </trkpt>
      <trkpt lat="47.90417" lon="-3.13315">
        <ele>99.25</ele>
        <time>2020-08-06T15:15:41Z</time>
      </trkpt>
      <trkpt lat="47.90405" lon="-3.13327">
        <ele>102.47</ele>
        <time>2020-08-06T15:15:50Z</time>
      </trkpt>
      <trkpt lat="47.90396" lon="-3.13342">
        <ele>105.59</ele>
        <time>2020-08-06T15:16:01Z</time>
      </trkpt>
      <trkpt lat="47.90393" lon="-3.1335">
        <ele>106.48</ele>
        <time>2020-08-06T15:16:05Z</time>
      </trkpt>
      <trkpt lat="47.90395" lon="-3.13382">
        <ele>108.13</ele>
        <time>2020-08-06T15:16:15Z</time>
      </trkpt>
      <trkpt lat="47.90394" lon="-3.1341">
        <ele>111.26</ele>
        <time>2020-08-06T15:16:28Z</time>
      </trkpt>
      <trkpt lat="47.90395" lon="-3.13441">
        <ele>112.88</ele>
        <time>2020-08-06T15:16:42Z</time>
      </trkpt>
      <trkpt lat="47.90393" lon="-3.13472">
        <ele>113.97</ele>
        <time>2020-08-06T15:16:56Z</time>
      </trkpt>
      <trkpt lat="47.90394" lon="-3.13496">
        <ele>114.37</ele>
        <time>2020-08-06T15:17:05Z</time>
      </trkpt>
      <trkpt lat="47.90394" lon="-3.13497">
        <ele>114.4</ele>
        <time>2020-08-06T15:17:06Z</time>
      </trkpt>
      <trkpt lat="47.90395" lon="-3.13499">
        <ele>114.42</ele>
        <time>2020-08-06T15:17:07Z</time>
      </trkpt>
      <trkpt lat="47.90397" lon="-3.13502">
        <ele>114.44</ele>
        <time>2020-08-06T15:17:10Z</time>
      </trkpt>
      <trkpt lat="47.90413" lon="-3.13512">
        <ele>115.77</ele>
        <time>2020-08-06T15:17:25Z</time>
      </trkpt>
      <trkpt lat="47.90417" lon="-3.13513">
        <ele>116.72</ele>
        <time>2020-08-06T15:17:32Z</time>
      </trkpt>
      <trkpt lat="47.90433" lon="-3.13531">
        <ele>117</ele>
        <time>2020-08-06T15:17:54Z</time>
      </trkpt>
      <trkpt lat="47.90444" lon="-3.13536">
        <ele>117.37</ele>
        <time>2020-08-06T15:18:04Z</time>
      </trkpt>
      <trkpt lat="47.90458" lon="-3.13539">
        <ele>117.93</ele>
        <time>2020-08-06T15:18:20Z</time>
      </trkpt>
      <trkpt lat="47.90459" lon="-3.13539">
        <ele>117.94</ele>
        <time>2020-08-06T15:18:21Z</time>
      </trkpt>
      <trkpt lat="47.9046" lon="-3.13539">
        <ele>117.95</ele>
        <time>2020-08-06T15:18:22Z</time>
      </trkpt>
      <trkpt lat="47.90461" lon="-3.1354">
        <ele>117.95</ele>
        <time>2020-08-06T15:18:23Z</time>
      </trkpt>
      <trkpt lat="47.90462" lon="-3.13541">
        <ele>117.97</ele>
        <time>2020-08-06T15:18:24Z</time>
      </trkpt>
      <trkpt lat="47.90464" lon="-3.13542">
        <ele>118.01</ele>
        <time>2020-08-06T15:18:26Z</time>
      </trkpt>
      <trkpt lat="47.90481" lon="-3.13541">
        <ele>118.09</ele>
        <time>2020-08-06T15:18:40Z</time>
      </trkpt>
      <trkpt lat="47.90498" lon="-3.13545">
        <ele>117.2</ele>
        <time>2020-08-06T15:18:53Z</time>
      </trkpt>
      <trkpt lat="47.90513" lon="-3.13557">
        <ele>115.94</ele>
        <time>2020-08-06T15:19:06Z</time>
      </trkpt>
      <trkpt lat="47.90522" lon="-3.13577">
        <ele>115.15</ele>
        <time>2020-08-06T15:19:13Z</time>
      </trkpt>
      <trkpt lat="47.90533" lon="-3.1359">
        <ele>114.99</ele>
        <time>2020-08-06T15:19:25Z</time>
      </trkpt>
      <trkpt lat="47.90539" lon="-3.13595">
        <ele>114.89</ele>
        <time>2020-08-06T15:19:29Z</time>
      </trkpt>
      <trkpt lat="47.9054" lon="-3.13597">
        <ele>114.87</ele>
        <time>2020-08-06T15:19:30Z</time>
      </trkpt>
      <trkpt lat="47.90542" lon="-3.13615">
        <ele>114.57</ele>
        <time>2020-08-06T15:19:42Z</time>
      </trkpt>
      <trkpt lat="47.90546" lon="-3.13644">
        <ele>115.02</ele>
        <time>2020-08-06T15:19:56Z</time>
      </trkpt>
      <trkpt lat="47.90547" lon="-3.13647">
        <ele>115.06</ele>
        <time>2020-08-06T15:19:57Z</time>
      </trkpt>
      <trkpt lat="47.90554" lon="-3.13667">
        <ele>115.43</ele>
        <time>2020-08-06T15:20:08Z</time>
      </trkpt>
      <trkpt lat="47.90558" lon="-3.13675">
        <ele>115.4</ele>
        <time>2020-08-06T15:20:14Z</time>
      </trkpt>
      <trkpt lat="47.90573" lon="-3.13697">
        <ele>115.67</ele>
        <time>2020-08-06T15:20:27Z</time>
      </trkpt>
      <trkpt lat="47.90588" lon="-3.13712">
        <ele>116.03</ele>
        <time>2020-08-06T15:20:40Z</time>
      </trkpt>
      <trkpt lat="47.90598" lon="-3.13732">
        <ele>116.27</ele>
        <time>2020-08-06T15:20:52Z</time>
      </trkpt>
      <trkpt lat="47.90608" lon="-3.13746">
        <ele>116.57</ele>
        <time>2020-08-06T15:20:57Z</time>
      </trkpt>
      <trkpt lat="47.90618" lon="-3.13766">
        <ele>116.93</ele>
        <time>2020-08-06T15:21:05Z</time>
      </trkpt>
      <trkpt lat="47.90607" lon="-3.1379">
        <ele>117.57</ele>
        <time>2020-08-06T15:21:18Z</time>
      </trkpt>
      <trkpt lat="47.90589" lon="-3.13812">
        <ele>117.82</ele>
        <time>2020-08-06T15:21:30Z</time>
      </trkpt>
      <trkpt lat="47.9057" lon="-3.13839">
        <ele>117.92</ele>
        <time>2020-08-06T15:21:47Z</time>
      </trkpt>
      <trkpt lat="47.90552" lon="-3.13859">
        <ele>117.93</ele>
        <time>2020-08-06T15:22:01Z</time>
      </trkpt>
      <trkpt lat="47.9053" lon="-3.13882">
        <ele>118.59</ele>
        <time>2020-08-06T15:22:15Z</time>
      </trkpt>
      <trkpt lat="47.9051" lon="-3.13905">
        <ele>118.48</ele>
        <time>2020-08-06T15:22:28Z</time>
      </trkpt>
      <trkpt lat="47.9051" lon="-3.13907">
        <ele>118.46</ele>
        <time>2020-08-06T15:22:29Z</time>
      </trkpt>
      <trkpt lat="47.9051" lon="-3.13909">
        <ele>118.45</ele>
        <time>2020-08-06T15:22:30Z</time>
      </trkpt>
      <trkpt lat="47.90511" lon="-3.1391">
        <ele>118.44</ele>
        <time>2020-08-06T15:22:31Z</time>
      </trkpt>
      <trkpt lat="47.90511" lon="-3.13912">
        <ele>118.44</ele>
        <time>2020-08-06T15:22:32Z</time>
      </trkpt>
      <trkpt lat="47.90512" lon="-3.13914">
        <ele>118.44</ele>
        <time>2020-08-06T15:22:33Z</time>
      </trkpt>
      <trkpt lat="47.90516" lon="-3.13927">
        <ele>118.49</ele>
        <time>2020-08-06T15:22:40Z</time>
      </trkpt>
      <trkpt lat="47.90516" lon="-3.1393">
        <ele>118.51</ele>
        <time>2020-08-06T15:22:41Z</time>
      </trkpt>
      <trkpt lat="47.90516" lon="-3.13932">
        <ele>118.55</ele>
        <time>2020-08-06T15:22:42Z</time>
      </trkpt>
      <trkpt lat="47.90525" lon="-3.13965">
        <ele>119.12</ele>
        <time>2020-08-06T15:22:58Z</time>
      </trkpt>
      <trkpt lat="47.90529" lon="-3.13974">
        <ele>119.19</ele>
        <time>2020-08-06T15:23:03Z</time>
      </trkpt>
      <trkpt lat="47.9053" lon="-3.13976">
        <ele>119.2</ele>
        <time>2020-08-06T15:23:04Z</time>
      </trkpt>
      <trkpt lat="47.90531" lon="-3.13978">
        <ele>119.21</ele>
        <time>2020-08-06T15:23:05Z</time>
      </trkpt>
      <trkpt lat="47.90539" lon="-3.13987">
        <ele>119.31</ele>
        <time>2020-08-06T15:23:17Z</time>
      </trkpt>
      <trkpt lat="47.90548" lon="-3.13991">
        <ele>118.83</ele>
        <time>2020-08-06T15:23:28Z</time>
      </trkpt>
      <trkpt lat="47.90549" lon="-3.13992">
        <ele>118.83</ele>
        <time>2020-08-06T15:23:29Z</time>
      </trkpt>
      <trkpt lat="47.90548" lon="-3.14002">
        <ele>119.02</ele>
        <time>2020-08-06T15:23:40Z</time>
      </trkpt>
      <trkpt lat="47.90547" lon="-3.14004">
        <ele>119.01</ele>
        <time>2020-08-06T15:23:42Z</time>
      </trkpt>
      <trkpt lat="47.90538" lon="-3.14005">
        <ele>118.77</ele>
        <time>2020-08-06T15:23:53Z</time>
      </trkpt>
      <trkpt lat="47.90535" lon="-3.14005">
        <ele>118.73</ele>
        <time>2020-08-06T15:23:56Z</time>
      </trkpt>
      <trkpt lat="47.90531" lon="-3.14005">
        <ele>118.69</ele>
        <time>2020-08-06T15:24:05Z</time>
      </trkpt>
    </trkseg>
  </trk>
</gpx>